[[{"header":{"parameterUnit":"m.s-1","parameterCategory":1,"la1":30.6,"la2":28.766,"lo1":-90.7593,"lo2":-88.6598,"dy":0.0162,"dx":0.0183,"nx":116,"ny":114,"refTime":"2024-04-26T00:00:00:Z","depth":0,"parameterNumber":2,"parameterNumberName":"U-component_of_WINDS"},"data":[0.0,0.0,0.0,0.0,0.0,0.0,0.0,0.0,0.0,0.0,0.0,0.0,0.0,0.0,0.0,0.0,0.0,0.0,0.0,0.0,0.0,0.0,0.0,0.0,0.0,0.0,0.0,0.0,0.0,0.0,0.0,0.0,0.0,0.0,0.0,0.0,0.0,0.0,0.0,0.0,0.0,0.0,0.0,0.0,0.0,0.0,0.0,0.0,0.0,0.0,0.0,0.0,0.0,0.0,0.0,0.0,0.0,0.0,0.0,0.0,0.0,0.0,0.0,0.0,0.0,0.0,0.0,0.0,0.0,0.0,0.0,0.0,0.0,0.0,0.0,0.0,0.0,0.0,0.0,0.0,0.0,0.0,0.0,0.0,0.0,0.0,0.0,0.0,0.0,0.0,0.0,0.0,0.0,0.0,0.0,0.0,0.0,0.0,0.0,0.0,0.0,0.0,0.0,0.0,0.0,0.0,0.0,0.0,0.0,0.0,0.0,0.0,0.0,0.0,0.0,0.0,0.0,0.0,0.0,0.0,0.0,0.0,0.0,0.0,0.0,0.0,0.0,0.0,0.0,0.0,0.0,0.0,0.0,0.0,0.0,0.0,0.0,0.0,0.0,0.0,0.0,0.0,0.0,0.0,0.0,0.0,0.0,0.0,0.0,0.0,0.0,0.0,0.0,0.0,0.0,0.0,0.0,0.0,0.0,0.0,0.0,0.0,0.0,0.0,0.0,0.0,0.0,0.0,0.0,0.0,0.0,0.0,0.0,0.0,0.0,0.0,0.0,0.0,0.0,0.0,0.0,0.0,0.0,0.0,0.0,0.0,0.0,0.0,0.0,0.0,0.0,0.0,0.0,0.0,0.0,0.0,0.0,0.0,0.0,0.0,0.0,0.0,0.0,0.0,0.0,0.0,0.0,0.0,0.0,0.0,0.0,0.0,0.0,0.0,0.0,0.0,0.0,0.0,0.0,0.0,0.0,0.0,0.0,0.0,0.0,0.0,0.0,0.0,0.0,0.0,0.0,0.0,0.0,0.0,0.0,0.0,0.0,0.0,0.0,0.0,0.0,0.0,0.0,0.0,0.0,0.0,0.0,0.0,0.0,0.0,0.0,0.0,0.0,0.0,0.0,0.0,0.0,0.0,0.0,0.0,0.0,0.0,0.0,0.0,0.0,0.0,0.0,0.0,0.0,0.0,0.0,0.0,0.0,0.0,0.0,0.0,0.0,0.0,0.0,0.0,0.0,0.0,0.0,0.0,0.0,0.0,0.0,0.0,0.0,0.0,0.0,0.0,0.0,0.0,0.0,0.0,0.0,0.0,0.0,0.0,0.0,0.0,0.0,0.0,0.0,0.0,0.0,0.0,0.0,0.0,0.0,0.0,0.0,0.0,0.0,0.0,0.0,0.0,0.0,0.0,0.0,0.0,0.0,0.0,0.0,0.0,0.0,0.0,0.0,0.0,0.0,0.0,0.0,0.0,0.0,0.0,0.0,0.0,0.0,0.0,0.0,0.0,0.0,0.0,0.0,0.0,0.0,0.0,0.0,0.0,0.0,0.0,0.0,0.0,0.0,0.0,0.0,0.0,0.0,0.0,0.0,0.0,0.0,0.0,0.0,0.0,0.0,0.0,0.0,0.0,0.0,0.0,0.0,0.0,0.0,0.0,0.0,0.0,0.0,0.0,0.0,0.0,0.0,0.0,0.0,0.0,0.0,0.0,0.0,0.0,0.0,0.0,0.0,0.0,0.0,0.0,0.0,0.0,0.0,0.0,0.0,0.0,0.0,0.0,0.0,0.0,0.0,0.0,0.0,0.0,0.0,0.0,0.0,0.0,0.0,0.0,0.0,0.0,0.0,0.0,0.0,0.0,0.0,0.0,0.0,0.0,0.0,0.0,0.0,0.0,0.0,0.0,0.0,0.0,0.0,0.0,0.0,0.0,0.0,0.0,0.0,0.0,0.0,0.0,0.0,0.0,0.0,0.0,0.0,0.0,0.0,0.0,0.0,0.0,0.0,0.0,0.0,0.0,0.0,0.0,0.0,0.0,0.0,0.0,0.0,0.0,0.0,0.0,0.0,0.0,0.0,0.0,0.0,0.0,0.0,0.0,0.0,0.0,0.0,0.0,0.0,0.0,0.0,0.0,0.0,0.0,0.0,0.0,0.0,0.0,0.0,0.0,0.0,0.0,0.0,0.0,0.0,0.0,0.0,0.0,0.0,0.0,0.0,0.0,0.0,0.0,0.0,0.0,0.0,0.0,0.0,0.0,0.0,0.0,0.0,0.0,0.0,0.0,0.0,0.0,0.0,0.0,0.0,0.0,0.0,0.0,0.0,0.0,0.0,0.0,0.0,0.0,0.0,0.0,0.0,0.0,0.0,0.0,0.0,0.0,0.0,0.0,0.0,0.0,0.0,0.0,0.0,0.0,0.0,0.0,0.0,0.0,0.0,0.0,0.0,0.0,0.0,0.0,0.0,0.0,0.0,0.0,0.0,0.0,0.0,0.0,0.0,0.0,0.0,0.0,0.0,0.0,0.0,0.0,0.0,0.0,0.0,0.0,0.0,0.0,0.0,0.0,0.0,0.0,0.0,0.0,0.0,0.0,0.0,0.0,0.0,0.0,0.0,0.0,0.0,0.0,0.0,0.0,0.0,0.0,0.0,0.0,0.0,0.0,0.0,0.0,0.0,0.0,0.0,0.0,0.0,0.0,0.0,0.0,0.0,0.0,0.0,0.0,0.0,0.0,0.0,0.0,0.0,0.0,0.0,0.0,0.0,0.0,0.0,0.0,0.0,0.0,0.0,0.0,0.0,0.0,0.0,0.0,0.0,0.0,0.0,0.0,0.0,0.0,0.0,0.0,0.0,0.0,0.0,0.0,0.0,0.0,0.0,0.0,0.0,0.0,0.0,0.0,0.0,0.0,0.0,0.0,0.0,0.0,0.0,0.0,0.0,0.0,0.0,0.0,0.0,0.0,0.0,0.0,0.0,0.0,0.0,0.0,0.0,0.0,0.0,0.0,0.0,0.0,0.0,0.0,0.0,0.0,0.0,0.0,0.0,0.0,0.0,0.0,0.0,0.0,0.0,0.0,0.0,0.0,0.0,0.0,0.0,0.0,0.0,0.0,0.0,0.0,0.0,0.0,0.0,0.0,0.0,0.0,0.0,0.0,0.0,0.0,0.0,0.0,0.0,0.0,0.0,0.0,0.0,0.0,0.0,0.0,0.0,0.0,0.0,0.0,0.0,0.0,0.0,0.0,0.0,0.0,0.0,0.0,0.0,0.0,0.0,0.0,0.0,0.0,0.0,0.0,0.0,0.0,0.0,0.0,0.0,0.0,0.0,0.0,0.0,0.0,0.0,0.0,0.0,0.0,0.0,0.0,0.0,0.0,0.0,0.0,0.0,0.0,0.0,0.0,0.0,0.0,0.0,0.0,0.0,0.0,0.0,0.0,0.0,0.0,0.0,0.0,0.0,0.0,0.0,0.0,0.0,0.0,0.0,0.0,0.0,0.0,0.0,0.0,0.0,0.0,0.0,0.0,0.0,0.0,0.0,0.0,0.0,0.0,0.0,0.0,0.0,0.0,0.0,0.0,0.0,0.0,0.0,0.0,0.0,0.0,0.0,0.0,0.0,0.0,0.0,0.0,0.0,0.0,0.0,0.0,0.0,0.0,0.0,0.0,0.0,0.0,0.0,0.0,0.0,0.0,0.0,0.0,0.0,0.0,0.0,0.0,0.0,0.0,0.0,0.0,0.0,0.0,0.0,0.0,0.0,0.0,0.0,0.0,0.0,0.0,0.0,0.0,0.0,0.0,0.0,0.0,0.0,0.0,0.0,0.0,0.0,0.0,0.0,0.0,0.0,0.0,0.0,0.0,0.0,0.0,0.0,0.0,0.0,0.0,0.0,0.0,0.0,0.0,0.0,0.0,0.0,0.0,0.0,0.0,0.0,0.0,0.0,0.0,0.0,0.0,0.0,0.0,0.0,0.0,0.0,0.0,0.0,0.0,0.0,0.0,0.0,0.0,0.0,0.0,0.0,0.0,0.0,0.0,0.0,0.0,0.0,0.0,0.0,0.0,0.0,0.0,0.0,0.0,0.0,0.0,0.0,0.0,0.0,0.0,0.0,0.0,0.0,0.0,0.0,0.0,0.0,0.0,0.0,0.0,0.0,0.0,0.0,0.0,0.0,0.0,0.0,0.0,0.0,0.0,0.0,0.0,0.0,0.0,0.0,0.0,0.0,0.0,0.0,0.0,0.0,0.0,0.0,0.0,0.0,0.0,0.0,0.0,0.0,0.0,0.0,0.0,0.0,0.0,0.0,0.0,0.0,0.0,0.0,0.0,0.0,0.0,0.0,0.0,0.0,0.0,0.0,0.0,0.0,0.0,0.0,0.0,0.0,0.0,0.0,0.0,0.0,0.0,0.0,0.0,0.0,0.0,0.0,0.0,0.0,0.0,0.0,0.0,0.0,0.0,0.0,0.0,0.0,0.0,0.0,0.0,0.0,0.0,0.0,0.0,0.0,0.0,0.0,0.0,0.0,0.0,0.0,0.0,0.0,0.0,0.0,0.0,0.0,0.0,0.0,0.0,0.0,0.0,0.0,0.0,0.0,0.0,0.0,0.0,0.0,0.0,0.0,0.0,0.0,0.0,0.0,0.0,0.0,0.0,0.0,0.0,0.0,0.0,0.0,0.0,0.0,0.0,0.0,0.0,0.0,0.0,0.0,0.0,0.0,0.0,0.0,0.0,0.0,0.0,0.0,0.0,0.0,0.0,0.0,0.0,0.0,0.0,0.0,0.0,0.0,0.0,0.0,0.0,0.0,0.0,0.0,0.0,0.0,0.0,0.0,0.0,0.0,0.0,0.0,0.0,0.0,0.0,0.0,0.0,0.0,0.0,0.0,0.0,0.0,0.0,0.0,0.0,0.0,0.0,0.0,0.0,0.0,0.0,0.0,0.0,0.0,0.0,0.0,0.0,0.0,0.0,0.0,0.0,0.0,0.0,0.0,0.0,0.0,0.0,0.0,0.0,0.0,0.0,0.0,0.0,0.0,0.0,0.0,0.0,0.0,0.0,0.0,0.0,0.0,0.0,0.0,0.0,0.0,0.0,0.0,0.0,0.0,0.0,0.0,0.0,0.0,0.0,0.0,0.0,0.0,0.0,0.0,0.0,0.0,0.0,0.0,0.0,0.0,0.0,0.0,0.0,0.0,0.0,0.0,0.0,0.0,0.0,0.0,0.0,0.0,0.0,0.0,0.0,0.0,0.0,0.0,0.0,0.0,0.0,0.0,0.0,0.0,0.0,0.0,0.0,0.0,0.0,0.0,0.0,0.0,0.0,0.0,0.0,0.0,0.0,0.0,0.0,0.0,0.0,0.0,0.0,0.0,0.0,0.0,0.0,0.0,0.0,0.0,0.0,0.0,0.0,0.0,0.0,0.0,0.0,0.0,0.0,0.0,0.0,0.0,0.0,0.0,0.0,0.0,0.0,0.0,0.0,0.0,0.0,0.0,0.0,0.0,0.0,0.0,0.0,0.0,0.0,0.0,0.0,0.0,0.0,0.0,0.0,0.0,0.0,0.0,0.0,0.0,0.0,0.0,0.0,0.0,0.0,0.0,0.0,0.0,0.0,0.0,0.0,0.0,0.0,0.0,0.0,0.0,0.0,0.0,0.0,0.0,0.0,0.0,0.0,0.0,0.0,0.0,0.0,0.0,0.0,0.0,0.0,0.0,0.0,0.0,0.0,0.0,0.0,0.0,0.0,0.0,0.0,0.0,0.0,0.0,0.0,0.0,0.0,0.0,0.0,0.0,0.0,0.0,0.0,0.0,0.0,0.0,0.0,0.0,0.0,0.0,0.0,0.0,0.0,0.0,0.0,0.0,0.0,0.0,0.0,0.0,0.0,0.0,0.0,0.0,0.0,0.0,0.0,0.0,0.0,0.0,0.0,0.0,0.0,0.0,0.0,0.0,0.0,0.0,0.0,0.0,0.0,0.0,0.0,0.0,0.0,0.0,0.0,0.0,0.0,0.0,0.0,0.0,0.0,0.0,0.0,0.0,0.0,0.0,0.0,0.0,0.0,0.0,0.0,0.0,0.0,-4.2522,-4.308,0.0,0.0,0.0,0.0,0.0,0.0,0.0,0.0,0.0,0.0,0.0,0.0,0.0,0.0,0.0,0.0,0.0,0.0,0.0,0.0,0.0,0.0,0.0,-3.4426,-3.4592,-3.469,-3.4937,-3.5196,-3.5507,-3.5548,-3.5588,-3.5736,-3.5521,-3.5426,-3.5548,-3.5548,-3.5588,-3.5669,-3.579,-3.5803,-3.571,-3.6415,-3.6872,-3.713,0.0,0.0,0.0,0.0,0.0,0.0,0.0,0.0,0.0,0.0,0.0,0.0,0.0,0.0,0.0,0.0,0.0,0.0,0.0,0.0,0.0,0.0,0.0,0.0,0.0,0.0,0.0,0.0,0.0,0.0,0.0,0.0,0.0,0.0,0.0,0.0,0.0,0.0,0.0,0.0,0.0,0.0,0.0,0.0,0.0,0.0,0.0,0.0,0.0,0.0,0.0,0.0,0.0,0.0,0.0,0.0,0.0,0.0,0.0,0.0,0.0,0.0,0.0,0.0,0.0,0.0,0.0,0.0,0.0,0.0,-4.1623,-4.219,0.0,0.0,0.0,0.0,0.0,0.0,0.0,0.0,0.0,0.0,0.0,0.0,0.0,0.0,0.0,0.0,0.0,0.0,0.0,0.0,0.0,-3.2861,-3.3381,-3.3716,-3.392,-3.392,-3.4105,-3.4314,-3.4509,-3.4509,-3.4551,-3.4592,-3.4509,-3.4509,-3.4509,-3.4509,-3.4592,-3.4786,-3.4786,-3.4881,-3.51,-3.4949,-3.5209,-3.5856,-3.6373,0.0,0.0,0.0,0.0,0.0,0.0,0.0,0.0,0.0,0.0,0.0,0.0,0.0,0.0,0.0,0.0,0.0,0.0,0.0,0.0,0.0,0.0,0.0,0.0,0.0,0.0,0.0,0.0,0.0,0.0,0.0,0.0,0.0,0.0,0.0,0.0,0.0,0.0,0.0,0.0,0.0,0.0,0.0,0.0,0.0,0.0,0.0,0.0,0.0,0.0,0.0,0.0,0.0,0.0,0.0,0.0,0.0,0.0,0.0,0.0,0.0,0.0,0.0,-4.0228,-4.0288,-4.0238,-4.0238,-4.033,-4.0497,-4.0966,-4.135,-4.164,-4.1965,0.0,0.0,0.0,0.0,0.0,0.0,0.0,0.0,0.0,0.0,0.0,0.0,0.0,0.0,0.0,0.0,0.0,0.0,0.0,-3.2013,-3.2349,-3.2895,-3.324,-3.324,-3.3411,-3.3598,-3.3839,-3.3839,-3.3937,-3.416,-3.3781,-3.3641,-3.3839,-3.3641,-3.3683,-3.3882,-3.3882,-3.3882,-3.3924,-3.3882,-3.3924,-3.4079,-3.4964,-3.5426,-3.5669,0.0,0.0,0.0,0.0,0.0,0.0,0.0,0.0,0.0,0.0,0.0,0.0,0.0,0.0,0.0,0.0,0.0,0.0,0.0,0.0,0.0,0.0,0.0,0.0,0.0,0.0,0.0,0.0,0.0,0.0,0.0,0.0,0.0,0.0,0.0,0.0,0.0,0.0,0.0,0.0,0.0,-3.9496,-3.9517,0.0,0.0,0.0,0.0,0.0,0.0,0.0,0.0,0.0,0.0,0.0,0.0,0.0,-4.0011,-4.0011,-4.0572,-4.0788,-4.0628,-4.1195,-4.137,-4.1205,-4.1205,-4.1318,-4.1489,-4.0979,0.0,-4.0953,-4.1156,0.0,0.0,0.0,0.0,0.0,0.0,0.0,0.0,0.0,0.0,0.0,0.0,0.0,0.0,0.0,0.0,0.0,0.0,0.0,0.0,0.0,-3.2252,-3.2591,-3.2591,-3.2965,-3.3283,-3.3356,-3.3215,-3.3185,-3.3313,-3.3025,-3.2896,-3.2982,-3.2896,-3.2896,-3.297,-3.3086,-3.3129,-3.3129,-3.3313,-3.3356,-3.3398,-3.3907,-3.4481,-3.5018,-3.5168,0.0,0.0,0.0,0.0,0.0,0.0,0.0,0.0,0.0,0.0,0.0,0.0,0.0,0.0,0.0,0.0,0.0,0.0,0.0,0.0,0.0,0.0,0.0,0.0,0.0,0.0,0.0,0.0,0.0,0.0,0.0,0.0,0.0,0.0,0.0,0.0,0.0,0.0,0.0,-3.946,-3.9388,-3.9388,-3.9496,-3.9517,0.0,0.0,0.0,0.0,0.0,0.0,0.0,0.0,0.0,-4.0233,-4.0594,-4.079,-4.079,-4.1076,-4.1174,-4.11,-4.14,-4.1498,-4.1422,-4.1422,-4.146,-4.1535,-4.122,-4.0894,-4.0568,-4.0593,-4.0665,-4.0836,0.0,0.0,0.0,0.0,-4.114,-4.1073,0.0,0.0,0.0,0.0,0.0,0.0,0.0,0.0,0.0,0.0,0.0,0.0,-3.1066,-3.1592,-3.1981,-3.2118,-3.2489,-3.2802,-3.2982,-3.2766,-3.2636,-3.2636,-3.2475,-3.24,-3.24,-3.24,-3.24,-3.24,-3.255,-3.2636,-3.2636,-3.281,-3.2909,-3.2952,-3.3197,-3.3725,-3.4384,-3.4426,-3.4551,-3.4729,0.0,0.0,0.0,0.0,0.0,0.0,0.0,0.0,0.0,0.0,0.0,0.0,0.0,0.0,0.0,0.0,0.0,0.0,0.0,0.0,0.0,0.0,0.0,0.0,0.0,0.0,0.0,0.0,0.0,0.0,0.0,0.0,0.0,0.0,0.0,0.0,0.0,-3.9388,-3.9388,-3.9388,-3.9388,-3.9388,0.0,0.0,0.0,0.0,0.0,0.0,-3.9903,-4.0382,-4.0651,-4.0651,-4.1332,-4.1587,-4.1422,-4.1713,-4.1803,-4.1677,-4.1803,-4.1878,-4.1878,-4.1878,-4.1878,-4.1878,-4.1698,-4.1354,-4.0868,-4.0485,-4.0243,-4.0076,-4.0281,-4.0366,-4.0366,-4.0366,-4.0316,-4.0281,0.0,0.0,0.0,0.0,0.0,0.0,0.0,0.0,0.0,0.0,0.0,-3.0541,-3.0353,-3.0838,-3.1373,-3.1854,-3.1771,-3.1963,-3.2686,-3.2519,-3.2431,-3.2431,-3.2388,-3.24,-3.24,-3.24,-3.24,-3.24,-3.2388,-3.2431,-3.2431,-3.2431,-3.2444,-3.2487,-3.2909,-3.324,-3.3484,-3.3683,-3.3755,-3.3755,-3.3755,0.0,0.0,0.0,0.0,0.0,0.0,0.0,0.0,0.0,0.0,0.0,0.0,0.0,0.0,0.0,0.0,0.0,0.0,0.0,0.0,0.0,0.0,0.0,0.0,0.0,0.0,0.0,0.0,0.0,0.0,0.0,0.0,0.0,0.0,0.0,0.0,0.0,0.0,-3.9388,-3.9388,0.0,0.0,0.0,0.0,-4.0307,-4.0352,-4.0621,-4.1287,-4.1309,-4.1324,-4.1324,-4.2006,-4.2051,-4.1422,-4.2611,-4.2925,-4.2366,-4.294,-4.3185,-4.3185,-4.3185,-4.3185,-4.3155,-4.2581,-4.2336,-4.2201,-4.1121,-4.029,-3.9753,-3.996,-4.0031,-4.0031,-4.0031,-3.991,-3.9753,0.0,0.0,0.0,-3.1347,-3.1123,-3.0785,-3.0267,-3.0075,-2.9934,-2.983,-2.9967,-3.0041,-3.0002,-3.0358,-3.0677,-3.0835,-3.1309,-3.1705,-3.1976,-3.2104,-3.2125,-3.2125,-3.2038,-3.1937,-3.1937,-3.1937,-3.1937,-3.1937,-3.1937,-3.1937,-3.1937,-3.2069,-3.2125,-3.2169,-3.2519,-3.2692,-3.2766,-3.3313,-3.3513,-3.3513,-3.3356,-3.3441,0.0,0.0,0.0,0.0,0.0,0.0,0.0,0.0,0.0,0.0,0.0,0.0,0.0,0.0,0.0,0.0,0.0,0.0,0.0,0.0,0.0,0.0,0.0,0.0,0.0,0.0,0.0,0.0,0.0,0.0,0.0,0.0,0.0,0.0,0.0,0.0,0.0,-3.9993,-4.0053,0.0,-4.0651,-4.0681,-4.0786,-4.101,-4.1452,-4.1796,-4.2036,-4.2806,-4.3269,-4.3269,-4.3913,-4.4137,-4.3898,-4.4362,-4.4481,-4.4242,-4.4062,-4.3958,-4.3943,-4.3484,-4.329,-4.329,-4.309,-4.2746,-4.2366,-4.1963,-4.1123,-4.0162,-4.0235,-3.998,-3.9604,-3.9604,-3.9568,-3.9517,0.0,-3.2561,0.0,-3.185,-3.1556,-3.1222,-3.0735,-3.0444,-3.0241,-3.0126,-3.0049,-2.9972,-2.9895,-3.0027,-3.0196,-3.0411,-3.077,-3.1183,-3.1552,-3.165,-3.1799,-3.1893,-3.1749,-3.1705,-3.1705,-3.1705,-3.1705,-3.1705,-3.1705,-3.1705,-3.1705,-3.1849,-3.1893,-3.1893,-3.2169,-3.2257,-3.23,-3.2853,-3.3099,-3.3142,-3.3025,-3.3111,-3.3313,0.0,0.0,0.0,0.0,0.0,0.0,0.0,0.0,0.0,0.0,0.0,0.0,0.0,0.0,0.0,0.0,0.0,0.0,0.0,0.0,0.0,0.0,0.0,0.0,0.0,0.0,0.0,0.0,0.0,0.0,0.0,0.0,0.0,0.0,-3.9753,-3.9993,-4.0651,-4.0726,-4.0995,-4.1692,-4.1752,-4.1931,-4.2342,-4.2776,-4.3159,-4.3384,-4.4167,-4.4646,-4.4646,-4.5289,-4.5529,-4.5289,-4.5529,-4.5529,-4.5289,-4.4855,-4.4526,-4.4302,-4.3828,-4.3499,-4.329,-4.329,-4.309,-4.2686,-4.2686,-4.2043,-4.101,-4.0576,-4.0127,-3.9723,-3.9463,-3.9388,-3.9388,0.0,-3.2881,-3.2596,-3.22,-3.1873,-3.1542,-3.127,-3.0973,-3.0736,-3.0736,-3.0533,-3.033,-3.0152,-2.9934,-3.0031,-3.0534,-3.0198,-3.0384,-3.1411,-3.1296,-3.1336,-3.1681,-3.1705,-3.1705,-3.1705,-3.1705,-3.1705,-3.1705,-3.1705,-3.1705,-3.1705,-3.1705,-3.1705,-3.1705,-3.1893,-3.1994,-3.1994,-3.2257,-3.2463,-3.268,-3.2667,-3.2853,-3.3081,0.0,0.0,0.0,0.0,0.0,0.0,0.0,0.0,0.0,0.0,0.0,0.0,0.0,0.0,0.0,0.0,0.0,0.0,0.0,0.0,0.0,0.0,0.0,0.0,0.0,0.0,0.0,0.0,0.0,0.0,0.0,0.0,0.0,-4.0323,-4.039,-4.0681,-4.1369,-4.1444,-4.1713,-4.2387,-4.2447,-4.297,-4.4216,-4.4321,-4.4605,-4.5248,-4.5349,-4.5364,-4.5364,-4.5965,-4.5995,-4.5364,-4.598,-4.5965,-4.5364,-4.5334,-4.499,-4.4377,-4.4332,-4.3932,-4.3319,-4.3305,-4.329,-4.329,-4.329,-4.297,-4.2306,-4.0965,-4.0442,-4.0322,-3.9694,-3.9439,-3.9388,-3.3874,-3.3681,-3.3486,-3.3241,-3.286,-3.2475,-3.2114,-3.1666,-3.1259,-3.1097,-3.0923,-3.0798,-3.0761,-3.0545,-3.0419,-3.0573,-3.0424,-3.0645,-3.1369,-3.1259,-3.1336,-3.1681,-3.1705,-3.1705,-3.1705,-3.1705,-3.1705,-3.1705,-3.1705,-3.1705,-3.1705,-3.1705,-3.1705,-3.1705,-3.1761,-3.1761,-3.1805,-3.1849,-3.2025,-3.2201,-3.2388,-3.2593,-3.281,0.0,0.0,0.0,0.0,0.0,0.0,0.0,0.0,0.0,0.0,0.0,0.0,0.0,0.0,0.0,0.0,0.0,0.0,0.0,0.0,0.0,0.0,0.0,0.0,0.0,0.0,0.0,0.0,0.0,0.0,0.0,-3.9566,-3.9998,-3.9986,-4.0349,-4.1035,-4.2228,-4.2347,-4.279,-4.3885,-4.3989,-4.4137,-4.4492,-4.498,-4.5335,-4.5513,-4.5972,-4.6223,-4.6223,-4.6401,-4.6416,-4.6223,-4.6575,-4.6661,-4.6468,-4.6177,-4.5948,-4.5738,-4.4766,-4.4212,-4.4018,-4.3499,-4.329,-4.329,-4.329,-4.3185,-4.2985,-4.2147,-4.1272,-4.0382,-4.0187,-3.9828,-3.9388,-3.4312,-3.4108,-3.3917,-3.3744,-3.3452,-3.3143,-3.2838,-3.2359,-3.1982,-3.175,-3.1542,-3.1445,-3.1445,-3.127,-3.1095,-3.1108,-3.0918,-3.0969,-3.1385,-3.1444,-3.1516,-3.1617,-3.1772,-3.1849,-3.1849,-3.1749,-3.1705,-3.1705,-3.1946,-3.1934,-3.1717,-3.1946,-3.1934,-3.1705,-3.1705,-3.1705,-3.1705,-3.1705,-3.1761,-3.1893,-3.2025,-3.2288,-3.255,-3.255,-3.2723,-3.2939,-3.2939,-3.2982,-3.3124,-3.3124,0.0,0.0,0.0,0.0,0.0,0.0,0.0,0.0,0.0,0.0,0.0,0.0,0.0,0.0,0.0,0.0,0.0,0.0,0.0,0.0,0.0,0.0,0.0,0.0,-3.9963,-4.0559,-4.0448,-4.0963,-4.184,-4.3187,-4.3446,-4.3885,-4.4943,-4.5004,-4.515,-4.543,-4.5813,-4.6034,-4.6034,-4.6388,-4.6594,-4.6594,-4.6594,-4.6594,-4.6594,-4.6727,-4.6756,-4.6756,-4.656,-4.6291,-4.5994,-4.5305,-4.4691,-4.418,-4.3832,-4.3544,-4.329,-4.329,-4.329,-4.323,0.0,0.0,0.0,0.0,-3.9993,-3.9388,-3.4515,-3.4298,-3.4108,-3.3985,-3.3779,-3.3605,-3.3396,-3.3051,-3.2704,-3.2489,-3.2309,-3.2164,-3.2164,-3.1992,-3.1919,-3.1909,-3.1492,-3.132,-3.1384,-3.1726,-3.1824,-3.1637,-3.1907,-3.2069,-3.2069,-3.1893,-3.1785,-3.1846,-3.2295,-3.2319,-3.1898,-3.2298,-3.2238,-3.1801,-3.1741,-3.1705,-3.1705,-3.1705,-3.1705,-3.1705,-3.1705,-3.1981,-3.2344,-3.2344,-3.2475,-3.268,-3.2667,-3.2853,-3.3081,-3.3081,0.0,0.0,0.0,0.0,0.0,0.0,0.0,0.0,0.0,0.0,0.0,0.0,0.0,0.0,0.0,0.0,0.0,0.0,0.0,0.0,0.0,0.0,0.0,0.0,-4.0251,-4.1242,-4.1383,-4.199,-4.2871,-4.4049,-4.4424,-4.4817,-4.5492,-4.5551,-4.58,-4.6373,-4.6462,-4.6462,-4.6462,-4.6506,0.0,0.0,0.0,-4.6506,-4.6506,-4.655,-4.655,-4.655,-4.6594,-4.63,-4.5739,-4.5896,-4.527,-4.4068,-4.4199,-4.3902,-4.325,-4.329,-4.329,-4.323,-4.2626,-4.2396,-4.2246,-4.0891,-4.0023,-3.9514,-3.4835,-3.4683,-3.4515,-3.4346,-3.4142,-3.3971,-3.3827,-3.3431,-3.3122,-3.2917,-3.2704,-3.2596,-3.2596,-3.2547,-3.2511,-3.2525,-3.2019,-3.1596,-3.141,-3.2171,-3.2507,-3.2323,-3.2468,-3.255,-3.255,-3.2388,-3.2377,-3.2592,-3.2689,-3.2829,-3.2971,-3.2647,-3.2442,-3.2322,-3.191,-3.1705,-3.1705,-3.1705,-3.1705,-3.1705,-3.1705,-3.1849,-3.2081,-3.2081,-3.2257,-3.2475,-3.2636,-3.2711,-3.281,-3.3025,-3.3124,-3.3124,-3.3124,-3.3124,0.0,0.0,0.0,0.0,0.0,0.0,0.0,0.0,0.0,0.0,0.0,0.0,0.0,0.0,0.0,0.0,0.0,0.0,0.0,-3.8742,-3.9878,-4.1014,-4.198,-4.2786,-4.3515,-4.4115,-4.4277,-4.4522,-4.5154,-4.5226,-4.5269,-4.5384,-4.5595,-4.573,-4.573,-4.5925,-4.603,-4.603,-4.603,-4.603,-4.603,-4.618,-4.6269,-4.6269,-4.6506,0.0,-4.6388,-4.5916,-4.5237,-4.4455,-4.4187,-4.366,-4.3076,-4.325,-4.329,-4.323,-4.2626,-4.2396,-4.2246,-4.0891,-4.0322,-4.0127,-3.5082,-3.485,-3.4664,-3.4563,-3.438,-3.421,-3.404,-3.3779,-3.3536,-3.3333,-3.3122,-3.3016,-3.3016,-3.3016,-3.3016,-3.3016,-3.2525,-3.2104,-3.1768,-3.2568,-3.2943,-3.2754,-3.3152,-3.3398,-3.3398,-3.3068,-3.2891,-3.2901,-3.3355,-3.3231,-3.2672,-3.2938,-3.2735,-3.207,-3.1837,-3.1705,-3.1705,-3.1705,-3.1705,-3.1705,-3.1705,-3.1761,-3.1849,-3.1849,-3.1994,-3.2213,-3.2288,-3.2419,-3.2605,-3.281,-3.2896,-3.2939,-3.3081,-3.3124,-3.3124,0.0,0.0,0.0,0.0,0.0,0.0,0.0,0.0,0.0,0.0,0.0,0.0,0.0,0.0,-3.5583,-3.6235,0.0,-3.8338,-3.8812,-4.0091,-4.1212,-4.1795,-4.2649,-4.3468,-4.421,-4.453,-4.4781,-4.5095,-4.5124,-4.5124,-4.5124,-4.5216,-4.5307,-4.5307,-4.5413,-4.5504,-4.5504,-4.5504,-4.5504,-4.5504,-4.558,-4.5716,-4.5851,-4.6001,-4.6105,-4.6225,-4.6035,-4.5522,-4.4905,-4.447,-4.3945,-4.3323,-4.3119,-4.301,-4.2981,-4.2773,-4.2563,-4.2321,-4.1662,-4.0965,-4.0352,-3.5344,-3.5063,-3.4831,-3.4731,-3.4563,-3.438,-3.4128,-3.4005,-3.3848,-3.364,-3.3466,-3.3361,-3.329,-3.329,-3.3276,-3.3241,-3.2931,-3.2596,-3.2237,-3.2882,-3.3297,-3.3223,-3.3842,-3.421,-3.4369,-3.3894,-3.3564,-3.3409,-3.4053,-3.3702,-3.2531,-3.3256,-3.301,-3.1995,-3.1886,-3.1849,-3.1849,-3.1849,-3.1805,-3.1761,-3.1761,-3.1705,-3.1705,-3.1705,-3.1805,-3.195,-3.1994,-3.2125,-3.2344,-3.255,-3.268,-3.2766,-3.2939,-3.3081,-3.3124,-3.3124,-3.3124,0.0,0.0,0.0,0.0,0.0,0.0,0.0,0.0,-3.3658,-3.4085,-3.4198,-3.5183,-3.6087,-3.6432,-3.7663,-3.8717,-3.9024,-4.0275,-4.1248,-4.1368,-4.2113,-4.297,-4.3784,-4.4336,-4.4709,-4.4755,-4.4801,-4.4847,-4.4894,-4.4986,-4.5032,-4.4986,-4.4986,-4.5032,-4.4986,-4.494,-4.494,-4.494,-4.494,-4.5092,-4.5367,-4.5367,-4.5504,-4.5745,-4.5896,-4.5637,-4.504,-4.4554,-4.4005,-4.3428,-4.2924,-4.2688,-4.2648,-4.2875,-4.2763,-4.2458,-4.2402,-4.1737,-4.0771,-3.572,-3.5507,-3.5276,-3.4765,-3.4664,-3.4549,-3.4162,-3.4094,-3.3971,-3.364,-3.357,-3.3501,-3.3326,-3.329,-3.3241,-3.3072,-3.2988,-3.2881,-3.2668,-3.306,-3.354,-3.4034,-3.4309,-3.4701,-3.5263,-3.4799,-3.4675,-3.4942,-3.4627,-3.4401,-3.432,-3.3734,-3.3345,-3.2999,-3.2509,-3.23,-3.23,-3.23,-3.2169,-3.1994,-3.1994,-3.1849,-3.1705,-3.1705,-3.1705,-3.1761,-3.1937,-3.2038,-3.2081,-3.2344,-3.255,-3.2723,-3.2766,-3.2896,-3.3124,-3.3124,-3.3124,-3.3124,-3.3124,-3.3124,-3.3124,-3.3124,-3.3445,-3.3809,0.0,-3.4236,-3.4731,-3.5207,-3.5889,-3.6515,-3.7006,-3.7853,-3.8645,-3.9167,-3.9767,-4.0359,-4.0915,-4.1445,-4.1895,-4.1993,-4.2679,-4.3211,-4.3499,-4.3662,-4.3851,-4.4115,-4.4551,-4.4737,-4.4504,-4.469,-4.4737,-4.4504,-4.4504,-4.4504,-4.4504,-4.4504,-4.4597,-4.489,-4.489,-4.5014,-4.517,-4.5216,-4.5008,-4.4629,-4.3802,-4.3094,-4.2535,-4.2651,-4.2581,-4.2474,-4.2662,-4.2725,-4.2632,-4.2464,-4.2306,-4.2096,-3.6211,-3.5941,-3.5651,-3.5228,-3.4949,-3.475,-3.4481,-3.4346,-3.4176,-3.3922,-3.3813,-3.3744,-3.364,-3.3536,-3.3382,-3.3192,-3.3157,-3.3122,-3.3051,-3.342,-3.3919,-3.4527,-3.4851,-3.5311,-3.5965,-3.5642,-3.5466,-3.5501,-3.5513,-3.5152,-3.4461,-3.4477,-3.4132,-3.3469,-3.3242,-3.3185,-3.3185,-3.3185,-3.3013,-3.2797,-3.2797,-3.2581,-3.2276,-3.2276,-3.2101,-3.1849,-3.1849,-3.1849,0.0,-3.2081,-3.2213,-3.2332,-3.2624,-3.2766,-3.2896,-3.3068,-3.3124,-3.3124,-3.3124,-3.3124,-3.3156,-3.347,-3.3721,-3.3985,-3.4299,-3.4756,-3.5219,-3.5445,-3.6232,-3.691,-3.7149,-3.8013,-3.8743,-3.9045,-3.9638,-4.0171,-4.0402,-4.0744,-4.0997,-4.0997,-4.1298,-4.1845,-4.2763,-4.3039,-4.328,-4.356,-4.3798,-4.3784,-4.3485,-4.3471,-4.3423,-4.3293,-4.3293,-4.3389,-4.3512,-4.3512,-4.3642,-4.3851,-4.3851,-4.4087,-4.4462,-4.4462,-4.4157,-4.3595,-4.2984,-4.2278,-4.1604,-4.1673,-4.1673,-4.1604,-4.1827,-4.209,-4.2333,-4.2499,-4.2332,-4.1961,-3.6754,-3.6461,-3.6148,-3.5844,-3.5524,-3.5231,-3.4898,-3.4716,-3.4534,-3.4366,-3.421,-3.4068,-3.3931,-3.3793,-3.3605,-3.3466,-3.3466,-3.3466,-3.3466,-3.3697,-3.4086,-3.4687,-3.4946,-3.5481,-3.6311,-3.6075,-3.596,-3.5965,-3.6076,-3.5679,-3.4784,-3.511,-3.4832,-3.405,-3.4121,-3.415,-3.415,-3.415,-3.4037,-3.3827,-3.3546,-3.3289,-3.3031,-3.2764,-3.25,-3.2245,-3.1893,-3.1761,-3.1705,-3.1849,-3.1937,-3.2081,-3.2506,-3.268,-3.2754,-3.3025,-3.3124,-3.3106,-3.3269,-3.3307,-3.3432,-3.3985,-3.4236,-3.4462,-3.4818,-3.5332,-3.5768,-3.5768,-3.6646,-3.7412,-3.7412,-3.8329,-3.9094,-3.9094,-3.9625,-3.9981,-3.9981,-4.0147,-4.03,-4.03,-4.03,-4.0694,-4.1769,-4.215,-4.2555,-4.2922,-4.3067,-4.2957,-4.2604,-4.2457,-4.2311,-4.2164,-4.2164,-4.2262,-4.2484,-4.2484,-4.2568,-4.2798,-4.2798,-4.3026,-4.3444,-4.3468,-4.3111,-4.2441,-4.2073,-4.1438,-4.0603,-4.0702,-4.0702,-4.0645,-4.0972,-4.1325,-4.1702,-4.2102,-4.2111,-4.1876,0.0,-3.7012,-3.6799,-3.6523,-3.646,-3.6178,-3.5311,-3.518,-3.5115,-3.4902,-3.475,-3.4462,-3.3965,-3.3896,-3.3896,-3.3896,-3.3896,-3.3896,-3.3896,-3.3689,-3.3868,-3.449,-3.4317,-3.482,-3.6065,-3.5892,-3.6083,-3.6682,-3.6218,-3.5898,-3.5669,-3.5494,-3.5236,-3.495,-3.5156,-3.5264,-3.5264,-3.5264,-3.5142,-3.4857,-3.3907,-3.3697,-3.3859,-3.2873,-3.2718,-3.2859,-3.2245,-3.1849,-3.1705,-3.1717,-3.1849,-3.2038,-3.23,-3.2562,-3.2754,-3.3025,-3.3124,-3.3194,-3.3721,-3.3872,-3.401,-3.4562,-3.5056,-3.5458,-3.547,-3.5943,-3.638,-3.638,-3.7211,-3.799,-3.799,-3.8906,-3.9672,-3.9672,-3.9685,-3.9697,-3.9697,-3.9749,-3.9749,-3.9749,-3.9749,-3.9839,-4.0121,-4.087,-4.1571,-4.2079,-4.2373,-4.2422,-4.2128,-4.2128,-4.1868,-4.1358,-4.1322,-4.1358,-4.1372,-4.1372,-4.1471,-4.1746,-4.1746,-4.1868,-4.2061,-4.2044,-4.184,-4.1443,-4.1083,-4.0462,-3.9648,-3.9938,-3.9895,-3.9692,-4.0172,-4.0488,-4.0773,-4.0958,-4.159,-4.2363,0.0,0.0,-3.7312,-3.7118,-3.6906,-3.6738,-3.6677,-3.6196,-3.5799,-3.5576,-3.5317,0.0,0.0,0.0,0.0,0.0,-3.4317,-3.4351,-3.4244,-3.4191,-3.4347,-3.4803,-3.4761,-3.5074,-3.5818,-3.5773,-3.6047,-3.6708,-3.6541,-3.6585,-3.6744,-3.6705,-3.6547,-3.6336,-3.6401,-3.618,-3.5753,-3.5753,-3.5402,-3.4758,-3.4451,-3.4104,-3.3847,-3.3489,-3.3024,-3.2513,0.0,-3.2271,-3.195,-3.2113,-3.2081,-3.2081,-3.2463,-3.2636,-3.2754,-3.3025,-3.3332,-3.3658,-3.3847,-3.4161,-3.4575,-3.5094,-3.5357,-3.5596,-3.6006,-3.6267,-3.6405,-3.6405,-3.7236,-3.8002,-3.8002,-3.8931,-3.9697,-3.9697,-3.9697,-3.9697,-3.9697,-3.9697,-3.9697,-3.9697,-3.9697,-3.9736,-3.9839,-4.0389,-4.0933,-4.1285,-4.1385,-4.1335,-4.1047,-4.0883,-4.0681,-4.0516,-4.0516,-4.058,-4.0795,-4.0795,-4.0795,-4.0909,-4.1097,-4.1026,-4.0733,-4.0627,-4.0328,-3.9833,-3.9478,-3.9069,-3.8684,-3.8787,-3.8742,-3.8684,-3.9056,-3.9499,-4.0012,-4.0243,-4.0631,-4.1085,0.0,0.0,0.0,-3.7889,-3.7608,0.0,0.0,0.0,0.0,0.0,0.0,0.0,0.0,0.0,0.0,0.0,0.0,-3.4957,-3.4854,-3.4754,-3.481,-3.5068,-3.4946,-3.5111,-3.5633,-3.5576,-3.587,-3.6427,-3.6487,-3.6576,-3.6713,-3.6803,-3.6727,-3.6523,-3.6585,-3.6396,-3.599,-3.599,-3.5676,-3.5119,-3.4761,-3.452,-3.4297,-3.3902,-3.3409,0.0,-3.3123,-3.2819,-3.2394,-3.2413,-3.2313,-3.2213,-3.2581,-3.2766,-3.2934,-3.3264,-3.3621,-3.3985,-3.4374,-3.4705,-3.5107,-3.5705,-3.583,-3.5931,-3.6329,-3.6405,-3.6405,-3.6405,-3.7086,-3.7776,-3.7965,-3.8768,-3.9471,-3.9659,-3.9697,-3.9697,-3.9697,-3.9697,-3.9697,-3.9697,-3.9697,-3.9697,-3.9697,-3.9993,-4.0351,-4.058,-4.063,-4.0542,-4.0351,-4.0185,-4.0083,-3.9981,-3.9981,-4.0032,-4.0198,-4.0198,-4.0198,-4.0198,-4.0185,-4.0054,-3.9782,-3.9275,-3.8955,-3.8671,-3.8208,-3.7913,-3.7802,-3.7802,-3.7802,-3.7848,-3.8089,-3.8517,-3.9015,-3.938,-3.9631,-3.9911,0.0,0.0,0.0,0.0,0.0,0.0,0.0,0.0,0.0,0.0,0.0,0.0,0.0,0.0,0.0,0.0,0.0,0.0,-3.5752,-3.5462,-3.5267,-3.5267,-3.4876,-3.4955,-3.56,-3.5438,-3.5549,-3.6036,-3.6157,-3.6064,-3.579,-3.5971,-3.5935,-3.5753,-3.5942,-3.6021,-3.5993,-3.5993,-3.5978,-3.5856,-3.4889,-3.4838,-3.5218,-3.408,-3.3784,-3.4031,-3.3834,-3.3497,-3.3042,-3.261,-3.2487,-3.2475,-3.268,-3.2896,-3.3224,-3.3734,-3.3922,-3.4173,-3.5207,-3.552,-3.5658,-3.6279,-3.6405,-3.6405,-3.6405,-3.6405,-3.6405,-3.6405,-3.6845,-3.7349,-3.7864,-3.8442,-3.9007,-3.9559,-3.9647,-3.9659,-3.9697,-3.9697,-3.9697,-3.9697,-3.9697,-3.9697,-3.9697,-3.9697,-3.9788,-4.0083,-4.007,-4.007,-4.007,-4.007,-3.9981,-3.9697,-3.9697,-3.9697,-3.9697,-3.9697,-3.9685,-3.9647,-3.912,-3.8995,-3.917,-3.8079,-3.7715,-3.7868,-3.7305,-3.7062,-3.7062,-3.7062,-3.7062,-3.7108,-3.7366,-3.7572,-3.7821,-3.8362,-3.8666,-3.8984,0.0,0.0,0.0,0.0,0.0,0.0,0.0,0.0,0.0,0.0,0.0,0.0,0.0,0.0,0.0,0.0,0.0,0.0,-3.66,-3.6399,-3.6258,-3.6086,-3.5896,-3.5812,-3.5817,-3.5784,-3.5983,-3.6454,-3.6401,-3.6483,-3.674,-3.662,-3.6585,-3.6514,-3.657,-3.6342,-3.5937,-3.5937,-3.559,-3.503,-3.4767,-3.4557,-3.438,-3.4084,-3.3677,-3.3315,-3.3516,-3.345,-3.3278,-3.335,-3.327,-3.3142,-3.3227,-3.3154,-3.3224,-3.3734,-3.4186,-3.4618,-3.5307,-3.5843,-3.6194,-3.6367,-3.6405,-3.6405,-3.6405,-3.6405,-3.6405,-3.6405,-3.6845,-3.7224,-3.7362,-3.7852,-3.8417,-3.8994,-3.9082,-3.922,-3.9634,-3.9697,-3.9697,-3.9697,-3.9697,-3.9697,-3.9697,-3.9697,-3.9749,-3.9788,-3.9788,-3.9788,-3.9788,-3.9788,-3.9788,-3.9697,-3.9697,-3.9697,-3.9697,-3.9697,-3.9484,-3.9082,-3.8994,-3.8479,-3.7711,-3.7421,-3.7104,-3.6808,-3.6657,-3.6593,-3.6593,-3.6593,-3.6593,-3.6593,-3.6828,-3.7049,-3.7328,-3.7677,-3.7893,-3.8128,0.0,0.0,0.0,0.0,0.0,0.0,0.0,0.0,0.0,0.0,0.0,0.0,0.0,0.0,0.0,0.0,0.0,0.0,0.0,-3.7088,-3.6922,-3.683,-3.6616,-3.6492,-3.6461,-3.6337,-3.6332,-3.6522,-3.6375,-3.6343,-3.6335,-3.6264,-3.6128,-3.5977,-3.5977,-3.5785,-3.5465,-3.5465,-3.5207,0.0,0.0,-3.4616,-3.4346,-3.4264,-3.3908,-3.3536,-3.3918,-3.4203,-3.4366,-3.4546,-3.4189,-3.3696,-3.3556,-3.3563,-3.3663,-3.4098,-3.465,-3.5157,-3.5755,-3.6119,-3.6405,-3.6405,-3.6405,-3.6405,-3.6405,-3.6405,-3.6405,-3.6405,-3.6656,-3.6945,-3.7149,-3.7437,-3.7826,-3.8391,-3.8705,-3.9032,-3.9295,-3.9534,-3.9697,-3.9697,-3.9697,-3.9697,-3.9697,-3.9697,-3.9697,-3.9697,-3.9697,-3.9697,-3.9697,-3.9697,-3.9697,-3.9697,-3.9697,-3.9697,-3.9697,-3.9697,-3.9421,-3.8919,-3.8617,-3.8027,-3.7174,-3.6935,-3.6707,-3.6405,-3.6405,-3.6405,-3.6405,-3.6405,-3.6405,-3.6405,-3.6546,-3.6675,-3.6828,-3.7062,-3.7235,-3.7315,0.0,0.0,0.0,0.0,0.0,0.0,0.0,0.0,0.0,-3.8669,-3.8221,-3.7857,-3.7535,-3.7639,0.0,0.0,0.0,0.0,0.0,0.0,-3.7314,-3.7417,-3.7133,-3.7072,-3.7254,-3.7107,-3.6863,-3.6631,-3.6582,-3.6297,-3.5799,-3.5827,-3.5678,-3.5352,-3.5385,-3.5385,-3.5352,-3.5318,-3.5285,-3.5233,-3.5219,-3.5133,-3.498,0.0,-3.4558,-3.4462,-3.4843,-3.5341,-3.5815,-3.5803,-3.51,-3.4202,-3.3894,-3.3981,-3.4306,-3.4607,-3.5069,-3.5621,-3.6267,-3.6405,-3.6405,-3.6405,-3.6405,-3.6405,-3.6405,-3.6405,-3.6405,-3.6405,-3.6405,-3.6556,-3.6985,-3.7073,-3.7262,-3.7814,-3.8379,-3.8831,-3.8906,-3.9346,-3.9697,-3.9697,-3.9697,-3.9697,-3.9697,-3.9697,-3.9697,-3.9697,-3.9697,-3.9697,-3.9697,-3.9697,-3.9697,-3.9697,-3.9697,-3.9697,-3.9697,-3.9622,-3.9308,-3.8743,-3.8178,-3.7613,-3.7061,-3.6631,-3.6405,-3.6405,-3.6405,-3.6405,-3.6405,-3.6405,-3.6405,-3.6405,-3.6405,-3.6405,-3.6405,-3.6581,-3.6675,-3.6662,0.0,0.0,0.0,0.0,0.0,0.0,0.0,0.0,0.0,-3.9869,-3.901,-3.8387,0.0,0.0,0.0,0.0,0.0,0.0,0.0,0.0,0.0,-3.7642,-3.7417,-3.7417,-3.7612,-3.8257,-3.8362,-3.7872,-3.8293,-3.8268,-3.7809,-3.7809,-3.7791,-3.7709,-3.7829,-3.7796,-3.7709,-3.7528,-3.7293,-3.7052,-3.6866,-3.668,-3.6507,-3.6298,-3.6087,0.0,-3.6054,-3.6203,-3.6304,-3.6459,-3.5831,-3.4867,-3.4397,-3.4379,-3.4538,-3.4652,-3.5069,-3.5621,-3.6267,-3.6405,-3.6405,-3.6405,-3.6405,-3.6405,-3.6405,-3.6405,-3.6405,-3.6405,-3.6405,-3.6443,-3.6531,-3.6556,-3.6732,-3.7236,-3.7801,-3.8329,-3.8856,-3.9346,-3.9697,-3.9697,-3.9697,-3.9697,-3.9697,-3.9697,-3.9697,-3.9697,-3.9697,-3.9697,-3.9697,-3.9697,-3.9697,-3.9697,-3.9697,-3.9697,-3.9697,-3.9245,-3.873,-3.8153,-3.7588,-3.7036,-3.6556,-3.6455,-3.6405,-3.6405,-3.6405,-3.6405,-3.6405,-3.6405,-3.6405,-3.6405,-3.6405,-3.6405,-3.6405,-3.6452,-3.6452,-3.6389,0.0,0.0,0.0,0.0,0.0,0.0,-4.2237,-4.1802,-4.1324,-4.0823,-4.0132,-3.9271,-3.8158,-3.8017,-3.8103,0.0,0.0,0.0,0.0,0.0,0.0,-3.8076,-3.8257,-3.8507,-3.8888,-3.9253,-3.9291,-3.9029,0.0,-3.885,-3.8556,-3.8556,-3.8573,-3.8558,-3.8753,-3.8721,-3.8558,-3.8361,-3.8062,-3.7756,-3.7537,-3.7297,-3.7055,-3.695,-3.689,0.0,-3.6841,-3.6934,-3.7021,-3.7011,-3.6547,-3.579,-3.5018,-3.476,-3.4786,-3.4876,-3.5206,-3.5621,-3.6267,-3.6405,-3.6405,-3.6405,-3.6405,-3.6405,-3.6405,-3.6144,-3.5931,-3.5931,-3.5931,-3.5931,-3.5931,-3.6169,-3.6493,-3.6757,-3.7211,-3.7776,-3.8341,-3.8906,-3.9371,-3.9659,-3.9697,-3.9697,-3.9697,-3.9697,-3.9697,-3.9697,-3.9697,-3.9697,-3.9697,-3.9697,-3.9697,-3.9697,-3.9697,-3.9697,-3.9697,-3.9145,-3.858,-3.8002,-3.745,-3.6945,-3.6405,-3.6405,-3.6405,-3.6405,-3.6405,-3.6405,-3.6405,-3.6405,-3.6405,-3.6405,-3.6405,-3.6405,-3.6405,-3.6405,-3.6405,-3.6329,0.0,0.0,0.0,0.0,0.0,0.0,-4.2834,-4.2523,-4.2105,-4.164,-4.1049,-4.0046,-3.8405,-3.8278,-3.8408,0.0,0.0,0.0,0.0,0.0,0.0,0.0,-3.8921,-3.9393,-3.9814,0.0,0.0,-3.9771,-3.9579,0.0,0.0,0.0,0.0,0.0,-3.9674,-3.9642,-3.9465,-3.9156,-3.8842,0.0,0.0,-3.7922,-3.7659,0.0,0.0,0.0,0.0,-3.7661,-3.7763,-3.7457,-3.7109,-3.6587,-3.5562,-3.5097,-3.4977,-3.4914,-3.5209,-3.5596,-3.6069,-3.6317,-3.6405,-3.6405,-3.6317,-3.6194,-3.6194,-3.5768,-3.532,-3.532,-3.532,-3.5357,-3.547,-3.5893,-3.6267,-3.6392,-3.687,-3.7374,-3.7927,-3.8504,-3.9082,-3.9634,-3.9697,-3.9697,-3.9697,-3.9697,-3.9697,-3.9697,-3.9697,-3.9697,-3.9697,-3.9697,-3.9697,-3.9697,-3.9697,-3.9634,-3.9521,-3.8969,-3.8391,-3.7826,-3.7274,-3.6832,-3.6405,-3.6405,-3.6405,-3.6405,-3.6405,-3.6405,-3.6405,-3.6405,-3.6405,-3.6405,-3.6405,-3.6405,-3.6405,-3.6405,-3.6329,-3.6107,0.0,0.0,0.0,0.0,0.0,0.0,-4.4384,-4.3553,-4.2762,-4.2274,-4.1229,-4.0238,-3.9423,-3.9516,-3.9623,0.0,0.0,0.0,0.0,0.0,0.0,0.0,0.0,0.0,0.0,0.0,0.0,-3.9716,-4.0504,0.0,0.0,0.0,0.0,0.0,0.0,-4.174,-4.1561,-4.1084,0.0,0.0,0.0,0.0,0.0,0.0,0.0,0.0,0.0,-3.8397,-3.8329,-3.7763,-3.7303,-3.6822,-3.5911,-3.5417,-3.5046,-3.4461,-3.4848,-3.5508,-3.5558,-3.5981,-3.6405,-3.6405,-3.5994,-3.5571,-3.5571,-3.5144,-3.4756,-3.4756,-3.4756,-3.4906,-3.5408,-3.5545,-3.578,-3.6329,-3.687,-3.7374,-3.7927,-3.8504,-3.9082,-3.9634,-3.9697,-3.9697,-3.9697,-3.9697,-3.9697,-3.9697,-3.9697,-3.9697,-3.9697,-3.9697,-3.9697,-3.9697,-3.9697,-3.9459,-3.9007,-3.8379,-3.7814,-3.7249,-3.6744,-3.6455,-3.6405,-3.6405,-3.6405,-3.6405,-3.6405,-3.6405,-3.6405,-3.6405,-3.6405,-3.6405,-3.6405,-3.6405,-3.6405,-3.6405,-3.6044,-3.5495,0.0,0.0,0.0,0.0,0.0,0.0,-4.427,-4.376,-4.321,-4.2837,-4.1999,-4.1246,-4.0637,-4.0571,-4.0306,-3.9629,-3.9581,0.0,0.0,0.0,0.0,0.0,0.0,0.0,0.0,0.0,-4.0414,-4.0195,-4.0423,0.0,0.0,0.0,0.0,0.0,0.0,-4.2222,-4.1866,-4.1406,0.0,0.0,0.0,0.0,0.0,0.0,0.0,0.0,0.0,0.0,-3.8404,-3.7801,-3.7264,-3.6665,-3.579,-3.5067,-3.4519,-3.4438,-3.4477,-3.47,-3.532,-3.5658,-3.5868,-3.5868,-3.5658,-3.5408,-3.5082,-3.4625,-3.4223,-3.4223,-3.4223,-3.4399,-3.4906,-3.527,-3.5683,-3.6317,-3.6593,-3.6998,-3.7889,-3.8203,-3.868,-3.9584,-3.9697,-3.9697,-3.9697,-3.9697,-3.9697,-3.9697,-3.9697,-3.9697,-3.9697,-3.9697,-3.9697,-3.9697,-3.9697,-3.9433,-3.8932,-3.8304,-3.7726,-3.7174,-3.6669,-3.6405,-3.6405,-3.6405,-3.6405,-3.6405,-3.6405,-3.6405,-3.6405,-3.6405,-3.6405,-3.6405,-3.6405,-3.6405,-3.6405,-3.6405,-3.6019,-3.542,0.0,0.0,0.0,0.0,0.0,-4.3687,-4.3789,-4.3552,-4.3281,-4.2929,-4.2397,-4.1834,-4.1305,-4.1086,-4.0712,-3.9956,-3.9894,0.0,0.0,0.0,0.0,0.0,0.0,0.0,0.0,-4.0351,-4.0316,-4.025,-4.0196,-4.0301,0.0,0.0,-4.1522,-4.2061,0.0,0.0,0.0,0.0,0.0,-4.0091,0.0,0.0,0.0,0.0,0.0,0.0,0.0,0.0,0.0,0.0,0.0,-3.6547,-3.5669,-3.4825,-3.4111,-3.4225,-3.4078,-3.4073,-3.4806,-3.5132,-3.5257,-3.5257,-3.5132,-3.4906,-3.4562,-3.406,-3.3658,-3.3658,-3.3658,-3.3822,-3.4374,-3.4881,-3.5433,-3.6031,-3.6304,-3.6732,-3.7626,-3.7902,-3.8366,-3.9333,-3.9597,-3.9697,-3.9697,-3.9697,-3.9697,-3.9697,-3.9697,-3.9697,-3.9697,-3.9697,-3.9697,-3.9697,-3.9534,-3.9182,-3.8617,-3.8052,-3.7487,-3.6935,-3.6593,-3.6405,-3.6405,-3.6405,-3.6405,-3.6405,-3.6405,-3.6405,-3.6405,-3.6405,-3.6405,-3.6405,-3.6405,-3.6405,-3.6405,-3.6405,-3.5906,-3.5207,0.0,0.0,0.0,0.0,0.0,-4.3113,-4.3096,-4.3007,-4.2775,-4.2445,-4.2109,-4.1718,-4.1151,-4.0916,-4.0799,-4.0783,-4.1107,0.0,0.0,0.0,0.0,-4.0509,-4.0366,-4.0207,-4.0011,-4.0011,-3.9925,-3.9717,-3.9925,-4.0086,-4.0216,-4.0817,-4.1388,-4.1898,0.0,0.0,0.0,0.0,-4.0489,-3.9975,0.0,0.0,-3.9388,0.0,0.0,0.0,0.0,0.0,0.0,0.0,0.0,0.0,0.0,-3.4825,-3.3992,-3.3539,-3.3631,-3.3897,-3.3909,-3.4311,-3.4726,-3.4726,-3.4324,-3.3922,-3.3909,-3.3483,-3.3124,-3.3124,-3.3124,-3.3257,-3.3809,-3.4361,-3.4868,-3.542,-3.6006,-3.6606,-3.7111,-3.7663,-3.8228,-3.8856,-3.9371,-3.9697,-3.9697,-3.9697,-3.9697,-3.9697,-3.9697,-3.9697,-3.9697,-3.9697,-3.9697,-3.9697,-3.917,-3.8605,-3.8027,-3.7475,-3.6958,-3.6417,-3.6405,-3.6405,-3.6405,-3.6405,-3.6405,-3.6405,-3.6405,-3.6405,-3.6405,-3.6405,-3.6405,-3.6405,-3.6405,-3.6405,-3.6405,-3.6405,-3.5667,-3.4726,0.0,0.0,0.0,0.0,0.0,0.0,-4.2429,-4.2269,-4.2093,-4.1883,-4.1571,-4.1254,-4.0916,-4.0712,-4.0662,-4.0799,-4.0901,0.0,0.0,0.0,-4.0746,-4.0366,-4.0207,-3.9996,-3.9803,-3.9661,-3.9568,-3.9481,-3.9568,-3.9732,-4.0086,-4.0509,-4.0919,-4.1355,-4.1439,-4.1339,0.0,-4.0562,-4.0091,-3.9568,-3.946,-3.9388,-3.9388,0.0,0.0,0.0,0.0,0.0,0.0,0.0,0.0,0.0,0.0,0.0,0.0,-3.3326,-3.328,-3.342,-3.3796,-3.4022,-3.4161,-3.4161,-3.4035,-3.3796,-3.342,-3.3206,-3.3124,-3.3124,-3.3124,-3.3244,-3.3796,-3.4349,-3.4856,-3.5408,-3.6006,-3.6606,-3.7111,-3.7663,-3.8216,-3.8856,-3.9358,-3.9697,-3.9697,-3.9697,-3.9697,-3.9697,-3.9697,-3.9697,-3.9697,-3.9697,-3.9697,-3.9697,-3.9157,-3.8592,-3.8015,-3.7462,-3.6958,-3.6405,-3.6405,-3.6405,-3.6405,-3.6405,-3.6405,-3.6405,-3.6405,-3.6405,-3.6405,-3.6405,-3.6405,-3.6405,-3.6405,-3.6405,-3.6405,-3.6405,-3.5906,-3.5182,0.0,0.0,0.0,0.0,0.0,0.0,-4.1703,-4.1621,-4.1522,-4.1406,-4.1171,-4.0935,-4.0799,-4.0627,-4.0558,-4.0662,-4.0696,0.0,0.0,-4.0833,-4.0627,-4.0281,-4.0101,-3.9854,-3.9589,-3.9445,-3.9388,-3.9388,-3.9388,-3.9568,-3.9874,-4.0176,-4.0474,-4.0783,-4.0836,-4.0749,0.0,-4.0071,-3.9717,-3.9388,-3.9388,-3.9388,-3.9388,0.0,0.0,0.0,0.0,0.0,0.0,0.0,0.0,0.0,0.0,0.0,0.0,0.0,-3.3124,-3.3156,-3.3495,-3.3583,-3.3583,-3.3583,-3.3583,-3.3495,-3.3156,-3.3124,-3.3124,-3.3124,-3.3124,-3.3181,-3.3533,-3.4211,-3.4793,-3.5132,-3.5868,-3.6531,-3.687,-3.7525,-3.8304,-3.9094,-3.9484,-3.9697,-3.9697,-3.9697,-3.9697,-3.9697,-3.9697,-3.9697,-3.9697,-3.9697,-3.9597,-3.9383,-3.8831,-3.8266,-3.7701,-3.7149,-3.6744,-3.6405,-3.6405,-3.6405,-3.6405,-3.6405,-3.6405,-3.6405,-3.6405,-3.6405,0.0,-3.6405,-3.6405,-3.6405,-3.6405,-3.6405,-3.6405,-3.6405,-3.6019,-3.5445,0.0,0.0,0.0,0.0,0.0,0.0,-4.1049,-4.1049,-4.1049,-4.1049,-4.0882,-4.0765,-4.0765,-4.0627,-4.0489,-4.0489,-4.0489,0.0,-4.1034,-4.0882,-4.0612,-4.025,-4.0086,-3.9818,-3.946,-3.9409,-3.9388,-3.9388,-3.9388,-3.9481,-3.9681,-3.9889,-4.0051,-4.0181,-4.0181,-4.0106,-3.9925,-3.9568,-3.9388,-3.9388,-3.9388,-3.9388,0.0,0.0,0.0,0.0,0.0,0.0,0.0,0.0,0.0,0.0,0.0,0.0,0.0,0.0,0.0,0.0,0.0,-3.3124,-3.3124,-3.3124,-3.3124,-3.3124,-3.3124,-3.3124,0.0,-3.3124,-3.3124,-3.3124,-3.3124,-3.3985,-3.468,-3.468,-3.5642,-3.6405,-3.6405,-3.7312,-3.8429,-3.9559,-3.9697,-3.9697,-3.9697,-3.9697,-3.9697,-3.9697,-3.9697,-3.9697,-3.9697,-3.9647,-3.9383,-3.8831,-3.8253,-3.7701,-3.7186,-3.6681,-3.6405,-3.6405,-3.6405,-3.6405,-3.6405,-3.6405,-3.6405,-3.6405,-3.6405,-3.6405,-3.6405,-3.6405,-3.6405,-3.6405,-3.6405,-3.6405,-3.6405,-3.6405,-3.6044,-3.5558,0.0,0.0,0.0,0.0,0.0,0.0,0.0,0.0,0.0,0.0,-4.0608,-4.0558,-4.0558,-4.0524,-4.0489,0.0,0.0,-4.0524,-4.0627,-4.0608,-4.0524,-4.042,-4.0156,-3.9975,-3.9854,-3.9568,-3.9388,-3.9388,-3.9388,-3.9409,-3.9481,-3.9661,-3.9803,-3.9824,-3.9824,-3.9717,-3.9532,-3.946,-3.9388,-3.9388,-3.9388,-3.9388,0.0,0.0,0.0,0.0,-3.9388,-3.9141,0.0,0.0,0.0,0.0,0.0,0.0,0.0,0.0,-3.3124,-3.3124,-3.3124,0.0,-3.3124,-3.3124,-3.3124,-3.3124,0.0,-3.3124,-3.3124,-3.3124,-3.3124,-3.3124,-3.3124,-3.3985,-3.468,-3.468,-3.5642,-3.6405,-3.6405,-3.7312,-3.8429,-3.9559,-3.9697,-3.9697,-3.9697,-3.9697,-3.9697,-3.9697,-3.9697,-3.9697,-3.9697,-3.9295,-3.8806,-3.8228,-3.7663,-3.7312,-3.7186,-3.6681,-3.6405,-3.6405,-3.6405,-3.6405,-3.6405,-3.6405,-3.6405,-3.6405,-3.6405,-3.6405,-3.6405,-3.6405,-3.6405,-3.6405,-3.6405,-3.6405,-3.6405,-3.6405,-3.6329,-3.6107,0.0,0.0,0.0,0.0,0.0,0.0,0.0,0.0,0.0,0.0,-4.0489,-4.0489,-4.0489,-4.0489,-4.0489,0.0,-4.0489,-4.0489,-4.0489,-4.0489,-4.0455,-4.0401,-4.0137,-3.996,-3.9854,-3.9568,-3.9388,-3.9388,-3.9388,-3.9388,-3.9388,-3.9517,-3.9553,-3.9553,-3.9553,-3.9517,-3.9388,-3.9388,-3.9388,-3.9388,-3.9388,0.0,0.0,0.0,0.0,0.0,-3.9388,-3.9068,0.0,-3.7962,-3.6936,-3.5709,0.0,0.0,0.0,0.0,-3.3124,-3.3124,-3.3124,-3.3124,-3.3124,-3.3124,-3.3124,-3.3124,-3.3124,-3.3124,-3.3124,-3.3124,-3.3124,-3.3124,-3.3124,-3.3884,-3.4532,-3.4532,-3.5363,-3.6173,-3.6553,-3.7316,-3.8179,-3.9207,-3.9534,-3.9697,-3.9697,-3.9697,-3.9697,-3.9697,-3.9697,-3.9584,-3.9333,-3.9032,-3.8492,-3.7651,-3.7337,-3.7061,-3.6857,-3.6556,-3.6405,-3.6405,-3.6405,-3.6405,-3.6405,-3.6405,-3.6405,-3.6405,-3.6405,-3.6405,-3.6405,-3.6405,-3.6405,-3.6405,-3.6405,-3.6405,-3.6405,-3.6405,-3.6405,-3.6367,0.0,0.0,0.0,0.0,0.0,0.0,0.0,0.0,0.0,0.0,0.0,0.0,0.0,0.0,0.0,0.0,-4.0489,-4.0489,-4.0489,-4.0489,-4.047,-4.0347,-4.0101,-3.9925,-3.9768,-3.9517,-3.9388,-3.9388,-3.9388,-3.9388,-3.9388,-3.9388,-3.9388,-3.9388,-3.9388,-3.9388,-3.9388,-3.9388,-3.9388,-3.9388,-3.9388,0.0,0.0,0.0,0.0,0.0,0.0,0.0,0.0,-3.781,-3.6741,-3.5494,-3.4675,0.0,0.0,0.0,0.0,0.0,-3.3124,-3.3124,-3.3124,-3.3124,-3.3124,-3.3124,-3.3124,-3.3068,-3.3038,-3.3038,-3.3025,-3.2995,-3.2995,-3.3662,-3.426,-3.426,-3.4989,-3.5853,-3.6614,-3.7208,-3.7867,-3.8705,-3.9307,-3.9645,-3.9645,-3.9697,-3.9697,-3.9697,-3.9697,-3.9459,-3.8957,-3.8831,-3.8266,-3.7211,-3.7098,-3.6883,-3.6417,-3.6405,-3.6405,-3.6405,-3.6405,-3.6405,-3.6405,-3.6405,-3.6405,-3.6405,-3.6405,-3.6405,-3.6405,-3.6405,-3.6405,-3.6405,-3.6405,-3.6405,-3.6405,-3.6405,-3.6405,-3.6405,0.0,0.0,0.0,0.0,0.0,0.0,0.0,0.0,0.0,0.0,0.0,0.0,0.0,0.0,0.0,0.0,-4.0489,-4.0489,-4.0489,-4.0489,-4.0489,-4.0455,-4.0172,-3.9996,-3.996,-3.9604,-3.9388,-3.9388,-3.9388,-3.9388,-3.9388,-3.9388,-3.9388,-3.9388,-3.9388,-3.9388,-3.9388,-3.9388,-3.9388,-3.9388,-3.9388,0.0,0.0,0.0,0.0,0.0,0.0,0.0,0.0,-3.781,-3.6596,-3.5237,-3.4592,0.0,0.0,0.0,0.0,0.0,-3.3124,-3.3124,-3.3124,-3.3124,-3.3124,-3.3124,-3.3124,-3.2939,-3.2754,-3.2754,-3.2649,-3.2531,-3.2531,-3.3362,-3.4044,-3.4044,-3.492,-3.5805,-3.6395,-3.6936,-3.749,-3.8158,-3.8896,-3.9362,-3.9362,-3.9581,-3.9697,-3.9697,-3.9697,-3.9459,-3.8957,-3.8404,-3.7852,-3.7199,-3.6782,-3.6493,-3.6405,-3.6405,-3.6405,-3.6405,-3.6405,-3.6405,-3.6405,-3.6405,-3.6405,-3.6405,-3.6405,-3.6405,-3.6405,-3.6405,-3.6405,-3.6405,-3.6405,-3.6405,-3.6405,-3.6405,-3.6405,-3.6405,0.0,0.0,0.0,0.0,0.0,0.0,0.0,0.0,0.0,0.0,0.0,0.0,0.0,0.0,0.0,-4.0489,-4.0489,-4.0489,-4.0489,-4.0489,-4.0489,-4.0489,-4.0172,-4.0011,-4.0011,-3.9604,-3.9388,-3.9388,-3.9388,-3.9388,-3.9388,-3.9388,-3.9388,-3.9388,-3.9388,-3.9388,-3.9388,-3.9388,-3.9388,-3.9388,0.0,0.0,0.0,0.0,0.0,0.0,0.0,0.0,0.0,0.0,-3.6492,-3.5047,-3.4551,0.0,0.0,0.0,0.0,0.0,-3.3124,-3.3124,-3.3081,-3.2939,-3.2896,-3.2896,-3.2896,-3.268,-3.2562,-3.2562,-3.2475,-3.24,-3.24,-3.3138,-3.3918,-3.4349,-3.4859,-3.5308,-3.571,-3.6259,-3.686,-3.755,-3.8257,-3.8741,-3.9025,-3.9322,-3.9478,-3.9478,-3.937,-3.9007,-3.8429,-3.7864,-3.7312,-3.6807,-3.6543,-3.6405,-3.6405,-3.6405,-3.6405,-3.6405,-3.6405,-3.6405,-3.6405,-3.6405,-3.6405,-3.6405,-3.6405,-3.6405,-3.6405,-3.6405,-3.6405,-3.6405,-3.6405,-3.6405,-3.6405,-3.6405,-3.6405,-3.6405,0.0,0.0,0.0,0.0,0.0,0.0,0.0,0.0,0.0,0.0,0.0,0.0,0.0,0.0,-4.0489,-4.0489,-4.0489,-4.0489,-4.0489,-4.0489,-4.0489,-4.0489,-4.0172,-4.0011,-4.0011,-3.9604,-3.9388,-3.9388,-3.9388,-3.9388,-3.9388,-3.9388,-3.9388,-3.9388,-3.9388,-3.9388,-3.9388,-3.9388,-3.9388,-3.9388,0.0,0.0,0.0,0.0,0.0,0.0,0.0,0.0,0.0,0.0,0.0,0.0,0.0,0.0,0.0,-3.3124,-3.3124,-3.3124,-3.3124,-3.3068,-3.2939,-3.2754,-3.2711,-3.2667,-3.2636,-3.2475,-3.23,-3.23,-3.2257,-3.225,-3.2384,-3.3107,-3.3929,-3.4679,-3.4775,-3.4884,-3.5078,-3.5599,-3.6196,-3.6735,-3.7496,-3.8111,-3.8451,-3.8923,-3.9156,-3.9045,-3.8891,-3.8454,-3.7753,-3.7412,-3.6923,-3.643,-3.6405,-3.6405,-3.6405,-3.6405,-3.6405,-3.6405,-3.6405,-3.6405,-3.6405,-3.6405,-3.6405,-3.6405,-3.6405,-3.6405,-3.6405,-3.6405,-3.6405,-3.6405,-3.6405,-3.6405,-3.6405,-3.6405,-3.6405,-3.6405,0.0,0.0,0.0,0.0,0.0,0.0,0.0,0.0,0.0,0.0,0.0,0.0,0.0,0.0,-4.0489,-4.0489,-4.0489,-4.0489,-4.0489,-4.0489,-4.0489,-4.0489,-4.0172,-4.0011,-4.0011,-3.9604,-3.9388,-3.9388,-3.9388,-3.9388,-3.9388,-3.9388,-3.9388,-3.9388,-3.9388,-3.9388,-3.9388,-3.9388,-3.9388,-3.9388,-3.9388,0.0,0.0,0.0,0.0,0.0,0.0,0.0,0.0,0.0,0.0,0.0,0.0,0.0,-3.3124,-3.3124,-3.3124,-3.3124,-3.3124,-3.2896,-3.2711,-3.2711,-3.2711,-3.2636,-3.2475,-3.2213,-3.2038,-3.2038,-3.1893,-3.1906,-3.2391,-3.3284,-3.4174,-3.4691,-3.4775,-3.4823,-3.4835,-3.528,-3.5679,-3.5715,-3.6834,-3.763,-3.7667,-3.839,-3.8644,-3.8216,-3.8361,-3.8004,-3.6946,-3.7102,-3.6923,-3.643,-3.6405,-3.6405,-3.6405,-3.6405,-3.6405,-3.6405,-3.6405,-3.6405,-3.6405,-3.6405,-3.6405,-3.6405,-3.6405,-3.6405,-3.6405,-3.6405,-3.6405,-3.6405,-3.6405,-3.6405,-3.6405,-3.6405,-3.6405,-3.6405,0.0,0.0,0.0,0.0,0.0,0.0,0.0,0.0,0.0,0.0,0.0,-4.0489,-4.0489,0.0,-4.0489,-4.0489,-4.0489,-4.0489,-4.0489,-4.0489,-4.0489,-4.0489,-4.0172,-4.0011,-4.0011,-3.9604,-3.9388,-3.9388,-3.9388,-3.9388,-3.9388,-3.9388,-3.9388,-3.9388,-3.9388,-3.9388,-3.9388,-3.9388,-3.9388,-3.9388,-3.9388,-3.9388,0.0,0.0,0.0,0.0,0.0,0.0,0.0,0.0,-3.6517,-3.5087,-3.4551,-3.3823,-3.3124,-3.3124,-3.3124,-3.3124,-3.3124,-3.2896,-3.268,-3.2562,-3.2376,-3.2245,-3.2169,-3.1981,-3.1805,-3.1805,-3.2039,-3.2442,-3.3296,-3.373,-3.4162,-3.4691,-3.4775,-3.4775,-3.4775,-3.4955,-3.5244,-3.5581,-3.6066,-3.6502,-3.6828,-3.7302,-3.7492,-3.7297,-3.7218,-3.7035,-3.6798,-3.6571,-3.6441,-3.6417,-3.6405,-3.6405,-3.6405,-3.6405,-3.6405,-3.6405,-3.6405,-3.6405,-3.6405,-3.6405,-3.6405,-3.6405,-3.6405,-3.6405,-3.6405,-3.6405,-3.6405,-3.6405,-3.6405,-3.6323,-3.6193,-3.6323,-3.6144,-3.5855,0.0,0.0,0.0,0.0,0.0,0.0,0.0,0.0,-4.0489,0.0,0.0,0.0,0.0,-4.0489,-4.0489,0.0,-4.0489,-4.0489,-4.0489,-4.0489,-4.0489,-4.0489,-4.0172,-4.0011,-4.0011,-3.9604,-3.9388,-3.9388,-3.9388,-3.9388,-3.9388,-3.9388,-3.9388,-3.9388,-3.9388,-3.9388,-3.9388,-3.9388,-3.9388,-3.9388,-3.9388,-3.9388,0.0,0.0,0.0,0.0,0.0,0.0,0.0,0.0,-3.6635,-3.5318,-3.4634,-3.3865,-3.3197,-3.3124,-3.3124,-3.3124,-3.3124,-3.2853,-3.255,-3.2431,-3.2169,-3.1893,-3.1893,-3.1805,-3.1765,-3.1934,-3.2491,-3.32,-3.3862,-3.4126,-3.4354,-3.4727,-3.4775,-3.4775,-3.4775,-3.4775,-3.4968,-3.5328,-3.5521,-3.5761,-3.6122,-3.6466,-3.6592,-3.6422,-3.6332,-3.6284,-3.6295,-3.601,-3.6003,-3.6275,-3.6275,-3.6323,-3.6405,-3.6323,-3.6275,-3.6275,-3.6275,-3.6323,-3.6405,-3.6405,-3.6405,-3.6405,-3.6405,-3.6405,-3.6405,-3.6323,-3.6228,-3.6133,-3.6133,-3.6038,-3.5895,-3.5886,-3.5634,-3.5239,0.0,0.0,0.0,0.0,0.0,0.0,0.0,0.0,-4.0489,-4.0489,-4.0489,0.0,0.0,0.0,0.0,0.0,-4.0489,-4.0489,-4.0489,-4.0489,-4.0489,-4.0489,-4.0172,-4.0011,-4.0011,-3.9604,-3.9388,-3.9388,-3.9388,-3.9388,-3.9388,-3.9388,-3.9388,-3.9388,-3.9388,-3.9388,-3.9388,-3.9388,-3.9388,-3.9388,-3.9388,-3.9388,-3.9388,0.0,0.0,0.0,0.0,0.0,0.0,0.0,-3.6727,-3.5534,-3.4675,-3.3924,-3.3343,-3.3142,-3.3111,-3.3111,-3.3111,-3.2736,-3.24,-3.24,-3.2025,-3.1705,-3.1705,-3.1705,-3.1862,-3.2394,-3.332,-3.3994,-3.4006,-3.4426,-3.4775,-3.4775,-3.4775,-3.4775,-3.4775,-3.4775,-3.4775,-3.4775,-3.5292,-3.5605,-3.5605,-3.6086,-3.617,-3.5653,-3.5865,-3.5782,-3.5211,-3.5464,-3.5716,-3.5968,-3.6015,-3.6098,-3.6405,-3.6146,-3.6015,-3.6015,-3.6015,-3.6146,-3.6405,-3.6405,-3.6405,-3.6405,-3.6405,-3.6405,-3.6358,-3.6098,-3.5812,-3.562,-3.562,-3.562,-3.5547,-3.5018,-3.4809,-3.4723,0.0,0.0,0.0,0.0,0.0,0.0,0.0,0.0,-4.0489,-4.0489,-4.0489,0.0,0.0,0.0,0.0,0.0,0.0,-4.0489,-4.0489,-4.0489,-4.0489,-4.0489,-4.0172,-3.9925,-3.9803,-3.925,-3.9104,-3.9388,-3.9388,-3.9388,-3.9388,-3.9388,-3.9388,-3.9388,-3.9388,-3.9388,-3.9388,-3.9388,-3.9388,-3.9388,-3.9388,-3.9388,-3.9388,0.0,0.0,0.0,0.0,0.0,0.0,0.0,0.0,0.0,-3.4109,-3.3073,-3.2149,-3.1971,-3.2164,-3.2466,-3.2466,-3.2554,-3.2593,-3.2431,-3.2169,-3.1893,-3.1705,-3.1705,-3.197,-3.2863,-3.3573,-3.4102,-3.4474,-3.4679,-3.4775,-3.4775,-3.4775,-3.4775,-3.4775,-3.4775,-3.4775,-3.4775,-3.4919,-3.5015,-3.5015,-3.5159,-3.5232,-3.5076,-3.5113,-3.5199,-3.5187,-3.5271,-3.5416,-3.5716,-3.5716,-3.5764,-3.5847,-3.5764,-3.5716,-3.5716,-3.5716,-3.586,-3.6098,-3.6098,-3.6098,-3.6098,-3.5895,-3.5847,-3.5847,-3.5764,-3.5572,-3.532,-3.5524,-3.5476,-3.5259,-3.4911,-3.4576,-3.417,0.0,0.0,0.0,0.0,0.0,0.0,-4.0489,-4.0489,-4.0489,-4.0489,-4.0489,-4.0489,0.0,0.0,0.0,-4.0489,-4.0489,-4.0489,-4.0489,-4.0489,-4.047,-4.0436,-4.0016,-3.9502,-3.9017,-3.8634,-3.856,-3.8811,-3.9031,-3.9141,-3.9141,-3.9141,-3.9177,-3.9265,-3.9265,-3.9337,-3.9388,-3.9388,-3.9388,-3.9388,-3.9388,-3.9388,-3.9388,0.0,0.0,0.0,0.0,0.0,0.0,0.0,0.0,0.0,-3.3899,-3.2793,-3.179,-3.148,-3.1625,-3.1888,-3.1888,-3.2134,-3.2357,-3.2099,-3.1998,-3.195,-3.1761,-3.2042,-3.2503,-3.3152,-3.3861,-3.4402,-3.4727,-3.4775,-3.4775,-3.4775,-3.4775,-3.4775,-3.4775,-3.4775,-3.4775,-3.4775,-3.4775,-3.4775,-3.4775,-3.4775,-3.4775,-3.4775,-3.4775,-3.4884,-3.503,-3.503,-3.5175,-3.5428,-3.5416,-3.5464,-3.562,-3.5464,-3.5416,-3.5416,-3.5416,-3.5524,-3.5668,-3.5764,-3.5812,-3.5824,-3.5668,-3.5524,-3.5416,-3.5416,-3.5271,-3.5078,-3.5223,-3.5175,-3.4981,-3.4396,-3.4015,-3.3625,0.0,0.0,-4.0489,-4.0489,0.0,0.0,-4.0489,-4.0489,-4.0489,-4.0489,-4.0489,-4.0489,0.0,0.0,0.0,-4.0489,-4.0489,-4.0489,-4.0489,-4.0489,-4.0401,-4.0226,-3.9595,-3.8767,-3.7848,-3.7772,-3.7772,-3.7772,-3.8412,-3.8708,-3.8745,-3.8745,-3.8833,-3.9031,-3.9031,-3.9156,-3.9337,-3.9337,-3.9388,-3.9388,-3.9388,-3.9388,-3.9388,-3.9388,0.0,0.0,0.0,0.0,0.0,0.0,0.0,0.0,-3.3794,-3.2771,-3.1839,-3.141,-3.1314,-3.1323,-3.1323,-3.1597,-3.1861,-3.1552,-3.1754,-3.1937,-3.1749,-3.2466,-3.3236,-3.3284,-3.4114,-3.4775,-3.4775,-3.4775,-3.4775,-3.4775,-3.4775,-3.4775,-3.4775,-3.4775,-3.4775,-3.4738,-3.4738,-3.4738,-3.4775,-3.4775,-3.4775,-3.4775,-3.4775,-3.4775,-3.4775,-3.4775,-3.4932,-3.5175,-3.5175,-3.5271,-3.5524,-3.5271,-3.5175,-3.5175,-3.5175,-3.5175,-3.5175,-3.5416,-3.5572,-3.5524,-3.5524,-3.5368,-3.5175,-3.5175,-3.503,-3.4775,-3.4775,-3.4751,-3.4583,-3.3645,-3.326,-3.3068,0.0,0.0,-4.0489,-4.0489,0.0,0.0,-4.0489,-4.0489,-4.0489,-4.0489,-4.0489,-4.0489,-4.0489,-4.0489,0.0,-4.0489,-4.0489,-4.047,-4.0347,-4.0331,-4.0121,-3.9631,-3.8517,-3.7639,-3.713,-3.6819,-3.6755,-3.6978,-3.7734,-3.8188,-3.8315,-3.8315,-3.8352,-3.8389,-3.8553,-3.8738,-3.8943,-3.9104,-3.9265,-3.9388,-3.9388,-3.9388,-3.9388,-3.9388,-3.9388,0.0,0.0,0.0,0.0,0.0,0.0,0.0,-3.2877,-3.1681,-3.0701,-3.0469,-3.055,-3.0783,-3.0783,-3.1446,-3.2047,-3.1594,-3.1612,-3.1749,-3.1705,-3.2178,-3.2791,-3.32,-3.4114,-3.4775,-3.4775,-3.4775,-3.4775,-3.4775,-3.4775,-3.4738,-3.4531,-3.4482,-3.4445,-3.4261,-3.4261,-3.431,-3.4482,-3.4482,-3.458,-3.4775,-3.4775,-3.4775,-3.4775,-3.4775,-3.4835,-3.4884,-3.4884,-3.492,-3.4981,-3.492,-3.4884,-3.4884,-3.4884,-3.4884,-3.4884,-3.5175,-3.5175,-3.4981,-3.4981,-3.4932,-3.4884,-3.4884,-3.4823,-3.4775,-3.4775,-3.4522,-3.409,-3.3513,-3.3032,-3.2575,0.0,0.0,0.0,0.0,0.0,0.0,0.0,0.0,-4.0489,-4.0489,-4.0489,-4.0489,-4.0489,-4.0436,0.0,0.0,-4.0331,-4.0191,-4.0016,-3.993,-3.9487,-3.8583,-3.7601,-3.6844,-3.6322,-3.6044,-3.5937,-3.6071,-3.6494,-3.7042,-3.7634,-3.7634,-3.7672,-3.7787,-3.7991,-3.824,-3.8523,-3.8833,-3.9068,-3.9265,-3.9337,-3.9388,-3.9388,-3.9388,-3.9388,-3.9388,-3.9388,0.0,0.0,0.0,0.0,0.0,0.0,0.0,-3.0368,-3.0152,-3.0148,-3.0218,-3.0218,-3.0821,-3.1451,-3.1514,-3.1668,-3.1805,-3.1705,-3.2094,-3.2575,-3.2851,-3.3729,-3.4486,-3.4727,-3.4775,-3.4775,-3.4775,-3.4775,-3.4726,-3.4433,-3.4384,-3.4347,-3.4125,-3.4125,-3.4162,-3.4384,-3.4384,-3.4531,-3.4787,-3.4775,-3.4775,-3.4775,-3.4775,-3.4775,-3.4775,-3.4775,-3.4775,-3.4775,-3.4775,-3.4775,-3.4775,-3.4775,-3.4775,-3.4775,-3.492,-3.492,-3.4775,-3.4775,-3.4726,-3.4628,-3.4628,-3.4543,-3.4445,-3.4445,-3.4124,-3.3637,-3.323,-3.2763,-3.2213,0.0,0.0,0.0,0.0,0.0,0.0,0.0,0.0,0.0,-4.0351,-4.0385,-4.042,-4.042,-4.0296,-4.0207,0.0,0.0,0.0,-3.9574,-3.9235,-3.8583,-3.7529,-3.678,-3.6123,-3.5602,-3.5345,-3.5236,-3.5318,-3.5318,-3.575,-3.6665,-3.6744,-3.6861,-3.7017,-3.7264,-3.7596,-3.7962,-3.8412,-3.8723,-3.8958,-3.9156,-3.9301,-3.9337,-3.9301,-3.9301,-3.9337,-3.9265,-3.8738,-3.8037,-3.7529,0.0,0.0,0.0,0.0,-3.0496,-3.0215,-2.9972,-2.9792,-2.9792,-3.0217,-3.0835,-3.1433,-3.1797,-3.195,-3.1805,-3.2066,-3.2382,-3.2478,-3.332,-3.4126,-3.457,-3.4715,-3.4775,-3.4738,-3.4726,-3.458,-3.4249,-3.42,-3.4101,-3.3866,-3.3817,-3.3915,-3.42,-3.42,-3.4347,-3.464,-3.4689,-3.4689,-3.4726,-3.4726,-3.4726,-3.4775,-3.4775,-3.4775,-3.4775,-3.4775,-3.4787,-3.4726,-3.4689,-3.4689,-3.4726,-3.4689,-3.4738,-3.4775,-3.4726,-3.458,-3.4384,-3.4286,-3.415,-3.3965,-3.3915,-3.3578,-3.298,-3.2818,-3.2402,-3.1855,0.0,0.0,0.0,0.0,0.0,0.0,0.0,0.0,0.0,0.0,-3.9945,-4.0066,-4.0066,-3.991,-3.9803,-3.9803,-3.943,-3.9126,-3.8929,0.0,0.0,-3.7095,-3.6097,-3.5426,-3.5195,-3.4784,-3.466,-3.488,-3.488,-3.5044,-3.5358,-3.571,-3.5871,-3.5911,-3.6322,-3.6584,-3.6858,-3.7481,-3.7991,-3.8352,-3.8553,-3.8811,-3.9104,-3.8943,-3.898,-3.9104,-3.8738,-3.8217,-3.7525,-3.6603,-3.5477,0.0,0.0,0.0,-3.0996,-3.0509,-3.0075,-2.9792,-2.9792,-3.0413,-3.1162,-3.17,-3.1927,-3.1981,-3.1994,-3.1866,-3.1958,-3.2394,-3.332,-3.4018,-3.409,-3.4474,-3.4726,-3.4482,-3.4433,-3.4249,-3.3519,-3.3431,-3.3269,-3.2757,-3.2695,-3.2908,-3.3381,-3.3431,-3.3668,-3.4174,-3.4162,-3.4261,-3.4433,-3.4433,-3.458,-3.4775,-3.4775,-3.4775,-3.4775,-3.4775,-3.4677,-3.4433,-3.4261,-3.4261,-3.4433,-3.4261,-3.4408,-3.4775,-3.4531,-3.4433,-3.4384,-3.3892,-3.3522,-3.3312,-3.3346,-3.2722,-3.1918,-3.2134,-3.1762,-3.1156,0.0,0.0,0.0,0.0,0.0,0.0,0.0,0.0,0.0,0.0,0.0,-3.9322,-3.9322,-3.9141,-3.9031,-3.9031,-3.876,-3.8464,-3.8165,-3.7404,-3.6875,-3.6654,-3.5723,-3.5195,-3.5086,-3.4647,-3.4452,-3.4577,-3.4577,-3.4618,-3.4688,-3.4895,-3.51,-3.5399,-3.5656,-3.5977,-3.6296,-3.6794,-3.7352,-3.7877,-3.8089,-3.8352,-3.8575,-3.8501,-3.8538,-3.8575,-3.8277,-3.7863,-3.7299,-3.6501,-3.5452,-3.4284,-3.3155,0.0,0.0,0.0,-3.019,-2.9934,-2.983,-3.029,-3.086,-3.0909,-3.1324,-3.1705,-3.1588,-3.1632,-3.1777,-3.1985,-3.2647,-3.331,-3.3886,-3.4186,-3.4342,-3.4385,-3.4384,-3.415,-3.3381,-3.3158,-3.2835,-3.228,-3.2088,-3.2139,-3.2544,-3.2544,-3.2796,-3.3335,-3.3534,-3.3683,-3.3941,-3.4237,-3.4433,-3.458,-3.4726,-3.4775,-3.4775,-3.4775,-3.4677,-3.4384,-3.4003,-3.3953,-3.4211,-3.3805,-3.3953,-3.4531,-3.4139,-3.3782,-3.3472,-3.2924,-3.246,-3.2044,-3.1902,-3.1483,-3.098,-3.115,-3.0942,-3.0526,0.0,0.0,0.0,0.0,0.0,0.0,0.0,0.0,0.0,0.0,0.0,-3.8486,-3.8486,0.0,0.0,0.0,-3.8014,-3.7763,-3.7394,-3.6915,-3.6522,-3.6325,-3.5534,-3.5086,-3.5086,-3.4647,-3.4397,-3.4397,-3.4397,-3.4397,-3.4397,-3.4397,-3.4564,-3.4949,-3.5154,-3.5399,-3.571,-3.6123,-3.6638,-3.7211,-3.7414,-3.7696,-3.7976,-3.7901,-3.7938,-3.7938,-3.7696,-3.7366,-3.6993,-3.6362,-3.5464,-3.4486,-3.3516,-3.2542,0.0,0.0,0.0,-2.9972,-2.983,-3.0193,-3.0568,-3.0331,-3.0848,-3.1392,-3.1284,-3.1452,-3.1592,-3.1681,-3.1997,-3.2563,-3.3477,-3.3814,-3.4031,-3.4135,-3.4215,-3.4003,-3.3119,-3.2684,-3.2258,-3.1669,-3.1362,-3.1311,-3.1567,-3.1607,-3.1812,-3.2258,-3.2549,-3.2862,-3.3185,-3.3683,-3.4078,-3.4188,-3.4494,-3.464,-3.464,-3.4494,-3.4286,-3.3979,-3.3434,-3.3346,-3.3557,-3.3047,-3.3135,-3.3671,-3.3434,-3.3024,-3.2561,-3.1953,-3.1392,-3.0877,-3.0681,-3.0395,-3.012,-3.0204,-3.0064,-2.9828,0.0,0.0,0.0,0.0,0.0,0.0,0.0,0.0,0.0,0.0,0.0,-3.7644,-3.7644,-3.7481,-3.738,-3.738,-3.7187,-3.6954,-3.6747,-3.6563,-3.6325,-3.6126,-3.5453,0.0,-3.5086,-3.4647,-3.4397,-3.4397,-3.4397,-3.4397,-3.4397,-3.4397,-3.4397,-3.4439,-3.4714,-3.4839,-3.488,-3.5277,-3.571,-3.6111,-3.6308,-3.6755,-3.7341,-3.7148,-3.7173,-3.7303,-3.69,-3.6654,-3.6351,-3.5884,-3.5453,-3.4926,-3.4111,-3.317,-3.2198,0.0,0.0,0.0,-2.9792,-3.0193,-3.062,-3.0568,-3.0832,-3.1174,-3.1429,-3.1333,-3.1331,-3.1653,-3.1729,-3.1934,-3.2466,-3.338,-3.3863,-3.3431,-3.3807,-3.3668,-3.228,-3.1823,-3.1362,-3.0599,-3.0245,-3.0193,-3.0443,-3.0495,-3.0599,-3.0888,-3.1135,-3.1545,-3.2066,-3.2611,-3.3124,-3.3645,-3.3965,-3.4125,-3.4125,-3.363,-3.3208,-3.2862,-3.2319,-3.2066,-3.2117,-3.1823,-3.171,-3.1779,-3.2258,-3.2319,-3.1964,-3.1197,-3.0526,-3.0057,-3.0036,-2.9694,-2.9269,-2.9423,-2.931,-2.902,0.0,0.0,0.0,0.0,0.0,0.0,0.0,0.0,0.0,0.0,0.0,0.0,0.0,-3.6679,-3.6733,-3.6733,-3.6668,-3.6589,-3.6524,-3.6325,-3.6112,-3.5844,-3.5372,-3.5044,-3.4921,-3.4577,-3.4397,-3.4397,-3.4397,-3.4397,-3.4397,-3.4397,-3.4397,-3.4397,-3.4481,-3.4618,-3.4797,-3.4962,-3.5236,-3.5642,-3.5696,-3.5937,-3.627,-3.6191,-3.627,-3.6429,-3.6151,-3.6138,-3.6112,-3.5534,-3.5236,-3.4938,-3.4002,-3.3169,-3.2358,-3.1048,-3.0343,-2.9972,-2.983,-2.9942,-3.0093,-3.0093,-3.0323,-3.0645,-3.1121,-3.1234,-3.1338,-3.1784,-3.1805,-3.1765,-3.1925,-3.2402,-3.2875,-3.3242,-3.3149,-3.2818,-3.2072,-3.1454,-3.0847,-3.0193,-2.9722,-2.9448,-2.9554,-2.9554,-2.9701,-3.0015,-3.0266,-3.0671,-3.1197,-3.1739,-3.2207,-3.2572,-3.2885,-3.2985,-3.2985,-3.2645,-3.2319,-3.2044,-3.1494,-3.1249,-3.1197,-3.0754,-3.0651,-3.0836,-3.0681,-3.063,-3.0671,-3.0005,-2.9491,-2.9142,-2.8983,-2.8893,-2.885,-2.8799,-2.8662,-2.8406,0.0,0.0,0.0,-3.51,0.0,-3.5263,-3.5195,-3.5318,-3.544,-3.548,0.0,0.0,0.0,0.0,-3.6032,-3.6138,-3.6232,-3.6286,-3.6286,-3.6072,-3.5858,-3.5602,-3.5195,-3.4921,-3.4797,-3.4535,-3.4397,-3.4397,-3.4397,-3.4397,-3.4397,-3.4397,-3.4397,-3.4397,-3.4397,-3.4494,-3.4673,-3.4673,-3.4867,-3.5195,-3.5195,-3.5318,-3.5521,-3.5521,-3.5602,-3.5669,-3.5562,-3.5616,-3.571,-3.5168,-3.5003,-3.4855,-3.4103,-3.3285,-3.2345,-3.1036,-3.0407,-3.0049,-2.9869,-2.9792,-2.9792,-2.9792,-2.9925,-3.0194,-3.0673,-3.0984,-3.1284,-3.1661,-3.1772,-3.1761,-3.1705,-3.1726,-3.1943,-3.2535,-3.2464,-3.215,-3.1587,-3.0946,-3.0328,-2.9774,-2.9195,-2.8814,-2.8814,-2.8814,-2.892,-2.9132,-2.9386,-2.9754,-3.0214,-3.0774,-3.1238,-3.1607,-3.1761,-3.1852,-3.1852,-3.1607,-3.1351,-3.1073,-3.063,-3.0318,-3.0224,-2.9879,-2.9774,-2.9816,-2.9448,-2.9448,-2.9649,-2.9185,-2.8834,-2.8568,-2.8354,-2.8408,-2.8518,-2.8326,-2.8184,-2.8066,-3.4397,-3.4397,-3.4397,-3.4397,-3.4397,-3.4481,-3.4756,-3.4797,-3.4839,-3.5031,0.0,0.0,0.0,0.0,0.0,-3.5642,-3.5898,-3.6086,-3.6086,-3.5817,-3.5602,-3.5399,-3.5003,-3.4797,-3.4797,-3.4535,-3.4397,-3.4397,-3.4397,-3.4397,-3.4397,-3.4397,-3.4397,-3.4397,-3.4397,-3.4397,-3.4397,-3.4397,-3.4535,-3.4797,-3.4797,-3.4921,-3.5086,-3.5086,-3.5072,-3.5086,-3.5086,-3.5086,-3.5086,-3.488,-3.4797,-3.4756,-3.4468,-3.3491,-3.2237,-3.1459,-3.0662,-3.0049,0.0,0.0,0.0,-2.9792,-2.9792,-2.9891,-3.0154,-3.0661,-3.1096,-3.1211,-3.1605,-3.1925,-3.1749,-3.133,-3.1047,-3.1251,-3.1693,-3.167,-3.0658,-3.0169,-2.9733,-2.9185,-2.8611,-2.8291,-2.8291,-2.8291,-2.8291,-2.8291,-2.8514,-2.8834,-2.9079,-2.9638,-3.0214,-3.0733,-3.0733,-3.0733,-3.0733,-3.0495,-3.0224,-2.9953,-2.9701,-2.9396,-2.9079,-2.9079,-2.893,-2.8684,-2.8684,-2.8834,-2.9079,-2.8781,-2.8514,-2.8291,-2.8291,-2.8291,-2.8295,-2.8085,-2.7979,-2.7902,-3.4397,-3.4397,-3.4397,-3.4397,-3.4397,-3.4439,-3.4494,-3.4494,-3.4535,0.0,0.0,0.0,-3.488,-3.5003,-3.5113,-3.5277,-3.5318,-3.5372,-3.5372,-3.5318,-3.5195,-3.4962,-3.4839,-3.4714,-3.4522,-3.4439,-3.4397,-3.4397,-3.4397,-3.4397,-3.4397,-3.4397,-3.4397,-3.4397,-3.4397,-3.4397,-3.4397,-3.4397,-3.4439,-3.4494,-3.4494,-3.4522,-3.4605,-3.4605,-3.4701,-3.488,-3.488,-3.4962,-3.5086,-3.488,-3.4797,-3.469,-3.4022,-3.3178,-3.2237,-3.1459,-3.0662,-3.0049,-2.9869,0.0,0.0,0.0,0.0,0.0,-3.039,-3.0455,-3.0707,-3.1536,-3.1559,-3.1532,-3.1877,-3.1419,-3.0884,-3.0548,-3.0319,-3.0219,-3.022,-2.9456,-2.8884,-2.8847,-2.8504,-2.8291,-2.8291,-2.8291,-2.8291,-2.8291,-2.8354,-2.8514,-2.8781,-2.9132,-2.9438,-2.9544,-2.9544,-2.9544,-2.9544,-2.9501,-2.9343,-2.9036,-2.8993,-2.8824,-2.8504,-2.8504,-2.8504,-2.8398,-2.8398,-2.8451,-2.8504,-2.8451,-2.8354,-2.8291,-2.8291,-2.8291,-2.8281,-2.8217,-2.8025,-2.7731,-3.4397,-3.4397,-3.4397,-3.4397,-3.4397,-3.4397,-3.4397,-3.4397,-3.4397,0.0,0.0,0.0,-3.4618,-3.4839,-3.4962,-3.4962,-3.5044,-3.5086,-3.5086,-3.5003,-3.4921,-3.4797,-3.4714,-3.4577,-3.4397,-3.4397,-3.4397,-3.4397,-3.4397,-3.4397,-3.4397,-3.4397,-3.4397,-3.4397,-3.4397,-3.4397,-3.4397,-3.4397,-3.4397,-3.4397,-3.4397,-3.4397,-3.4397,-3.4397,-3.4494,-3.4618,-3.4618,-3.4701,-3.4784,-3.466,-3.4618,-3.4566,-3.4073,-3.3359,-3.2586,-3.1793,-3.1045,-3.0341,-2.9932,-2.9792,-2.9792,-2.9792,0.0,0.0,-3.0193,-3.0313,-3.0518,-3.1071,-3.1329,-3.1547,-3.1636,-3.1352,-3.0916,-3.0306,-2.9546,-2.9122,-2.9335,-2.8594,-2.8161,-2.84,-2.8186,-2.8096,-2.8271,-2.8291,-2.8291,-2.8291,-2.8291,-2.8354,-2.8514,-2.8664,-2.8761,-2.8761,-2.8761,-2.8761,-2.8761,-2.8761,-2.8664,-2.8514,-2.8514,-2.8451,-2.8291,-2.8291,-2.8291,-2.8291,-2.8291,-2.8291,-2.8291,-2.8291,-2.8291,-2.8291,-2.8291,-2.8291,-2.8291,-2.8291,-2.8135,-2.7953,0.0,-3.4397,-3.4397,-3.4397,-3.4397,-3.4397,-3.4397,-3.4397,-3.4397,0.0,-3.4397,-3.4397,-3.4397,-3.4618,-3.4756,-3.4756,-3.4921,-3.5031,-3.5031,-3.4839,-3.4756,-3.4756,-3.4535,-3.4397,-3.4397,-3.4397,-3.4397,-3.4397,-3.4397,-3.4397,-3.4397,-3.4397,-3.4397,-3.4397,-3.4397,-3.4397,-3.4397,-3.4397,-3.4356,-3.4356,-3.4397,-3.4397,-3.4356,-3.4356,-3.4356,-3.4314,-3.4314,-3.4356,-3.4356,-3.4397,-3.4397,-3.4397,-3.4356,-3.3799,-3.3049,-3.2358,-3.1541,-3.0732,-3.0057,-2.9842,-2.9792,-2.9792,-2.9792,0.0,-2.9792,-3.0168,-3.0453,-3.0278,-3.1034,-3.1628,-3.1296,-3.122,-3.1012,-3.0295,-2.9174,-2.8378,-2.8271,-2.7731,-2.7488,-2.7934,-2.7835,-2.7812,-2.8184,-2.8262,-2.8291,-2.8291,-2.8291,-2.8291,-2.8291,-2.8291,-2.8291,-2.8291,-2.8291,-2.8291,-2.8291,-2.8291,-2.8291,-2.8291,-2.8291,-2.8291,-2.8291,-2.8291,-2.8291,-2.8291,-2.8291,-2.8291,-2.8291,-2.8291,-2.8291,-2.8291,-2.8291,-2.8291,-2.8291,-2.8291,-2.8291,-2.8242,-3.4397,-3.4397,-3.4397,-3.4397,-3.4397,-3.4397,-3.4397,-3.4397,-3.4397,-3.4397,-3.4397,-3.4397,-3.4397,-3.4439,-3.4481,-3.4481,-3.4522,-3.4522,-3.4522,-3.4481,-3.4481,-3.4481,-3.4439,-3.4397,-3.4397,-3.4397,-3.4397,-3.4397,-3.4397,-3.4397,-3.4397,-3.4397,-3.4397,-3.4397,-3.4397,-3.4397,-3.4397,-3.4243,-3.416,-3.416,-3.4314,-3.4314,-3.416,-3.416,-3.4021,-3.3839,-3.3839,-3.3979,-3.4202,-3.4356,-3.4397,-3.4356,-3.4202,-3.3591,-3.2908,-3.26,-3.1618,-3.0635,-3.0482,-3.0131,-2.9792,-2.9792,-2.9792,0.0,-2.9792,-2.988,-3.008,-3.0428,-3.0545,-3.0712,-3.1308,-3.0995,-3.0555,-3.0237,-2.9174,-2.832,-2.8008,-2.7369,-2.6992,-2.7182,-2.7503,-2.7748,-2.7836,-2.8096,-2.8291,-2.8291,-2.8291,-2.8291,-2.8291,-2.8291,-2.8291,-2.8291,-2.8291,-2.8291,-2.8291,-2.8291,-2.8291,-2.8291,-2.8291,-2.8291,-2.8291,-2.8291,-2.8291,-2.8291,-2.8291,-2.8291,-2.8291,-2.8291,-2.8291,-2.8291,-2.8291,-2.8291,-2.8291,-2.8291,-2.8291,-2.8281,-3.4397,-3.4397,-3.4397,-3.4397,-3.4397,-3.4397,-3.4397,-3.4397,-3.4397,-3.4397,-3.4397,-3.4397,-3.4397,-3.4397,-3.4397,-3.4397,-3.4397,-3.4397,-3.4397,-3.4397,-3.4397,-3.4397,-3.4397,-3.4397,-3.4397,-3.4397,-3.4397,-3.4397,-3.4397,-3.4397,-3.4397,-3.4397,-3.4356,-3.4243,-3.4243,-3.4189,-3.4063,-3.3937,-3.3894,-3.3894,-3.4021,-3.3979,-3.3894,-3.3894,-3.381,-3.3713,-3.3713,-3.381,-3.3937,-3.4021,-3.4063,-3.4021,-3.3937,-3.3533,-3.3084,-3.2733,-3.2044,-3.1348,-3.1072,-3.0608,-3.0206,-3.0206,-2.9993,0.0,0.0,-2.9792,-2.988,-3.0143,-3.0328,-3.0552,-3.0999,-3.0846,-3.0545,-3.0271,-2.9255,-2.8365,-2.785,-2.7002,-2.6537,-2.6822,-2.6986,-2.7109,-2.7324,-2.7734,-2.8066,-2.8271,-2.8291,-2.8291,-2.8291,-2.8291,-2.8291,-2.8291,-2.8291,-2.8291,-2.8291,-2.8291,-2.8291,-2.8291,-2.8291,-2.8291,-2.8291,-2.8291,-2.8291,-2.8291,-2.8291,-2.8291,-2.8291,-2.8291,-2.8291,-2.8291,-2.8291,-2.8291,-2.8291,-2.8291,-2.8291,-2.8291,-3.4189,-3.4189,-3.4147,-3.4147,-3.4189,-3.423,-3.423,-3.4272,-3.4356,-3.4397,-3.4397,-3.4397,-3.4397,-3.4397,-3.4397,-3.4397,-3.4397,-3.4397,-3.4397,-3.4397,-3.4397,-3.4397,-3.4397,-3.4397,-3.4397,-3.4397,-3.4397,-3.4397,-3.4356,-3.4356,-3.4356,-3.423,-3.4105,-3.3949,-3.3865,-3.3725,-3.3513,-3.3458,-3.3458,-3.3458,-3.3471,-3.3513,-3.3641,-3.3641,-3.3641,-3.3598,-3.3641,-3.3641,-3.3641,-3.367,-3.3713,-3.367,-3.3641,-3.3513,-3.331,-3.2824,-3.247,-3.2114,-3.1675,-3.116,-3.0758,-3.0758,-3.0357,-2.9942,0.0,0.0,0.0,-2.9792,-3.0143,-3.0461,-3.0536,-3.0592,-3.0509,-3.0121,-2.9315,-2.8502,-2.7773,-2.686,-2.6316,-2.6566,-2.6467,-2.6523,-2.6865,-2.7285,-2.7715,-2.8135,-2.8174,-2.8203,-2.8291,-2.8291,-2.8291,-2.8291,-2.8291,-2.8291,-2.8291,-2.8291,-2.8291,-2.8291,-2.8291,-2.8291,-2.8291,-2.8291,-2.8291,-2.8291,-2.8291,-2.8291,-2.8291,-2.8291,-2.8291,-2.8291,-2.8291,-2.8291,-2.8291,-2.8291,-2.8291,-2.8291,-3.3471,-3.3343,-3.3159,-3.3159,-3.3343,-3.3526,-3.3526,-3.3865,-3.4202,-3.4397,-3.4397,-3.4397,-3.4397,-3.4397,-3.4397,-3.4397,-3.4397,-3.4397,-3.4397,-3.4397,-3.4397,-3.4397,-3.4397,-3.4397,-3.4397,-3.4397,-3.4397,-3.4397,-3.4243,-3.4118,-3.4118,-3.3696,-3.3484,-3.3441,-3.3056,-3.284,-3.2797,-3.2612,-3.2568,-3.2568,-3.255,-3.2896,-3.3441,-3.3441,-3.3313,-3.3197,-3.3356,-3.3441,-3.3484,-3.3641,-3.3713,-3.367,-3.3471,-3.3441,-3.3343,-3.3122,-3.2659,-3.2202,-3.2139,-3.1725,-3.1298,-3.1298,-3.0909,-3.052,-3.052,0.0,-2.9792,-2.9792,0.0,-2.9925,-2.997,0.0,0.0,-2.9546,-2.9251,-2.8792,-2.8045,-2.7278,-2.664,-2.6208,-2.6291,-2.6406,-2.6455,-2.6836,-2.7266,-2.7705,-2.7787,-2.79,-2.8271,-2.8291,-2.8291,-2.8291,-2.8291,-2.8291,-2.8291,-2.8291,-2.8291,-2.8291,-2.8291,-2.8291,-2.8291,-2.8291,-2.8291,-2.8291,-2.8291,-2.8291,-2.8291,-2.8291,-2.8291,-2.8291,-2.8291,-2.8291,-2.8291,-2.8291,-2.8291,-2.8291,-3.2957,-3.2957,-3.2828,-3.2828,-3.2927,-3.297,-3.297,-3.327,-3.3556,-3.3768,-3.381,-3.3937,-3.4202,-3.4243,-3.4285,-3.4397,-3.4397,-3.4397,-3.4397,-3.4397,-3.4397,-3.4397,-3.4397,-3.4356,-3.4243,-3.4243,-3.4076,-3.381,-3.3738,-3.3569,-3.327,-3.3099,-3.2785,-3.2339,-3.2164,-3.1901,-3.1669,-3.1581,-3.1536,-3.1536,-3.1548,-3.1713,-3.2008,-3.2581,-3.2766,-3.2692,-3.2766,-3.281,-3.281,-3.2927,-3.2939,-3.2927,-3.297,-3.297,-3.3013,-3.3068,-3.2905,-3.2717,-3.2717,-3.2303,-3.1863,-3.1863,-3.1461,-3.106,-3.106,-3.0884,-3.0633,-3.0331,0.0,0.0,0.0,0.0,0.0,0.0,-2.9041,-2.8477,-2.7867,-2.7251,-2.6736,-2.64,-2.6133,-2.6113,-2.6367,-2.6543,-2.6826,-2.7256,-2.7529,-2.7744,-2.792,-2.8164,-2.8291,-2.8291,-2.8291,-2.8291,-2.8291,-2.8291,-2.8291,-2.8291,-2.8291,-2.8291,-2.8291,-2.8291,-2.8291,-2.8291,-2.8291,-2.8291,-2.8291,-2.8291,-2.8291,-2.8291,-2.8291,-2.8291,-2.8291,-2.8291,-2.8291,-2.8291,-3.2021,-3.212,-3.2001,-3.2001,-3.2089,-3.2176,-3.2351,-3.2636,-3.2941,-3.3269,-3.3438,-3.3712,-3.4187,-3.4285,-3.4456,-3.4656,-3.4656,-3.4656,-3.4656,-3.4556,-3.4464,-3.4464,-3.4308,-3.4105,-3.3907,-3.3823,-3.3611,-3.3227,-3.3,-3.2686,-3.2295,-3.2089,-3.1681,-3.108,-3.0958,-3.0734,-3.0407,-3.0407,-3.0407,-3.0407,-3.0498,-3.0498,-3.0633,-3.1605,-3.1969,-3.1969,-3.1969,-3.1969,-3.1969,-3.1969,-3.2025,-3.2113,-3.2276,-3.2363,-3.245,-3.268,-3.2723,-3.2723,-3.2797,-3.2498,-3.2187,-3.2314,-3.1943,-3.1542,-3.1625,-3.1499,-3.1286,-3.0909,-3.0794,0.0,0.0,0.0,-2.9616,-2.9217,0.0,-2.829,-2.7689,-2.7262,-2.689,-2.6544,-2.6024,-2.581,-2.6182,-2.6211,-2.6387,-2.6807,-2.7139,-2.7474,-2.7708,-2.7959,-2.8174,-2.8291,-2.8291,-2.8291,-2.8291,-2.8291,-2.8291,-2.8291,-2.8291,-2.8291,-2.8291,-2.8291,-2.8291,-2.8291,-2.8291,-2.8291,-2.8291,-2.8291,-2.8291,-2.8291,-2.8291,-2.8291,-2.8291,-2.8291,-2.8291,-2.8291,-3.0261,-3.0306,-3.0261,-3.0261,-3.0487,-3.088,-3.1536,-3.2046,-3.2494,-3.3036,-3.3523,-3.3966,-3.4535,-3.4817,-3.5054,-3.5334,-3.5391,-3.5391,-3.5391,-3.4879,-3.4571,-3.4571,-3.402,-3.3641,-3.3441,-3.3172,-3.2914,-3.2711,-3.1989,-3.1524,-3.1223,-3.0599,-3.0114,-2.9863,-2.9382,-2.9174,-2.9174,-2.9174,-2.9174,-2.9174,-2.9439,-2.9531,-2.9658,-3.0588,-3.0946,-3.0946,-3.0946,-3.0946,-3.0946,-3.0946,-3.1104,-3.135,-3.135,-3.1528,-3.1749,-3.1749,-3.1749,-3.1793,-3.1989,-3.2021,-3.214,-3.2556,-3.2276,-3.1908,-3.2148,-3.1775,-3.1386,-3.1373,-3.121,-3.0852,-3.0133,-3.0055,-2.9723,-2.851,-2.8589,0.0,0.0,-2.7404,-2.7071,-2.6544,-2.6024,-2.5693,-2.5703,-2.5713,-2.5937,-2.6377,-2.6426,-2.6787,-2.7669,-2.7728,-2.7924,-2.8281,-2.8291,-2.8291,-2.8291,-2.8291,-2.8291,-2.8291,-2.8291,-2.8291,-2.8291,-2.8291,-2.8291,-2.8291,-2.8291,-2.8291,-2.8291,-2.8291,-2.8291,-2.8291,-2.8291,-2.8291,-2.8291,-2.8291,-2.8291,-2.8291,-2.8735,-2.8735,-2.9013,-2.9874,-3.0057,-3.0273,-3.0623,-3.0938,-3.1309,-3.1839,-3.2322,-3.2909,-3.3766,-3.4098,-3.4417,-3.4836,-3.4881,-3.4881,-3.4881,-3.4691,-3.4692,-3.4882,-3.4148,-3.367,-3.3464,-3.2754,-3.2077,-3.1528,-3.0925,-3.0464,-3.0045,-2.9658,-2.9255,-2.8885,-2.871,-2.8524,-2.8373,-2.8373,-2.8373,-2.8395,-2.8812,-2.9174,-2.9487,-2.9859,-2.9977,-2.9977,-2.9977,-2.9977,-2.9977,-2.9977,-3.0102,-3.0329,-3.0532,-3.0758,-3.0982,-3.1137,-3.1181,-3.1181,-3.1258,-3.1403,-3.156,-3.1749,-3.1867,-3.1982,-3.2068,-3.2074,-3.1895,-3.1368,-3.1058,-3.0707,-2.9977,-2.9464,-2.8925,-2.8462,-2.8147,-2.7867,0.0,-2.7177,-2.689,-2.6544,-2.6159,-2.5917,-2.5742,-2.5693,-2.5752,-2.5947,-2.6221,-2.6514,-2.6807,-2.7415,-2.7777,-2.7924,-2.8144,-2.8291,-2.8291,-2.8291,-2.8291,-2.8291,-2.8291,-2.8291,-2.8291,-2.8291,-2.8291,-2.8291,-2.8291,-2.8291,-2.8291,-2.8291,-2.8291,-2.8291,-2.8291,-2.8291,-2.8291,-2.8291,-2.8291,-2.8291,-2.8498,-2.8359,-2.8473,-2.9115,-2.9422,-2.9684,-2.9801,-3.0209,-3.0681,-3.1228,-3.1698,-3.2381,-3.3292,-3.3623,-3.4,-3.4468,-3.4514,-3.4573,-3.4666,-3.4493,-3.4474,-3.4624,-3.3954,-3.3445,-3.3141,-3.2145,-3.1331,-3.0628,-2.9942,-2.9347,-2.8967,-2.8699,-2.8384,-2.8019,-2.8019,-2.7914,-2.7762,-2.7762,-2.781,-2.7999,-2.8473,-2.8842,-2.9102,-2.9154,-2.9307,-2.9448,-2.9448,-2.9385,-2.9231,-2.9231,-2.925,-2.9325,-2.9531,-2.976,-2.9977,-3.0091,-3.0125,-3.0136,-3.0227,-3.0476,-3.0713,-3.0847,-3.1205,-3.1536,-3.1581,-3.1725,-3.1741,-3.1216,-3.0914,-3.0508,-2.9811,-2.9184,-2.8649,-2.82,-2.7831,-2.7547,0.0,-2.7177,-2.689,-2.6544,-2.6245,-2.6004,-2.5732,-2.5693,-2.5693,-2.5693,-2.5996,-2.6221,-2.6387,-2.7051,-2.751,-2.7708,-2.8076,-2.8291,-2.8291,-2.8291,-2.8291,-2.8291,-2.8291,-2.8291,-2.8291,-2.8291,-2.8291,-2.8291,-2.8291,-2.8291,-2.8291,-2.8291,-2.8291,-2.8291,-2.8291,-2.8291,-2.8291,-2.8291,-2.8291,-2.8291,-2.9363,-2.9002,-2.8545,-2.8099,-2.8635,-2.9101,-2.9101,-2.9876,-3.0669,-3.1169,-3.1627,-3.2269,-3.3085,-3.3362,-3.3758,-3.4323,-3.4348,-3.4446,-3.4677,-3.4258,-3.3983,-3.3983,-3.3479,-3.2911,-3.2394,-3.1459,-3.0717,-3.0189,-2.8972,-2.8275,-2.7998,-2.7726,-2.7499,-2.7309,-2.7309,-2.7309,-2.7309,-2.733,-2.7562,-2.8028,-2.8473,-2.8659,-2.868,-2.868,-2.898,-2.9427,-2.9384,-2.9066,-2.8683,-2.8662,-2.8556,-2.838,-2.8358,-2.8524,-2.8746,-2.8678,-2.8678,-2.8735,-2.8978,-2.9255,-2.9531,-2.9988,-3.0306,-3.0566,-3.0767,-3.0812,-3.0812,-3.0812,-3.0644,-3.0295,-2.9577,-2.922,-2.871,-2.7773,-2.7594,-2.7536,-2.7309,-2.7309,-2.7071,-2.6544,-2.6245,-2.6004,-2.5732,-2.5693,-2.5693,-2.5693,-2.5693,-2.5869,-2.6338,-2.6777,-2.7207,-2.7669,-2.8066,-2.8291,-2.8291,-2.8291,-2.8291,-2.8291,-2.8291,-2.8291,-2.8291,-2.8291,-2.8291,-2.8291,-2.8291,-2.8291,-2.8291,-2.8291,-2.8291,-2.8291,-2.8291,-2.8291,-2.8291,-2.8291,-2.8291,-2.8291,-2.8817,-2.8713,-2.8598,-2.8473,-2.8951,-2.9341,-2.9341,-2.9642,-3.0024,-3.0378,-3.0815,-3.1492,-3.2421,-3.2441,-3.2757,-3.3639,-3.3419,-3.3312,-3.3595,-3.3467,-3.3485,-3.3707,-3.3045,-3.2632,-3.2487,-3.125,-3.0297,-2.9668,-2.8785,-2.8121,-2.7678,-2.7499,-2.7357,-2.7309,-2.7309,-2.7309,-2.733,-2.7614,-2.8214,-2.8959,-2.9073,-2.9332,-2.9642,-2.9642,-2.9746,-2.9755,-2.9067,-2.8734,-2.8588,-2.8234,-2.8191,-2.8237,-2.7936,-2.8008,-2.8186,-2.8175,-2.8175,-2.8175,-2.8279,-2.8477,-2.871,-2.885,-2.9174,-2.9485,-2.9566,-2.9703,-2.9795,-2.9612,-2.9371,-2.9095,-2.8757,-2.829,-2.7914,-2.7631,-2.7489,-2.7357,-2.7309,-2.7129,-2.689,-2.6544,-2.6245,-2.6004,-2.5732,-2.5693,-2.5693,-2.5693,-2.5693,-2.5732,-2.5849,-2.6611,-2.707,-2.7178,-2.79,-2.8291,-2.8291,-2.8291,-2.8291,-2.8291,-2.8291,-2.8291,-2.8291,-2.8291,-2.8291,-2.8291,-2.8291,-2.8291,-2.8291,-2.8291,-2.8291,-2.8291,-2.8291,-2.8291,-2.8291,-2.8291,-2.8291,-2.8291,-2.9218,-2.9218,-2.9156,-2.8949,-2.9337,-2.9602,-2.9402,-2.9628,-2.9931,-3.0218,-3.062,-3.12,-3.1898,-3.2023,-3.235,-3.3055,-3.2875,-3.2723,-3.2779,-3.2819,-3.2757,-3.2723,-3.2302,-3.2067,-3.1917,-3.0883,-3.0056,-2.9612,-2.8821,-2.8192,-2.7744,-2.76,-2.7448,-2.732,-2.7458,-2.7552,-2.7593,-2.8245,-2.8825,-2.9321,-2.9528,-2.9766,0.0,-2.9994,-2.9994,-2.9922,-2.9404,-2.9083,-2.8876,-2.8618,-2.8364,-2.8088,-2.7817,-2.7693,-2.7668,-2.7668,-2.7668,-2.7668,-2.7668,-2.782,-2.7925,-2.7925,-2.8102,-2.8269,-2.8269,-2.8409,-2.8502,-2.8477,-2.8326,-2.8175,-2.8055,-2.782,-2.7584,-2.7499,-2.7357,-2.7262,-2.7129,-2.6996,-2.6747,-2.6342,-2.6197,-2.6004,-2.5732,-2.5693,-2.5693,-2.5693,-2.5693,-2.5693,-2.5693,-2.6553,-2.7012,-2.7012,-2.7851,-2.8291,-2.8291,-2.8291,-2.8291,-2.8291,-2.8291,-2.8291,-2.8291,-2.8291,-2.8291,-2.8291,-2.8291,-2.8291,-2.8291,-2.8291,-2.8291,-2.8291,-2.8291,-2.8291,-2.8291,-2.8291,-2.8291,-2.8291,-3.018,-3.018,-3.0046,-2.9642,-2.9911,-3.0046,-2.9642,-2.986,-3.0182,-3.0381,-3.0842,-3.1252,-3.1519,-3.189,-3.2242,-3.2533,-3.2545,-3.2427,-3.2313,-3.2226,-3.2008,-3.1584,-3.1508,-3.1373,-3.1127,-3.0493,-2.9994,-2.9688,-2.9048,-2.8473,-2.8007,-2.8007,-2.781,-2.7506,-2.7841,-2.8048,-2.8152,-2.8959,-2.9342,-2.9435,-2.9829,-2.9994,-2.9994,-2.9942,-2.9942,-2.9942,-2.9889,-2.9684,-2.9384,-2.9321,-2.8773,-2.8079,-2.7966,-2.7655,-2.7382,-2.7282,-2.7262,-2.7262,-2.7214,-2.7214,-2.7214,-2.7214,-2.7156,-2.7098,-2.7098,-2.7098,-2.7194,-2.7394,-2.7441,-2.7441,-2.7441,-2.7441,-2.7404,-2.7214,-2.7214,-2.7119,-2.69,-2.6805,-2.6602,-2.6149,-2.6052,0.0,-2.5732,-2.5693,-2.5693,-2.5693,-2.5693,-2.5693,-2.5693,-2.6504,-2.6963,-2.7012,-2.7793,-2.8232,-2.8291,-2.8291,-2.8291,-2.8291,-2.8291,-2.8291,-2.8291,-2.8291,-2.8291,-2.8291,-2.8291,-2.8291,-2.8291,-2.8291,-2.8291,-2.8291,-2.8291,-2.8291,-2.8291,-2.8291,-2.8291,-2.8291,-3.1133,-3.1133,-3.1112,-3.1029,-3.1081,-3.1112,-3.1029,-3.076,-3.0617,-3.0617,-3.1075,-3.1501,-3.1864,-3.1701,-3.179,-3.2367,-3.2117,-3.2027,-3.2201,-3.1881,-3.1613,-3.1538,-3.1123,-3.0931,-3.0879,-3.0525,-3.0128,-2.9688,-2.9371,-2.8949,-2.8493,-2.8493,-2.8452,-2.838,-2.8462,-2.8711,-2.9073,-2.9239,-2.9528,-2.988,-2.9963,-2.9994,-2.9994,-2.9774,-2.9659,-2.9606,-2.9343,-2.9513,-2.9818,-2.9435,-2.9197,-2.8928,-2.8162,-2.7872,-2.7689,-2.7147,-2.6948,-2.6938,-2.6688,-2.664,-2.664,-2.664,-2.664,-2.663,-2.663,-2.663,-2.664,-2.6688,-2.6688,-2.6688,-2.6688,-2.6688,-2.6688,-2.664,-2.664,-2.664,-2.6602,-2.64,-2.6197,-2.6091,-2.5917,-2.5732,-2.5693,-2.5693,-2.5693,-2.5693,-2.5693,-2.5693,-2.5693,-2.6221,-2.666,-2.7002,-2.751,-2.7939,-2.8291,-2.8291,-2.8291,-2.8291,-2.8291,-2.8291,-2.8291,-2.8291,-2.8291,-2.8291,-2.8291,-2.8291,-2.8291,-2.8291,-2.8291,-2.8291,-2.8291,-2.8291,-2.8291,-2.8291,-2.8291,-2.8291,-3.1381,-3.1381,-3.1381,-3.1381,-3.1381,-3.1381,-3.1381,-3.1381,-3.1309,-3.1071,-3.1433,-3.1805,-3.1957,-3.2064,-3.2224,-3.2534,-3.2357,-3.2239,-3.2099,-3.1879,-3.1533,-3.1115,-3.0895,-3.0611,-3.037,-3.0245,-3.0078,-2.9859,-2.9715,-2.9425,-2.897,-2.897,-2.8845,-2.8628,-2.8866,-2.9228,-2.9663,-2.9663,-2.9798,-2.9994,-2.9837,-2.9774,-2.9774,-2.9448,-2.9343,-2.9343,-2.9185,-2.93,-2.9481,-2.9257,-2.9033,-2.8819,-2.833,-2.7871,-2.7443,-2.7094,-2.6881,-2.6651,-2.6544,-2.64,-2.6294,-2.6294,-2.6207,-2.6072,-2.6072,-2.6072,-2.611,-2.6255,-2.6294,-2.6352,-2.6448,-2.6496,-2.6496,-2.6496,-2.6496,-2.6448,-2.6294,-2.6197,-2.6052,-2.5917,-2.5781,-2.5693,-2.5693,-2.5693,-2.5693,-2.5693,-2.5693,-2.5693,-2.5693,-2.6152,-2.6484,-2.668,-2.7324,-2.7816,-2.7969,-2.8184,-2.8291,-2.8291,-2.8291,-2.8291,-2.8291,-2.8291,-2.8291,-2.8291,-2.8291,-2.8291,-2.8291,-2.8291,-2.8291,-2.8291,-2.8291,-2.8291,-2.8291,-2.8291,-2.8291,-2.8291,-3.1661,-3.1605,-3.1605,-3.1605,-3.155,-3.1495,-3.1495,-3.1783,-3.1911,-3.1578,-3.1909,-3.2132,-3.2132,-3.2452,-3.2669,-3.2669,-3.2669,-3.2514,-3.2153,-3.2039,-3.1667,-3.1008,-3.0791,-3.0522,-3.0149,-3.0046,-2.9994,-2.9994,-2.9994,-2.9808,-2.9446,-2.9446,-2.9259,-2.8918,-2.9229,-2.9549,-2.9889,-2.9837,-2.9837,-2.9784,-2.9554,-2.9501,-2.9448,-2.9132,-2.9026,-2.9036,-2.8973,-2.892,-2.892,-2.892,-2.8795,-2.8609,-2.8518,-2.7995,-2.7342,-2.7102,-2.6801,-2.652,-2.6382,-2.6159,-2.6004,-2.6004,-2.5868,-2.5693,-2.5693,-2.5693,-2.5781,-2.5965,-2.6004,-2.61,-2.6304,-2.6314,-2.6314,-2.6314,-2.6314,-2.6255,-2.6052,-2.6004,-2.5965,-2.5732,-2.5693,-2.5693,-2.5693,-2.5693,-2.5693,-2.5693,-2.5693,-2.5693,-2.5693,-2.6064,-2.6299,-2.6387,-2.7129,-2.762,-2.7718,-2.8086,-2.8291,-2.8291,-2.8291,-2.8291,-2.8291,-2.8291,-2.8291,-2.8291,-2.8291,-2.8291,-2.8291,-2.8291,-2.8291,-2.8291,-2.8291,-2.8291,-2.8291,-2.8291,-2.8291,-2.8291,-3.2545,-3.2364,-3.225,-3.225,-3.1954,-3.1782,-3.1782,-3.2041,-3.2204,-3.1977,-3.2328,-3.2607,-3.2607,-3.2649,-3.2669,-3.2669,-3.2669,-3.2659,-3.2607,-3.2215,-3.1946,-3.1864,-3.1122,-3.0667,-3.0626,-3.0212,-2.9994,-2.9994,-2.9994,-2.9973,-2.9932,-2.9932,-2.9911,-2.987,-2.9629,-2.9628,-2.9606,-2.929,-2.9185,-2.9185,-2.9185,-2.9132,-2.9132,-2.8834,-2.8727,-2.8727,-2.8451,-2.8398,-2.8398,-2.8398,-2.8688,-2.9001,-2.8609,-2.8428,-2.8155,-2.7142,-2.6774,-2.6616,-2.5937,-2.5781,-2.5732,-2.5732,-2.5742,-2.5693,-2.5693,-2.5693,-2.5684,-2.5732,-2.5732,-2.5732,-2.5791,-2.5781,-2.5781,-2.5781,-2.5781,-2.5791,-2.5732,-2.5732,-2.5732,-2.5693,-2.5693,-2.5693,-2.5693,-2.5693,-2.5693,-2.5693,-2.5693,-2.5693,-2.5693,-2.5732,-2.5977,-2.6377,-2.6836,-2.7266,-2.7718,-2.8086,-2.8291,-2.8291,-2.8291,-2.8291,-2.8291,-2.8291,-2.8291,-2.8291,-2.8291,-2.8291,-2.8291,-2.8291,-2.8291,-2.8291,-2.8291,-2.8291,-2.8291,-2.8291,-2.8291,-2.8291,-3.2143,-3.2076,-3.2018,-3.2018,-3.1903,-3.1787,-3.1787,-3.1903,-3.1957,-3.1899,-3.2385,-3.2669,-3.2669,-3.2669,-3.2612,-3.2487,-3.243,-3.2373,-3.2201,-3.2142,-3.203,-3.1763,-3.1581,-3.1247,-3.0698,-3.0501,-3.0274,-2.9994,-2.9994,-2.9942,-2.9774,-2.9774,-2.9669,-2.9459,-2.9343,-2.929,-2.929,-2.9185,-2.9079,-2.9079,-2.893,-2.8887,-2.8834,-2.8568,-2.8461,-2.8461,-2.8344,-2.8291,-2.8291,-2.8291,-2.8451,-2.8581,-2.8404,-2.8229,-2.7952,-2.7452,-2.6979,-2.6487,-2.6221,-2.5888,-2.5693,-2.5693,-2.5693,-2.5693,-2.5693,-2.5693,-2.5693,-2.5693,-2.5693,-2.5693,-2.5693,-2.5693,-2.5693,-2.5693,-2.5693,-2.5693,-2.5693,-2.5693,-2.5693,-2.5693,-2.5693,-2.5693,-2.5693,-2.5693,-2.5693,-2.5693,-2.5693,-2.5693,-2.5693,-2.5693,-2.5937,-2.6377,-2.6797,-2.7226,-2.7718,-2.8086,-2.8291,-2.8291,-2.8291,-2.8291,-2.8291,-2.8291,-2.8291,-2.8291,-2.8291,-2.8291,-2.8291,-2.8291,-2.8291,-2.8291,-2.8291,-2.8291,-2.8291,-2.8291,-2.8291,-2.8291,-3.218,-3.2111,-3.2063,-3.2063,-3.1946,-3.1887,-3.1887,-3.2004,-3.2013,-3.1882,-3.2279,-3.2584,-3.2451,-3.244,-3.2383,-3.219,-3.2133,-3.2076,-3.1845,-3.2018,-3.1991,-3.1665,-3.1702,-3.1394,-3.0689,-3.0535,-3.0183,-2.9732,-2.9732,-2.9617,-2.9448,-2.9448,-2.9343,-2.9079,-2.9026,-2.8983,-2.8983,-2.892,-2.8867,-2.8867,-2.8674,-2.8568,-2.8568,-2.8344,-2.8291,-2.8291,-2.8291,-2.8291,-2.8291,-2.8291,-2.8291,-2.8291,-2.8291,-2.8086,-2.7822,-2.7748,-2.7236,-2.6738,-2.6602,-2.626,-2.5928,-2.5928,-2.5781,-2.5693,-2.5693,-2.5693,-2.5693,-2.5693,-2.5693,-2.5693,-2.5693,-2.5693,-2.5693,-2.5693,-2.5693,-2.5693,-2.5693,-2.5693,-2.5693,-2.5693,-2.5693,-2.5693,-2.5693,-2.5693,-2.5693,-2.5693,-2.5693,-2.5693,-2.5693,-2.5752,-2.5907,-2.6218,-2.671,-2.7095,-2.7447,-2.781,-2.8023,-2.8023,-2.8023,-2.8023,-2.8023,-2.8023,-2.8077,-2.8184,-2.8184,-2.8237,-2.8291,-2.8291,-2.8291,-2.8291,-2.8291,-2.8291,-2.8291,-2.8291,-2.8291,-2.8291,-3.3025,-3.2845,-3.2613,-3.2613,-3.2381,-3.2219,-3.2219,-3.2442,-3.2455,-3.2038,-3.2205,-3.226,-3.1838,-3.1787,-3.1787,-3.1787,-3.1787,-3.1787,-3.1787,-3.1787,-3.1787,-3.1777,-3.1355,-3.0912,-3.0535,-3.0027,-2.9584,-2.9132,-2.9132,-2.9132,-2.9132,-2.9132,-2.9079,-2.9079,-2.8834,-2.8684,-2.8684,-2.8408,-2.8291,-2.8291,-2.8291,-2.8291,-2.8291,-2.8291,-2.8291,-2.8291,-2.8291,-2.8291,-2.8291,-2.8291,-2.8291,-2.8291,-2.8291,-2.8291,-2.8203,-2.7836,-2.7708,-2.7559,-2.7119,-2.6699,-2.6387,-2.6387,-2.6055,-2.5693,-2.5693,-2.5693,-2.5693,-2.5693,-2.5693,-2.5693,-2.5693,-2.5693,-2.5693,-2.5693,-2.5693,-2.5693,-2.5693,-2.5693,-2.5693,-2.5693,-2.5693,-2.5693,-2.5693,-2.5693,-2.5693,-2.5693,-2.5693,-2.5693,-2.5693,-2.5826,-2.5898,-2.5908,-2.6475,-2.6816,-2.6816,-2.7223,-2.7431,-2.7431,-2.7431,-2.7431,-2.7431,-2.7431,-2.7593,-2.7906,-2.7906,-2.8067,-2.8291,-2.8291,-2.8291,-2.8291,-2.8291,-2.8291,-2.8291,-2.8291,-2.8291,-2.8291,-3.2461,-3.2401,-3.234,-3.234,-3.2289,-3.2229,-3.2229,-3.2289,-3.2291,-3.2163,-3.2194,-3.2087,-3.1653,-3.1746,-3.173,-3.1498,-3.1441,-3.1392,-3.117,-3.1334,-3.1441,-3.1441,-3.1532,-3.1365,-3.0922,-3.048,-3.0037,-2.9584,-2.9283,-2.9036,-2.8834,-2.8664,-2.8558,-2.8558,-2.8461,-2.8408,-2.8408,-2.8344,-2.8291,-2.8291,-2.8291,-2.8291,-2.8291,-2.8291,-2.8291,-2.8291,-2.8291,-2.8291,-2.8291,-2.8291,-2.8291,-2.8291,-2.8291,-2.8291,-2.8262,-2.8135,-2.7891,-2.7689,-2.75,-2.7139,-2.6748,-2.6465,-2.6279,-2.6103,-2.5752,-2.5693,-2.5693,-2.5693,-2.5693,-2.5693,-2.5693,-2.5693,-2.5693,-2.5693,-2.5693,-2.5693,-2.5693,-2.5693,-2.5693,-2.5693,-2.5693,-2.5693,-2.5693,-2.5693,-2.5693,-2.5693,-2.5693,-2.5635,-2.544,-2.5727,-2.5982,-2.6117,-2.6584,-2.6958,-2.7233,-2.7365,-2.7377,-2.7377,-2.7377,-2.7377,-2.7377,-2.7377,-2.7485,-2.7593,-2.7799,-2.796,-2.8014,-2.8237,-2.8291,-2.8291,-2.8291,-2.8291,-2.8291,-2.8291,-2.8291,-2.8291,-3.2637,-3.2637,-3.2637,-3.2637,-3.2637,-3.2637,-3.2637,-3.2637,-3.2588,-3.2422,-3.2402,-3.2236,-3.1807,-3.1722,-3.1513,-3.118,-3.116,-3.1054,-3.0889,-3.1054,-3.116,-3.116,-3.1334,-3.1242,-3.0784,-3.0515,-3.0077,-2.947,-2.9033,-2.8717,-2.8568,-2.8398,-2.8291,-2.8291,-2.8291,-2.8291,-2.8291,-2.8291,-2.8291,-2.8291,-2.8291,-2.8291,-2.8291,-2.8291,-2.8291,-2.8291,-2.8291,-2.8291,-2.8291,-2.8291,-2.8291,-2.8291,-2.8291,-2.8291,-2.8291,-2.8291,-2.8105,-2.7953,-2.7953,-2.7588,-2.7197,-2.6934,-2.6748,-2.6514,-2.6074,-2.581,-2.5693,-2.5693,-2.5693,-2.5693,-2.5693,-2.5693,-2.5693,-2.5693,-2.5693,-2.5693,-2.5693,-2.5693,-2.5693,-2.5693,-2.5693,-2.5693,-2.5693,-2.5693,-2.5752,-2.5967,-2.5829,-2.5739,-2.5645,-2.5853,-2.6085,-2.6243,-2.657,-2.6864,-2.7107,-2.7116,-2.7116,-2.7116,-2.7116,-2.7116,-2.7116,-2.7116,-2.7161,-2.726,-2.7476,-2.7691,-2.7906,-2.8067,-2.8184,-2.8291,-2.8291,-2.8291,-2.8291,-2.8291,-2.8291,-2.8291,-3.3418,-3.3418,-3.3418,-3.3418,-3.3418,-3.3418,-3.3418,-3.3418,-3.3281,-3.2891,-3.2842,-3.2685,-3.2256,-3.1826,-3.1396,-3.0976,-3.0908,-3.0889,-3.0889,-3.0889,-3.0889,-3.0889,-3.0889,-3.0693,-3.0254,-3.0215,-2.9775,-2.8916,-2.8525,-2.832,-2.8291,-2.8291,-2.8291,-2.8291,-2.8291,-2.8291,-2.8291,-2.8291,-2.8291,-2.8291,-2.8291,-2.8291,-2.8291,-2.8291,-2.8291,-2.8291,-2.8291,-2.8291,-2.8291,-2.8291,-2.8291,-2.8291,-2.8291,-2.8291,-2.8291,-2.8291,-2.8291,-2.8291,-2.8291,-2.8008,-2.7748,-2.7728,-2.7344,-2.6914,-2.6523,-2.6123,-2.5771,-2.5742,-2.5732,-2.5723,-2.5693,-2.5693,-2.5693,-2.5693,-2.5693,-2.5693,-2.5693,-2.5693,-2.5693,-2.5693,-2.5693,-2.5703,-2.5732,-2.5732,-2.5918,-2.6396,-2.6106,-2.6028,-2.6191,-2.6126,-2.621,-2.6383,-2.6533,-2.6591,-2.6591,-2.6591,-2.6591,-2.6591,-2.6591,-2.6591,-2.6591,-2.6591,-2.6745,-2.6989,-2.6989,-2.7314,-2.7853,-2.7906,-2.8077,-2.8291,-2.8291,-2.8291,-2.8291,-2.8291,-2.8291,-2.8291,-3.3418,-3.3418,-3.3418,-3.3418,-3.3418,-3.3418,-3.3418,-3.3418,-3.3389,-3.3281,-3.3271,-3.3115,-3.2695,-3.2266,-3.1836,-3.1406,-3.1074,-3.0889,-3.0889,-3.0889,-3.0889,-3.0889,-3.0889,-3.084,-3.0732,-3.0371,-2.9775,-2.8916,-2.8818,-2.8603,-2.8291,-2.8291,-2.8291,-2.8291,-2.8291,-2.8291,-2.8291,-2.8291,-2.8291,-2.8291,-2.8291,-2.8291,-2.8291,-2.8291,-2.8291,-2.8291,-2.8291,-2.8291,-2.8291,-2.8291,-2.8291,-2.8291,-2.8291,-2.8291,-2.8291,-2.8291,-2.8291,-2.8291,-2.8291,-2.8223,-2.8066,-2.7796,-2.7344,-2.6992,-2.6894,-2.6787,-2.6621,-2.6299,-2.623,-2.6133,-2.5752,-2.5693,-2.5693,-2.5693,-2.5693,-2.5693,-2.5693,-2.5693,-2.5693,-2.5693,-2.5693,-2.582,-2.6201,-2.623,-2.6306,-2.6521,-2.6499,-2.6426,-2.6374,-2.6349,-2.6237,-2.6118,-2.6425,-2.6591,-2.6591,-2.6591,-2.6591,-2.6591,-2.6591,-2.6591,-2.6591,-2.6591,-2.6636,-2.6691,-2.689,-2.7098,-2.726,-2.7691,-2.796,-2.8014,-2.8237,-2.8291,-2.8291,-2.8291,-2.8291,-2.8291,-3.3418,-3.3418,-3.3418,-3.3418,-3.3418,-3.3418,-3.3418,-3.3418,-3.3418,-3.3418,-3.3418,-3.334,-3.3105,-3.2705,-3.2285,-3.1855,-3.125,-3.0889,-3.0889,-3.0889,-3.0889,-3.0889,-3.0889,-3.0889,-3.0889,-3.0644,-3.0185,-2.9502,-2.9111,-2.8809,-2.8574,-2.8389,-2.8291,-2.8291,-2.8291,-2.8291,-2.8291,-2.8291,-2.8291,-2.8291,-2.8291,-2.8291,-2.8291,-2.8291,-2.8291,-2.8291,-2.8291,-2.8291,-2.8291,-2.8291,-2.8291,-2.8291,-2.8291,-2.8291,-2.8291,-2.8291,-2.8291,-2.8291,-2.8291,-2.8291,-2.8232,-2.8008,-2.7627,-2.7314,-2.7314,-2.7158,-2.6953,-2.6728,-2.667,-2.6602,-2.6317,-2.6269,-2.6269,-2.6269,-2.6269,-2.6269,-2.6269,-2.6269,-2.6269,-2.6119,-2.6119,-2.6156,-2.6247,-2.6266,-2.6388,-2.6655,-2.6579,-2.655,-2.6698,-2.6565,-2.6404,-2.6306,-2.6472,-2.6591,-2.6591,-2.6591,-2.6591,-2.6591,-2.6591,-2.6591,-2.6591,-2.6591,-2.6591,-2.6591,-2.6736,-2.689,-2.7043,-2.7368,-2.7584,-2.7691,-2.7809,-2.7916,-2.7916,-2.7916,-2.797,-2.813,-3.3418,-3.3418,-3.3418,-3.3418,-3.3418,-3.3418,-3.3418,-3.3418,-3.3418,-3.3418,-3.3418,-3.3418,-3.3418,-3.3047,-3.2627,-3.2268,-3.1445,-3.0957,-3.0898,-3.0889,-3.0889,-3.0889,-3.0889,-3.0889,-3.0889,-3.0889,-3.0664,-3.0195,-2.9473,-2.9043,-2.8916,-2.8555,-2.8359,-2.8291,-2.8291,-2.8291,-2.8291,-2.8291,-2.8291,-2.8291,-2.8291,-2.8291,-2.8291,-2.8291,-2.8291,-2.8291,-2.8291,-2.8291,-2.8291,-2.8291,-2.8291,-2.8291,-2.8291,-2.8291,-2.8291,-2.8237,-2.8237,-2.8237,-2.8291,-2.8291,-2.8291,-2.8291,-2.8027,-2.7816,-2.7816,-2.7471,-2.7187,-2.7129,-2.7119,-2.709,-2.7021,-2.6961,-2.6961,-2.6961,-2.691,-2.6858,-2.6858,-2.6807,-2.6705,-2.649,-2.6439,-2.6313,-2.6069,-2.6079,-2.6248,-2.6723,-2.6539,-2.6572,-2.6916,-2.6745,-2.6591,-2.6591,-2.6591,-2.6591,-2.6591,-2.6591,-2.6591,-2.6591,-2.6591,-2.6591,-2.6591,-2.6591,-2.6591,-2.6591,-2.6591,-2.6736,-2.6935,-2.6989,-2.7152,-2.7323,-2.7377,-2.7377,-2.7377,-2.7377,-2.7584,-2.7906,-3.3418,-3.3418,-3.3418,-3.3418,-3.3418,-3.3418,-3.3418,-3.3418,-3.3418,-3.3418,-3.3418,-3.3418,-3.3418,-3.3047,-3.2627,-3.2268,-3.1709,-3.1269,-3.0918,-3.0889,-3.0889,-3.0889,-3.0889,-3.0889,-3.0889,-3.0889,-3.0664,-3.0195,-3.0059,-2.9629,-2.8916,-2.8848,-2.8633,-2.8291,-2.8291,-2.8291,-2.8291,-2.8291,-2.8291,-2.8291,-2.8291,-2.8291,-2.8291,-2.8291,-2.8291,-2.8291,-2.8291,-2.8291,-2.8291,-2.8291,-2.8291,-2.8291,-2.8291,-2.8291,-2.8237,-2.8014,-2.796,-2.8014,-2.8237,-2.8291,-2.8291,-2.8291,-2.8242,-2.8193,-2.8193,-2.8144,-2.7988,-2.7637,-2.7568,-2.7451,-2.708,-2.6798,-2.6644,-2.6644,-2.6439,-2.6243,-2.6243,-2.6027,-2.5872,-2.582,-2.5665,-2.5638,-2.5918,-2.5954,-2.612,-2.6589,-2.6562,-2.6599,-2.6682,-2.6636,-2.6591,-2.6591,-2.6591,-2.6591,-2.6591,-2.6591,-2.6591,-2.6591,-2.6591,-2.6591,-2.6591,-2.6591,-2.6591,-2.6591,-2.6591,-2.6636,-2.6691,-2.689,-2.7043,-2.7098,-2.7314,-2.7377,-2.7377,-2.7377,-2.7584,-2.7906,-3.3418,-3.3418,-3.3418,-3.3418,-3.3418,-3.3418,-3.3418,-3.3418,-3.3418,-3.3418,-3.3418,-3.3418,-3.3418,-3.3252,-3.2871,-3.2226,-3.1982,-3.1592,-3.0928,-3.0889,-3.0889,-3.0889,-3.0889,-3.0889,-3.0889,-3.0889,-3.0781,-3.0576,-3.0322,-2.999,-2.9609,-2.9375,-2.917,-2.8975,-2.874,-2.8633,-2.8613,-2.8389,-2.8291,-2.8291,-2.8291,-2.8291,-2.8291,-2.8291,-2.8291,-2.8291,-2.8291,-2.8291,-2.8291,-2.8291,-2.8291,-2.8291,-2.8291,-2.8184,-2.8014,-2.7691,-2.7638,-2.7647,-2.7755,-2.7809,-2.7809,-2.7809,-2.7809,-2.7809,-2.7809,-2.7809,-2.7751,-2.7559,-2.7521,-2.741,-2.705,-2.6907,-2.6686,-2.6358,-2.6199,-2.6048,-2.5888,-2.5603,-2.5389,-2.5237,-2.4967,-2.4921,-2.5269,-2.5286,-2.5584,-2.6263,-2.6336,-2.64,-2.6582,-2.6591,-2.6591,-2.6591,-2.6591,-2.6591,-2.6591,-2.6591,-2.6591,-2.6591,-2.6591,-2.6591,-2.6591,-2.6591,-2.6591,-2.6591,-2.6591,-2.6591,-2.6591,-2.6736,-2.6791,-2.6791,-2.6899,-2.6954,-2.6954,-2.6954,-2.7279,-2.7676,-3.3418,-3.3418,-3.3418,-3.3418,-3.3418,-3.3418,-3.3418,-3.3418,-3.3418,-3.3418,-3.3418,-3.3418,-3.3418,-3.3418,-3.3125,-3.2383,-3.2226,-3.1846,-3.1084,-3.0947,-3.0889,-3.0889,-3.0889,-3.0889,-3.0889,-3.0889,-3.0889,-3.0889,-3.0537,-3.0303,-3.0185,-2.9863,-2.9658,-2.956,-2.9219,-2.9072,-2.9053,-2.8721,-2.8584,-2.8584,-2.8584,-2.8584,-2.8584,-2.8584,-2.8525,-2.8437,-2.8437,-2.8379,-2.8291,-2.8291,-2.8291,-2.8291,-2.8237,-2.796,-2.7638,-2.7206,-2.6881,-2.6708,-2.6935,-2.6989,-2.6989,-2.7098,-2.7098,-2.7098,-2.7206,-2.7152,-2.7098,-2.7098,-2.7043,-2.6935,-2.6718,-2.66,-2.6318,-2.5872,-2.5588,-2.5423,-2.5165,-2.4816,-2.4522,-2.427,-2.4039,-2.3983,-2.4334,-2.4501,-2.4953,-2.5734,-2.5844,-2.6017,-2.6364,-2.6418,-2.6418,-2.6418,-2.6527,-2.6591,-2.6591,-2.6591,-2.6591,-2.6591,-2.6591,-2.6591,-2.6591,-2.6591,-2.6591,-2.6591,-2.6591,-2.6591,-2.6591,-2.6591,-2.6591,-2.6591,-2.6591,-2.6591,-2.6591,-2.6591,-2.7019,-2.7621,-3.3418,-3.3418,-3.3418,-3.3418,-3.3418,-3.3418,-3.3418,-3.3418,-3.3418,-3.3418,-3.3418,-3.3418,-3.3418,-3.3418,-3.3242,-3.2793,-3.2393,-3.1973,-3.1504,-3.1103,-3.0889,-3.0889,-3.0889,-3.0889,-3.0889,-3.0889,-3.0889,-3.0889,-3.0859,-3.0625,-3.0195,-3.0166,-2.9941,-2.9626,-2.9531,-2.9521,-2.9521,-2.9548,-2.9473,-2.9473,-2.9473,-2.9473,-2.9473,-2.9473,-2.9219,-2.8877,-2.8877,-2.8623,-2.8291,-2.8291,-2.8291,-2.8237,-2.8014,-2.753,-2.6935,-2.6391,-2.5386,-2.4714,-2.556,-2.5844,-2.5898,-2.6145,-2.62,-2.6254,-2.66,-2.6427,-2.62,-2.62,-2.5999,-2.5798,-2.5798,-2.534,-2.4953,-2.4889,-2.415,-2.3584,-2.3584,-2.3079,-2.2685,-2.2685,-2.2636,-2.2749,-2.3087,-2.3616,-2.4239,-2.4842,-2.511,-2.5395,-2.5743,-2.5798,-2.5798,-2.5798,-2.6309,-2.6591,-2.6591,-2.6591,-2.6591,-2.6591,-2.6591,-2.6591,-2.6591,-2.6591,-2.6591,-2.6591,-2.6591,-2.6591,-2.6591,-2.6591,-2.6591,-2.6591,-2.6591,-2.6591,-2.6591,-2.6591,-2.7195,-2.8074,-3.3418,-3.3418,-3.3418,-3.3418,-3.3418,-3.3418,-3.3418,-3.3418,-3.3418,-3.3418,-3.3418,-3.3418,-3.3418,-3.3418,-3.3252,-3.2832,-3.2412,-3.1982,-3.1543,-3.1123,-3.0889,-3.0889,-3.0889,-3.0889,-3.0889,-3.0889,-3.0889,-3.0889,-3.0889,-3.0801,-3.0625,-3.0625,-3.0537,-3.0371,-3.0088,-2.9961,-2.9941,-2.9734,-2.9626,-2.9626,-2.9626,-2.9626,-2.9626,-2.9626,-2.9473,-2.9316,-2.9316,-2.9219,-2.9043,-2.8571,-2.8311,-2.8045,-2.7272,-2.6654,-2.5953,-2.4787,-2.3848,-2.3287,-2.3448,-2.3999,-2.4667,-2.4927,-2.4982,-2.5093,-2.5386,-2.5212,-2.4982,-2.4982,-2.477,-2.4501,-2.4326,-2.4094,-2.3768,-2.3223,-2.2829,-2.2482,-2.2078,-2.168,-2.1395,-2.1395,-2.1224,-2.1395,-2.207,-2.2361,-2.2982,-2.4158,-2.4326,-2.4612,-2.5119,-2.5119,-2.5229,-2.5395,-2.5624,-2.5898,-2.63,-2.63,-2.6409,-2.6591,-2.6591,-2.6591,-2.6591,-2.6591,-2.6591,-2.6591,-2.6591,-2.6591,-2.6591,-2.6591,-2.6591,-2.6591,-2.6591,-2.6591,-2.6619,-2.6866,-2.7437,-2.8187,-3.3418,-3.3418,-3.3418,-3.3418,-3.3418,-3.3418,-3.3418,-3.3418,-3.3418,-3.3418,-3.3418,-3.3418,-3.3418,-3.3418,-3.331,-3.3018,-3.249,-3.2041,-3.1738,-3.1201,-3.0889,-3.0889,-3.0889,-3.0889,-3.0889,-3.0889,-3.0889,-3.0889,-3.0889,-3.083,-3.0762,-3.0762,-3.0704,-3.0577,-3.0258,-3.0055,-2.9911,-2.9632,-2.9516,-2.9403,-2.9516,-2.9573,-2.9687,-2.9801,-2.9826,-2.9766,-2.9766,-2.9631,-2.9354,-2.874,-2.8301,-2.78,-2.6893,-2.5945,-2.4885,-2.332,-2.2626,-2.223,-2.1888,-2.2441,-2.3159,-2.3664,-2.3776,-2.3832,-2.4167,-2.3999,-2.3776,-2.3776,-2.3552,-2.3271,-2.3038,-2.2813,-2.2482,-2.1881,-2.1596,-2.1246,-2.0838,-2.0493,-2.027,-2.027,-2.0213,-2.0443,-2.1117,-2.1338,-2.1964,-2.3215,-2.3432,-2.3712,-2.4231,-2.4103,-2.4214,-2.4509,-2.4492,-2.4834,-2.5505,-2.5898,-2.6245,-2.6591,-2.6591,-2.6591,-2.6591,-2.6591,-2.6527,-2.6418,-2.6418,-2.6418,-2.6309,-2.6309,-2.6364,-2.6418,-2.6418,-2.6527,-2.6637,-2.7031,-2.7642,-2.8406,-3.3418,-3.3418,-3.3418,-3.3418,-3.3418,-3.3418,-3.3418,-3.3418,-3.3418,-3.3418,-3.3418,-3.3418,-3.3418,-3.3418,-3.3418,-3.3418,-3.2656,-3.2229,-3.2219,-3.1357,-3.0889,-3.0889,-3.0889,-3.0889,-3.0889,-3.0889,-3.0889,-3.0889,-3.0889,-3.0704,-3.0382,-3.0392,-3.0216,-2.9872,-2.9872,-2.9677,-2.9362,-2.9362,-2.9263,-2.9044,-2.9253,-2.9608,-2.9922,-3.0265,-3.0296,-3.0195,-3.0205,-2.9705,-2.9076,-2.8709,-2.8201,-2.7576,-2.6955,-2.5479,-2.3688,-2.2166,-2.1732,-2.1618,-2.1268,-2.1211,-2.1439,-2.2343,-2.257,-2.2683,-2.2901,-2.2796,-2.257,-2.257,-2.2343,-2.2108,-2.2108,-2.1603,-2.1211,-2.1211,-2.0392,-1.9815,-1.9815,-1.9591,-1.9424,-1.9424,-1.9649,-1.9931,-2.027,-2.0838,-2.1467,-2.2059,-2.2312,-2.2644,-2.2958,-2.2652,-2.2644,-2.2958,-2.299,-2.3424,-2.4261,-2.5505,-2.6245,-2.6591,-2.6591,-2.6591,-2.6591,-2.6591,-2.6418,-2.6127,-2.6127,-2.5962,-2.5688,-2.5679,-2.5844,-2.6072,-2.6072,-2.63,-2.6637,-2.704,-2.7819,-2.8729,-3.3418,-3.3418,-3.3418,-3.3418,-3.3418,-3.3418,-3.3418,-3.3418,-3.3418,-3.3418,-3.3418,-3.3418,-3.3418,-3.3418,-3.3418,-3.3418,-3.2656,-3.1914,-3.1309,-3.1025,-3.0889,-3.0889,-3.0889,-3.0889,-3.0889,-3.0889,-3.0889,-3.0889,-3.0635,-3.0392,-3.0039,-2.9627,-2.9263,-2.8907,-2.865,-2.8522,-2.8403,-2.8403,-2.8343,-2.8352,-2.865,-2.8838,-2.8957,-2.949,-2.9641,-2.9655,-2.9908,-2.9706,-2.9196,-2.8385,-2.754,-2.6553,-2.5009,-2.3807,-2.2948,-2.2444,-2.2186,-2.1965,-2.1613,-2.1547,-2.1612,-2.1899,-2.1953,-2.2067,-2.2286,-2.2173,-2.1953,-2.1953,-2.1725,-2.1375,-2.1181,-2.0952,-2.073,-2.0277,-1.9989,-1.9758,-1.954,-1.9424,-1.9424,-1.9424,-1.9482,-1.9649,-1.9931,-2.0097,-2.0558,-2.1432,-2.1938,-2.2157,-2.1995,-2.193,-2.1923,-2.2021,-2.2263,-2.2772,-2.3648,-2.4667,-2.5569,-2.6245,-2.6245,-2.6354,-2.6591,-2.6591,-2.6418,-2.6072,-2.5907,-2.5624,-2.534,-2.5174,-2.5229,-2.545,-2.545,-2.5679,-2.6052,-2.6724,-2.7437,-2.8199,-3.3418,-3.3418,-3.3418,-3.3418,-3.3418,-3.3418,-3.3418,-3.3418,-3.3418,-3.3418,-3.3418,-3.3418,-3.3418,-3.3418,-3.3418,-3.3418,-3.2656,-3.1875,-3.1182,-3.0986,-3.0889,-3.0889,-3.0762,-3.0704,-3.0704,-3.0587,-3.046,-3.0284,-2.9853,-2.9499,-2.9144,-2.848,-2.8002,-2.7702,-2.7392,-2.7203,-2.7073,-2.7073,-2.6961,-2.69,-2.7332,-2.7633,-2.7804,-2.8531,-2.8957,-2.9076,-2.945,-2.9263,-2.8742,-2.7973,-2.6943,-2.5627,-2.3886,-2.3067,-2.2751,-2.2512,-2.2303,-2.214,-2.1942,-2.1891,-2.1899,-2.1876,-2.1689,-2.1554,-2.1717,-2.1603,-2.1497,-2.1497,-2.1325,-2.1089,-2.078,-2.0601,-2.0378,-1.9873,-1.97,-1.9591,-1.9424,-1.9424,-1.9424,-1.9424,-1.9424,-1.9482,-1.9649,-1.9649,-1.9931,-2.0572,-2.1081,-2.131,-2.1074,-2.0967,-2.096,-2.106,-2.1303,-2.1809,-2.2685,-2.3488,-2.4565,-2.5962,-2.6072,-2.63,-2.6591,-2.6591,-2.6364,-2.5907,-2.5514,-2.5,-2.4492,-2.4223,-2.4167,-2.4326,-2.4437,-2.4872,-2.5478,-2.6105,-2.688,-2.7739,-3.3418,-3.3418,-3.3418,-3.3418,-3.3418,-3.3418,-3.3418,-3.3418,-3.3418,-3.3418,-3.3418,-3.3418,-3.3418,-3.3418,-3.3418,-3.3418,-3.2685,-3.2041,-3.1542,-3.1123,-3.083,-3.083,-3.0479,-3.0274,-3.0216,-2.9922,-2.9677,-2.9303,-2.8719,-2.8241,-2.7891,-2.7211,-2.6727,-2.6371,-2.6075,-2.5762,-2.5448,-2.5448,-2.528,-2.505,-2.5709,-2.612,-2.6459,-2.7461,-2.8011,-2.8301,-2.8677,-2.8439,-2.784,-2.7401,-2.625,-2.474,-2.3497,-2.3094,-2.2981,-2.2465,-2.2264,-2.2257,-2.2228,-2.2228,-2.2213,-2.2191,-2.1737,-2.1298,-2.1298,-2.1298,-2.1284,-2.1262,-2.119,-2.106,-2.073,-2.0443,-2.0155,-1.9815,-1.9533,-1.9424,-1.9424,-1.9424,-1.9424,-1.9424,-1.9424,-1.9424,-1.9424,-1.9424,-1.9533,-1.9758,-2.0104,-2.0277,-2.027,-1.9982,-1.9931,-2.022,-2.0213,-2.0666,-2.1452,-2.2093,-2.3504,-2.5569,-2.5844,-2.619,-2.6537,-2.6537,-2.619,-2.5569,-2.5008,-2.4214,-2.3311,-2.3006,-2.2885,-2.2926,-2.3175,-2.3845,-2.4711,-2.5227,-2.6107,-2.7226,-3.3418,-3.3418,-3.3418,-3.3418,-3.3418,-3.3418,-3.3418,-3.3418,-3.3418,-3.3418,-3.3418,-3.3418,-3.3418,-3.3418,-3.3418,-3.3418,-3.271,-3.2111,-3.1616,-3.0942,-3.0465,-3.0234,-2.9627,-2.9035,-2.8549,-2.8975,-2.9035,-2.8719,-2.8062,-2.7573,-2.7203,-2.6302,-2.57,-2.5349,-2.4787,-2.4471,-2.4417,-2.4417,-2.4355,-2.4355,-2.4787,-2.4972,-2.5149,-2.6128,-2.6562,-2.6675,-2.7228,-2.7237,-2.6753,-2.5586,-2.4656,-2.3845,-2.3274,-2.3127,-2.3051,-2.293,-2.2908,-2.2849,-2.2593,-2.2528,-2.2469,-2.2242,-2.2081,-2.1972,-2.1972,-2.1972,-2.1898,-2.1642,-2.1402,-2.1024,-2.0485,-2.0097,-1.9815,-1.9533,-1.9424,-1.9424,-1.9424,-1.9424,-1.9424,-1.9424,-1.9424,-1.9424,-1.9424,-1.9591,-1.9758,-1.9815,-2.0104,-2.022,-1.9931,-1.9815,-1.9758,-1.9591,-1.9815,-2.0155,-2.0551,-2.1402,-2.2749,-2.4603,-2.4944,-2.534,-2.5907,-2.5907,-2.5569,-2.4953,-2.439,-2.3552,-2.2659,-2.2108,-2.1923,-2.193,-2.2245,-2.2621,-2.3107,-2.4027,-2.4671,-2.5324,-3.3418,-3.3418,-3.3418,-3.3418,-3.3418,-3.3418,-3.3418,-3.3418,-3.3418,-3.3418,-3.3418,-3.3418,-3.3418,-3.3238,-3.3038,-3.2711,-3.215,-3.1568,-3.0959,-3.0374,-2.9907,-2.954,-2.8864,-2.8225,-2.7548,-2.7436,-2.7401,-2.734,-2.6545,-2.6059,-2.5815,-2.5018,-2.4533,-2.4363,-2.386,-2.3611,-2.3611,-2.3611,-2.3611,-2.3673,-2.3984,-2.4108,-2.4232,-2.5034,-2.5402,-2.5464,-2.5892,-2.59,-2.5472,-2.4479,-2.3922,-2.3542,-2.3238,-2.3106,-2.3106,-2.3106,-2.3106,-2.3069,-2.2901,-2.2857,-2.282,-2.2659,-2.2623,-2.2542,-2.225,-2.2184,-2.2073,-2.1772,-2.155,-2.1249,-2.0621,-2.0358,-2.0128,-1.9839,-1.978,-1.978,-1.978,-1.9659,-1.9573,-1.9573,-1.9511,-1.9424,-1.9424,-1.954,-1.9591,-1.9591,-1.9764,-1.9764,-1.9649,-1.9591,-1.9533,-1.9424,-1.9533,-1.9758,-2.0046,-2.0666,-2.1623,-2.2805,-2.3704,-2.4381,-2.4834,-2.4834,-2.4556,-2.4094,-2.3376,-2.2587,-2.1809,-2.1246,-2.0989,-2.1017,-2.1299,-2.1781,-2.2386,-2.2915,-2.3513,-2.4231,-3.3418,-3.3418,-3.3418,-3.3418,-3.3418,-3.3418,-3.3418,-3.3418,-3.3418,-3.3418,-3.3355,-3.3292,-3.3238,-3.2848,-3.2339,-3.1754,-3.132,-3.0737,-3.0084,-2.96,-2.9136,-2.8687,-2.8011,-2.7354,-2.679,-2.5813,-2.5512,-2.5831,-2.4972,-2.4479,-2.4487,-2.386,-2.3611,-2.3611,-2.323,-2.3106,-2.3106,-2.3106,-2.3106,-2.3106,-2.3425,-2.3479,-2.3611,-2.417,-2.4425,-2.4487,-2.4795,-2.4734,-2.4355,-2.3798,-2.3549,-2.3479,-2.3168,-2.3106,-2.3106,-2.3106,-2.3106,-2.3106,-2.3106,-2.3106,-2.3106,-2.3106,-2.3106,-2.2974,-2.2401,-2.2284,-2.2195,-2.1821,-2.1694,-2.1438,-2.0839,-2.0651,-2.053,-2.0234,-2.0173,-2.0173,-2.0173,-2.0027,-1.9873,-1.9873,-1.9659,-1.9512,-1.9512,-1.9472,-1.9446,-1.9446,-1.9457,-1.9424,-1.9424,-1.9424,-1.9424,-1.9424,-1.9424,-1.954,-1.97,-2.004,-2.05,-2.101,-2.224,-2.3143,-2.36,-2.36,-2.3424,-2.303,-2.2297,-2.166,-2.1082,-2.052,-2.0302,-2.029,-2.0568,-2.1201,-2.1895,-2.2013,-2.257,-2.3417,-3.3418,-3.3418,-3.3418,-3.3418,-3.3418,-3.3418,-3.3418,-3.3418,-3.3418,-3.3418,-3.3175,-3.2858,-3.2549,-3.1699,-3.1046,-3.0982,-3.0346,-2.9856,-2.9457,-2.8798,-2.807,-2.74,-2.6672,-2.5977,-2.5376,-2.4692,-2.446,-2.4795,-2.4363,-2.417,-2.417,-2.3798,-2.3611,-2.3611,-2.323,-2.3106,-2.3106,-2.3106,-2.3106,-2.3106,-2.3168,-2.3168,-2.3238,-2.3604,-2.3736,-2.3798,-2.4108,-2.4046,-2.3736,-2.3611,-2.3425,-2.3175,-2.3106,-2.3106,-2.3106,-2.3106,-2.3106,-2.3106,-2.3106,-2.3106,-2.3106,-2.3106,-2.3106,-2.3029,-2.263,-2.2546,-2.2467,-2.2126,-2.1647,-2.1142,-2.0759,-2.047,-2.0234,-2.0234,-2.0173,-2.0173,-2.0173,-2.0201,-2.0174,-2.0174,-2.014,-2.0114,-2.0114,-1.9887,-1.974,-1.974,-1.9506,-1.9424,-1.9424,-1.9424,-1.9424,-1.9424,-1.9424,-1.9424,-1.9424,-1.97,-1.9924,-1.9989,-2.0493,-2.1288,-2.2361,-2.2361,-2.2184,-2.1843,-2.1452,-2.1104,-2.0721,-2.0441,-2.0264,-2.0261,-2.0577,-2.0786,-2.0949,-2.145,-2.195,-2.2362,-3.3418,-3.3418,-3.3364,-3.3175,-3.3111,-3.3111,-3.3111,-3.3111,-3.3111,-3.3111,-3.2858,-3.2412,-3.1901,-3.0714,-2.9805,-2.9356,-2.8897,-2.8427,-2.7899,-2.7562,-2.7094,-2.6557,-2.6024,-2.5581,-2.5119,-2.4607,-2.428,-2.4014,-2.3701,-2.3542,-2.3542,-2.3417,-2.3293,-2.3293,-2.3168,-2.3106,-2.3106,-2.3106,-2.3106,-2.3106,-2.3106,-2.3106,-2.3106,-2.323,-2.3293,-2.3355,-2.3479,-2.3425,-2.3293,-2.3293,-2.323,-2.3106,-2.3106,-2.3106,-2.3106,-2.3106,-2.3106,-2.3106,-2.3106,-2.3106,-2.3106,-2.3106,-2.2988,-2.2801,-2.2613,-2.2299,-2.2006,-2.1874,-2.1596,-2.1306,-2.099,-2.0784,-2.0722,-2.0722,-2.0722,-2.0722,-2.0722,-2.0581,-2.0421,-2.0193,-2.0173,-2.0173,-2.0173,-2.0114,-2.004,-2.004,-1.992,-1.9853,-1.9853,-1.9853,-1.9853,-1.9853,-1.9853,-1.9853,-1.9853,-1.9965,-2.0018,-2.0018,-2.0196,-2.0541,-2.106,-2.106,-2.1097,-2.109,-2.0813,-2.0704,-2.0686,-2.04,-2.0335,-2.0494,-2.0621,-2.0775,-2.0935,-2.1245,-2.1418,-2.1544]},{"header":{"parameterUnit":"m.s-1","parameterCategory":1,"la1":30.6,"la2":28.766,"lo1":-90.7593,"lo2":-88.6598,"dy":0.0162,"dx":0.0183,"nx":116,"ny":114,"refTime":"2024-04-26T00:00:00:Z","depth":0,"parameterNumber":3,"parameterNumberName":"V-component_of_WINDS"},"data":[0.0,0.0,0.0,0.0,0.0,0.0,0.0,0.0,0.0,0.0,0.0,0.0,0.0,0.0,0.0,0.0,0.0,0.0,0.0,0.0,0.0,0.0,0.0,0.0,0.0,0.0,0.0,0.0,0.0,0.0,0.0,0.0,0.0,0.0,0.0,0.0,0.0,0.0,0.0,0.0,0.0,0.0,0.0,0.0,0.0,0.0,0.0,0.0,0.0,0.0,0.0,0.0,0.0,0.0,0.0,0.0,0.0,0.0,0.0,0.0,0.0,0.0,0.0,0.0,0.0,0.0,0.0,0.0,0.0,0.0,0.0,0.0,0.0,0.0,0.0,0.0,0.0,0.0,0.0,0.0,0.0,0.0,0.0,0.0,0.0,0.0,0.0,0.0,0.0,0.0,0.0,0.0,0.0,0.0,0.0,0.0,0.0,0.0,0.0,0.0,0.0,0.0,0.0,0.0,0.0,0.0,0.0,0.0,0.0,0.0,0.0,0.0,0.0,0.0,0.0,0.0,0.0,0.0,0.0,0.0,0.0,0.0,0.0,0.0,0.0,0.0,0.0,0.0,0.0,0.0,0.0,0.0,0.0,0.0,0.0,0.0,0.0,0.0,0.0,0.0,0.0,0.0,0.0,0.0,0.0,0.0,0.0,0.0,0.0,0.0,0.0,0.0,0.0,0.0,0.0,0.0,0.0,0.0,0.0,0.0,0.0,0.0,0.0,0.0,0.0,0.0,0.0,0.0,0.0,0.0,0.0,0.0,0.0,0.0,0.0,0.0,0.0,0.0,0.0,0.0,0.0,0.0,0.0,0.0,0.0,0.0,0.0,0.0,0.0,0.0,0.0,0.0,0.0,0.0,0.0,0.0,0.0,0.0,0.0,0.0,0.0,0.0,0.0,0.0,0.0,0.0,0.0,0.0,0.0,0.0,0.0,0.0,0.0,0.0,0.0,0.0,0.0,0.0,0.0,0.0,0.0,0.0,0.0,0.0,0.0,0.0,0.0,0.0,0.0,0.0,0.0,0.0,0.0,0.0,0.0,0.0,0.0,0.0,0.0,0.0,0.0,0.0,0.0,0.0,0.0,0.0,0.0,0.0,0.0,0.0,0.0,0.0,0.0,0.0,0.0,0.0,0.0,0.0,0.0,0.0,0.0,0.0,0.0,0.0,0.0,0.0,0.0,0.0,0.0,0.0,0.0,0.0,0.0,0.0,0.0,0.0,0.0,0.0,0.0,0.0,0.0,0.0,0.0,0.0,0.0,0.0,0.0,0.0,0.0,0.0,0.0,0.0,0.0,0.0,0.0,0.0,0.0,0.0,0.0,0.0,0.0,0.0,0.0,0.0,0.0,0.0,0.0,0.0,0.0,0.0,0.0,0.0,0.0,0.0,0.0,0.0,0.0,0.0,0.0,0.0,0.0,0.0,0.0,0.0,0.0,0.0,0.0,0.0,0.0,0.0,0.0,0.0,0.0,0.0,0.0,0.0,0.0,0.0,0.0,0.0,0.0,0.0,0.0,0.0,0.0,0.0,0.0,0.0,0.0,0.0,0.0,0.0,0.0,0.0,0.0,0.0,0.0,0.0,0.0,0.0,0.0,0.0,0.0,0.0,0.0,0.0,0.0,0.0,0.0,0.0,0.0,0.0,0.0,0.0,0.0,0.0,0.0,0.0,0.0,0.0,0.0,0.0,0.0,0.0,0.0,0.0,0.0,0.0,0.0,0.0,0.0,0.0,0.0,0.0,0.0,0.0,0.0,0.0,0.0,0.0,0.0,0.0,0.0,0.0,0.0,0.0,0.0,0.0,0.0,0.0,0.0,0.0,0.0,0.0,0.0,0.0,0.0,0.0,0.0,0.0,0.0,0.0,0.0,0.0,0.0,0.0,0.0,0.0,0.0,0.0,0.0,0.0,0.0,0.0,0.0,0.0,0.0,0.0,0.0,0.0,0.0,0.0,0.0,0.0,0.0,0.0,0.0,0.0,0.0,0.0,0.0,0.0,0.0,0.0,0.0,0.0,0.0,0.0,0.0,0.0,0.0,0.0,0.0,0.0,0.0,0.0,0.0,0.0,0.0,0.0,0.0,0.0,0.0,0.0,0.0,0.0,0.0,0.0,0.0,0.0,0.0,0.0,0.0,0.0,0.0,0.0,0.0,0.0,0.0,0.0,0.0,0.0,0.0,0.0,0.0,0.0,0.0,0.0,0.0,0.0,0.0,0.0,0.0,0.0,0.0,0.0,0.0,0.0,0.0,0.0,0.0,0.0,0.0,0.0,0.0,0.0,0.0,0.0,0.0,0.0,0.0,0.0,0.0,0.0,0.0,0.0,0.0,0.0,0.0,0.0,0.0,0.0,0.0,0.0,0.0,0.0,0.0,0.0,0.0,0.0,0.0,0.0,0.0,0.0,0.0,0.0,0.0,0.0,0.0,0.0,0.0,0.0,0.0,0.0,0.0,0.0,0.0,0.0,0.0,0.0,0.0,0.0,0.0,0.0,0.0,0.0,0.0,0.0,0.0,0.0,0.0,0.0,0.0,0.0,0.0,0.0,0.0,0.0,0.0,0.0,0.0,0.0,0.0,0.0,0.0,0.0,0.0,0.0,0.0,0.0,0.0,0.0,0.0,0.0,0.0,0.0,0.0,0.0,0.0,0.0,0.0,0.0,0.0,0.0,0.0,0.0,0.0,0.0,0.0,0.0,0.0,0.0,0.0,0.0,0.0,0.0,0.0,0.0,0.0,0.0,0.0,0.0,0.0,0.0,0.0,0.0,0.0,0.0,0.0,0.0,0.0,0.0,0.0,0.0,0.0,0.0,0.0,0.0,0.0,0.0,0.0,0.0,0.0,0.0,0.0,0.0,0.0,0.0,0.0,0.0,0.0,0.0,0.0,0.0,0.0,0.0,0.0,0.0,0.0,0.0,0.0,0.0,0.0,0.0,0.0,0.0,0.0,0.0,0.0,0.0,0.0,0.0,0.0,0.0,0.0,0.0,0.0,0.0,0.0,0.0,0.0,0.0,0.0,0.0,0.0,0.0,0.0,0.0,0.0,0.0,0.0,0.0,0.0,0.0,0.0,0.0,0.0,0.0,0.0,0.0,0.0,0.0,0.0,0.0,0.0,0.0,0.0,0.0,0.0,0.0,0.0,0.0,0.0,0.0,0.0,0.0,0.0,0.0,0.0,0.0,0.0,0.0,0.0,0.0,0.0,0.0,0.0,0.0,0.0,0.0,0.0,0.0,0.0,0.0,0.0,0.0,0.0,0.0,0.0,0.0,0.0,0.0,0.0,0.0,0.0,0.0,0.0,0.0,0.0,0.0,0.0,0.0,0.0,0.0,0.0,0.0,0.0,0.0,0.0,0.0,0.0,0.0,0.0,0.0,0.0,0.0,0.0,0.0,0.0,0.0,0.0,0.0,0.0,0.0,0.0,0.0,0.0,0.0,0.0,0.0,0.0,0.0,0.0,0.0,0.0,0.0,0.0,0.0,0.0,0.0,0.0,0.0,0.0,0.0,0.0,0.0,0.0,0.0,0.0,0.0,0.0,0.0,0.0,0.0,0.0,0.0,0.0,0.0,0.0,0.0,0.0,0.0,0.0,0.0,0.0,0.0,0.0,0.0,0.0,0.0,0.0,0.0,0.0,0.0,0.0,0.0,0.0,0.0,0.0,0.0,0.0,0.0,0.0,0.0,0.0,0.0,0.0,0.0,0.0,0.0,0.0,0.0,0.0,0.0,0.0,0.0,0.0,0.0,0.0,0.0,0.0,0.0,0.0,0.0,0.0,0.0,0.0,0.0,0.0,0.0,0.0,0.0,0.0,0.0,0.0,0.0,0.0,0.0,0.0,0.0,0.0,0.0,0.0,0.0,0.0,0.0,0.0,0.0,0.0,0.0,0.0,0.0,0.0,0.0,0.0,0.0,0.0,0.0,0.0,0.0,0.0,0.0,0.0,0.0,0.0,0.0,0.0,0.0,0.0,0.0,0.0,0.0,0.0,0.0,0.0,0.0,0.0,0.0,0.0,0.0,0.0,0.0,0.0,0.0,0.0,0.0,0.0,0.0,0.0,0.0,0.0,0.0,0.0,0.0,0.0,0.0,0.0,0.0,0.0,0.0,0.0,0.0,0.0,0.0,0.0,0.0,0.0,0.0,0.0,0.0,0.0,0.0,0.0,0.0,0.0,0.0,0.0,0.0,0.0,0.0,0.0,0.0,0.0,0.0,0.0,0.0,0.0,0.0,0.0,0.0,0.0,0.0,0.0,0.0,0.0,0.0,0.0,0.0,0.0,0.0,0.0,0.0,0.0,0.0,0.0,0.0,0.0,0.0,0.0,0.0,0.0,0.0,0.0,0.0,0.0,0.0,0.0,0.0,0.0,0.0,0.0,0.0,0.0,0.0,0.0,0.0,0.0,0.0,0.0,0.0,0.0,0.0,0.0,0.0,0.0,0.0,0.0,0.0,0.0,0.0,0.0,0.0,0.0,0.0,0.0,0.0,0.0,0.0,0.0,0.0,0.0,0.0,0.0,0.0,0.0,0.0,0.0,0.0,0.0,0.0,0.0,0.0,0.0,0.0,0.0,0.0,0.0,0.0,0.0,0.0,0.0,0.0,0.0,0.0,0.0,0.0,0.0,0.0,0.0,0.0,0.0,0.0,0.0,0.0,0.0,0.0,0.0,0.0,0.0,0.0,0.0,0.0,0.0,0.0,0.0,0.0,0.0,0.0,0.0,0.0,0.0,0.0,0.0,0.0,0.0,0.0,0.0,0.0,0.0,0.0,0.0,0.0,0.0,0.0,0.0,0.0,0.0,0.0,0.0,0.0,0.0,0.0,0.0,0.0,0.0,0.0,0.0,0.0,0.0,0.0,0.0,0.0,0.0,0.0,0.0,0.0,0.0,0.0,0.0,0.0,0.0,0.0,0.0,0.0,0.0,0.0,0.0,0.0,0.0,0.0,0.0,0.0,0.0,0.0,0.0,0.0,0.0,0.0,0.0,0.0,0.0,0.0,0.0,0.0,0.0,0.0,0.0,0.0,0.0,0.0,0.0,0.0,0.0,0.0,0.0,0.0,0.0,0.0,0.0,0.0,0.0,0.0,0.0,0.0,0.0,0.0,0.0,0.0,0.0,0.0,0.0,0.0,0.0,0.0,0.0,0.0,0.0,0.0,0.0,0.0,0.0,0.0,0.0,0.0,0.0,0.0,0.0,0.0,0.0,0.0,0.0,0.0,0.0,0.0,0.0,0.0,0.0,0.0,0.0,0.0,0.0,0.0,0.0,0.0,0.0,0.0,0.0,0.0,0.0,0.0,0.0,0.0,0.0,0.0,0.0,0.0,0.0,0.0,0.0,0.0,0.0,0.0,0.0,0.0,0.0,0.0,0.0,0.0,0.0,0.0,0.0,0.0,0.0,0.0,0.0,0.0,0.0,0.0,0.0,0.0,0.0,0.0,0.0,0.0,0.0,0.0,0.0,0.0,0.0,0.0,0.0,0.0,0.0,0.0,0.0,0.0,0.0,0.0,0.0,0.0,0.0,0.0,0.0,0.0,0.0,0.0,0.0,0.0,0.0,0.0,0.0,0.0,0.0,0.0,0.0,0.0,0.0,0.0,0.0,0.0,0.0,0.0,0.0,0.0,0.0,0.0,0.0,0.0,0.0,0.0,0.0,0.0,0.0,0.0,0.0,0.0,0.0,0.0,0.0,0.0,0.0,0.0,0.0,0.0,0.0,0.0,0.0,0.0,0.0,0.0,0.0,0.0,0.0,0.0,0.0,0.0,0.0,0.0,0.0,0.0,0.0,0.0,0.0,0.0,0.0,0.0,0.0,0.0,0.0,0.0,0.0,0.0,0.0,0.0,0.0,0.0,0.0,0.0,0.0,0.0,0.0,0.0,0.0,0.0,0.0,0.0,0.0,0.0,0.0,0.0,0.0,0.0,0.0,0.0,0.0,0.0,0.0,0.0,0.0,0.0,0.0,0.0,0.0,0.0,0.0,0.0,0.0,0.0,0.0,0.0,0.0,0.0,0.0,0.0,0.0,0.0,0.0,0.0,0.0,0.0,0.0,0.0,0.0,0.0,0.0,0.0,0.0,0.0,0.0,0.0,2.8817,2.7977,0.0,0.0,0.0,0.0,0.0,0.0,0.0,0.0,0.0,0.0,0.0,0.0,0.0,0.0,0.0,0.0,0.0,0.0,0.0,0.0,0.0,0.0,0.0,3.815,3.8,3.7857,3.763,3.7414,3.7092,3.7053,3.7014,3.6925,3.7106,3.7169,3.7053,3.7053,3.7014,3.6936,3.6819,3.6833,3.6978,3.6256,3.5763,3.5467,0.0,0.0,0.0,0.0,0.0,0.0,0.0,0.0,0.0,0.0,0.0,0.0,0.0,0.0,0.0,0.0,0.0,0.0,0.0,0.0,0.0,0.0,0.0,0.0,0.0,0.0,0.0,0.0,0.0,0.0,0.0,0.0,0.0,0.0,0.0,0.0,0.0,0.0,0.0,0.0,0.0,0.0,0.0,0.0,0.0,0.0,0.0,0.0,0.0,0.0,0.0,0.0,0.0,0.0,0.0,0.0,0.0,0.0,0.0,0.0,0.0,0.0,0.0,0.0,0.0,0.0,0.0,0.0,0.0,0.0,3.0102,2.9268,0.0,0.0,0.0,0.0,0.0,0.0,0.0,0.0,0.0,0.0,0.0,0.0,0.0,0.0,0.0,0.0,0.0,0.0,0.0,0.0,0.0,3.7969,3.8656,3.8701,3.8679,3.8679,3.8464,3.8277,3.8075,3.8075,3.8037,3.8,3.8075,3.8075,3.8075,3.8075,3.8,3.7796,3.7796,3.7734,3.7558,3.7725,3.7429,3.6727,3.6215,0.0,0.0,0.0,0.0,0.0,0.0,0.0,0.0,0.0,0.0,0.0,0.0,0.0,0.0,0.0,0.0,0.0,0.0,0.0,0.0,0.0,0.0,0.0,0.0,0.0,0.0,0.0,0.0,0.0,0.0,0.0,0.0,0.0,0.0,0.0,0.0,0.0,0.0,0.0,0.0,0.0,0.0,0.0,0.0,0.0,0.0,0.0,0.0,0.0,0.0,0.0,0.0,0.0,0.0,0.0,0.0,0.0,0.0,0.0,0.0,0.0,0.0,0.0,3.2721,3.2771,3.2802,3.2802,3.2658,3.2357,3.1505,3.0738,3.0045,2.9589,0.0,0.0,0.0,0.0,0.0,0.0,0.0,0.0,0.0,0.0,0.0,0.0,0.0,0.0,0.0,0.0,0.0,0.0,0.0,3.7565,3.8381,3.8943,3.9265,3.9265,3.9119,3.8907,3.8671,3.8671,3.8612,3.8441,3.8775,3.887,3.8671,3.887,3.8833,3.8634,3.8634,3.8634,3.8598,3.8634,3.8598,3.8435,3.7658,3.725,3.7017,0.0,0.0,0.0,0.0,0.0,0.0,0.0,0.0,0.0,0.0,0.0,0.0,0.0,0.0,0.0,0.0,0.0,0.0,0.0,0.0,0.0,0.0,0.0,0.0,0.0,0.0,0.0,0.0,0.0,0.0,0.0,0.0,0.0,0.0,0.0,0.0,0.0,0.0,0.0,0.0,0.0,3.2995,3.2939,0.0,0.0,0.0,0.0,0.0,0.0,0.0,0.0,0.0,0.0,0.0,0.0,0.0,3.24,3.24,3.2855,3.3177,3.3343,3.3883,3.4255,3.4422,3.4422,3.4287,3.4049,3.3407,0.0,3.1071,3.0802,0.0,0.0,0.0,0.0,0.0,0.0,0.0,0.0,0.0,0.0,0.0,0.0,0.0,0.0,0.0,0.0,0.0,0.0,0.0,0.0,0.0,3.8437,3.8841,3.8841,3.9113,3.9228,3.9141,3.9235,3.9286,3.9177,3.9445,3.9553,3.9481,3.9553,3.9553,3.9466,3.9343,3.9307,3.9307,3.9177,3.9141,3.9104,3.8664,3.8127,3.7634,3.7467,0.0,0.0,0.0,0.0,0.0,0.0,0.0,0.0,0.0,0.0,0.0,0.0,0.0,0.0,0.0,0.0,0.0,0.0,0.0,0.0,0.0,0.0,0.0,0.0,0.0,0.0,0.0,0.0,0.0,0.0,0.0,0.0,0.0,0.0,0.0,0.0,0.0,0.0,0.0,3.3038,3.3124,3.3124,3.2995,3.2939,0.0,0.0,0.0,0.0,0.0,0.0,0.0,0.0,0.0,3.3239,3.3538,3.3699,3.3699,3.3936,3.4093,3.4182,3.4432,3.459,3.468,3.468,3.4635,3.4545,3.4282,3.3635,3.2705,3.1858,3.1415,3.1193,0.0,0.0,0.0,0.0,3.0791,3.088,0.0,0.0,0.0,0.0,0.0,0.0,0.0,0.0,0.0,0.0,0.0,0.0,3.7188,3.7818,3.8282,3.8447,3.8977,3.9352,3.9481,3.9661,3.9768,3.9768,3.9925,4.0011,4.0011,4.0011,4.0011,4.0011,3.9839,3.9768,3.9768,3.9625,3.9568,3.9532,3.9301,3.8797,3.8188,3.815,3.8037,3.7901,0.0,0.0,0.0,0.0,0.0,0.0,0.0,0.0,0.0,0.0,0.0,0.0,0.0,0.0,0.0,0.0,0.0,0.0,0.0,0.0,0.0,0.0,0.0,0.0,0.0,0.0,0.0,0.0,0.0,0.0,0.0,0.0,0.0,0.0,0.0,0.0,0.0,3.3124,3.3124,3.3124,3.3124,3.3124,0.0,0.0,0.0,0.0,0.0,0.0,3.3483,3.3884,3.411,3.411,3.4605,3.4818,3.468,3.5002,3.5077,3.4893,3.5077,3.514,3.514,3.514,3.514,3.514,3.4989,3.47,3.4216,3.2931,3.2299,3.2164,3.1969,3.1893,3.1893,3.1893,3.1925,3.1969,0.0,0.0,0.0,0.0,0.0,0.0,0.0,0.0,0.0,0.0,0.0,3.6558,3.674,3.7327,3.7974,3.8641,3.8886,3.9208,3.9651,3.9889,3.996,3.996,3.9996,4.0011,4.0011,4.0011,4.0011,4.0011,3.9996,3.996,3.996,3.996,3.9975,3.994,3.9568,3.9265,3.9031,3.8833,3.8745,3.8745,3.8745,0.0,0.0,0.0,0.0,0.0,0.0,0.0,0.0,0.0,0.0,0.0,0.0,0.0,0.0,0.0,0.0,0.0,0.0,0.0,0.0,0.0,0.0,0.0,0.0,0.0,0.0,0.0,0.0,0.0,0.0,0.0,0.0,0.0,0.0,0.0,0.0,0.0,0.0,3.3124,3.3124,0.0,0.0,0.0,0.0,3.3822,3.3859,3.4085,3.4568,3.4663,3.4675,3.4675,3.5169,3.5207,3.468,3.5755,3.6019,3.547,3.6031,3.6317,3.6317,3.6317,3.6317,3.6292,3.573,3.5445,3.5332,3.3973,3.3139,3.2624,3.2431,3.2344,3.2344,3.2344,3.2463,3.2624,0.0,0.0,0.0,3.4059,3.4264,3.4568,3.5049,3.5213,3.5359,3.5472,3.5714,3.5881,3.5914,3.6583,3.7131,3.7406,3.8406,3.9066,3.9223,3.9823,4.0207,4.0207,4.0277,4.0331,4.0331,4.0331,4.0331,4.0331,4.0331,4.0331,4.0331,4.0226,4.0207,4.0172,3.9889,3.9747,3.9661,3.9177,3.898,3.898,3.9141,3.9068,0.0,0.0,0.0,0.0,0.0,0.0,0.0,0.0,0.0,0.0,0.0,0.0,0.0,0.0,0.0,0.0,0.0,0.0,0.0,0.0,0.0,0.0,0.0,0.0,0.0,0.0,0.0,0.0,0.0,0.0,0.0,0.0,0.0,0.0,0.0,0.0,0.0,3.3558,3.3608,0.0,3.411,3.4135,3.4223,3.4412,3.4705,3.4994,3.5194,3.5918,3.6307,3.6307,3.6847,3.7036,3.6835,3.7224,3.7324,3.7123,3.6973,3.6885,3.6872,3.6568,3.6405,3.6405,3.6157,3.5868,3.547,3.4978,3.4277,3.3477,3.3389,3.3177,3.2865,3.2865,3.2909,3.2939,0.0,3.2846,0.0,3.3563,3.3839,3.4147,3.4587,3.4868,3.5096,3.5195,3.5261,3.5326,3.5392,3.5944,3.6388,3.6565,3.7661,3.8508,3.8963,3.9612,4.0067,4.0366,4.0455,4.0489,4.0489,4.0489,4.0489,4.0489,4.0489,4.0489,4.0489,4.0401,4.0366,4.0366,4.0172,4.0101,4.0066,3.9589,3.9358,3.9322,3.9445,3.9373,3.9177,0.0,0.0,0.0,0.0,0.0,0.0,0.0,0.0,0.0,0.0,0.0,0.0,0.0,0.0,0.0,0.0,0.0,0.0,0.0,0.0,0.0,0.0,0.0,0.0,0.0,0.0,0.0,0.0,0.0,0.0,0.0,0.0,0.0,0.0,3.3357,3.3558,3.411,3.4173,3.4399,3.4906,3.4956,3.5107,3.5529,3.5893,3.6135,3.6323,3.7061,3.7462,3.7462,3.8002,3.8203,3.8002,3.8203,3.8203,3.8002,3.7638,3.7362,3.7174,3.6857,3.6581,3.6405,3.6405,3.6157,3.5818,3.5818,3.5278,3.4412,3.4048,3.3671,3.3332,3.3187,3.3124,3.3124,0.0,3.2525,3.281,3.3199,3.3514,3.3825,3.4051,3.4399,3.4664,3.4664,3.4817,3.4968,3.5148,3.5359,3.5711,3.6309,3.6715,3.7521,3.8876,3.9169,3.9661,4.0459,4.0489,4.0489,4.0489,4.0489,4.0489,4.0489,4.0489,4.0489,4.0489,4.0489,4.0489,4.0489,4.0366,4.0312,4.0312,4.0101,3.991,3.9732,3.9717,3.9589,3.9424,0.0,0.0,0.0,0.0,0.0,0.0,0.0,0.0,0.0,0.0,0.0,0.0,0.0,0.0,0.0,0.0,0.0,0.0,0.0,0.0,0.0,0.0,0.0,0.0,0.0,0.0,0.0,0.0,0.0,0.0,0.0,0.0,0.0,3.3985,3.3966,3.4135,3.4713,3.4776,3.5002,3.5567,3.5617,3.6056,3.7184,3.7272,3.7511,3.8052,3.8052,3.8065,3.8065,3.8655,3.868,3.8065,3.8668,3.8655,3.8065,3.804,3.7751,3.7236,3.7199,3.6945,3.643,3.6417,3.6405,3.6405,3.6405,3.6056,3.542,3.4374,3.3935,3.3834,3.3307,3.3093,3.3124,3.1519,3.1753,3.1986,3.2241,3.2574,3.2903,3.3255,3.3736,3.4113,3.4235,3.4419,3.4582,3.4616,3.4754,3.4916,3.5093,3.6018,3.6929,3.7801,3.8774,3.9661,4.0459,4.0489,4.0489,4.0489,4.0489,4.0489,4.0489,4.0489,4.0489,4.0489,4.0489,4.0489,4.0489,4.047,4.047,4.0436,4.0401,4.0261,4.0121,3.9996,3.9803,3.9625,0.0,0.0,0.0,0.0,0.0,0.0,0.0,0.0,0.0,0.0,0.0,0.0,0.0,0.0,0.0,0.0,0.0,0.0,0.0,0.0,0.0,0.0,0.0,0.0,0.0,0.0,0.0,0.0,0.0,0.0,0.0,3.5392,3.5465,3.453,3.4767,3.5437,3.6386,3.6488,3.6871,3.7814,3.7903,3.8031,3.8337,3.8758,3.9064,3.9216,3.9612,3.9828,3.9828,3.9981,3.9994,3.9828,3.9779,3.9677,3.9512,3.8919,3.8555,3.8379,3.7563,3.7098,3.6935,3.6581,3.6405,3.6405,3.6405,3.6317,3.6069,3.5366,3.4555,3.3884,3.3721,3.342,3.3124,3.1099,3.1323,3.1559,3.1743,3.2023,3.2286,3.2624,3.3072,3.3409,3.3604,3.3825,3.3942,3.3942,3.4051,3.4158,3.4172,3.4946,3.5784,3.6585,3.8144,3.9268,3.9837,4.0213,4.0401,4.0401,4.0455,4.0489,4.0489,4.0797,4.0782,4.0505,4.0797,4.0782,4.0489,4.0489,4.0489,4.0489,4.0489,4.047,4.0366,4.0261,4.0051,3.9839,3.9839,3.9696,3.9517,3.9517,3.9481,3.9388,3.9388,0.0,0.0,0.0,0.0,0.0,0.0,0.0,0.0,0.0,0.0,0.0,0.0,0.0,0.0,0.0,0.0,0.0,0.0,0.0,0.0,0.0,0.0,0.0,0.0,3.67,3.7003,3.634,3.632,3.6773,3.7874,3.7934,3.8232,3.9069,3.9208,3.9248,3.9492,3.9825,4.0017,4.0017,4.0324,4.0504,4.0504,4.0504,4.0504,4.0504,4.0351,4.0287,4.0287,3.9766,3.9449,3.9196,3.8438,3.7834,3.7318,3.6943,3.6619,3.6405,3.6405,3.6405,3.6355,0.0,0.0,0.0,0.0,3.3558,3.3124,3.0874,3.1086,3.1323,3.1485,3.1706,3.189,3.2109,3.2408,3.2704,3.2917,3.3094,3.3234,3.3234,3.3346,3.3416,3.3479,3.3845,3.4481,3.5551,3.7476,3.8691,3.8895,3.9756,4.0226,4.0226,4.0366,4.0501,4.0578,4.1243,4.1274,4.0735,4.134,4.1263,4.0612,4.0536,4.0489,4.0489,4.0489,4.0489,4.0489,4.0489,4.0296,4.0031,4.0031,3.9925,3.9732,3.9717,3.9589,3.9424,3.9424,0.0,0.0,0.0,0.0,0.0,0.0,0.0,0.0,0.0,0.0,0.0,0.0,0.0,0.0,0.0,0.0,0.0,0.0,0.0,0.0,0.0,0.0,0.0,0.0,3.8364,3.8966,3.91,3.8477,3.8348,3.9316,3.9217,3.9303,3.9895,3.9947,4.0166,4.0668,4.0656,4.0656,4.0656,4.0605,0.0,0.0,0.0,4.0605,4.0605,4.0555,4.0555,4.0555,4.0504,4.0248,3.9761,3.946,3.875,3.7721,3.7417,3.692,3.6452,3.6405,3.6405,3.6355,3.5768,3.5495,3.537,3.4311,3.3583,3.3156,3.0482,3.0685,3.0874,3.1061,3.1286,3.1471,3.1683,3.2073,3.2336,3.2489,3.2704,3.281,3.281,3.2832,3.2868,3.2881,3.3374,3.4255,3.558,3.7172,3.8145,3.8351,3.9299,3.9839,3.9839,3.9996,4.0431,4.1158,4.1281,4.1643,4.2202,4.1786,4.1524,4.137,4.0751,4.0489,4.0489,4.0489,4.0489,4.0489,4.0489,4.0401,4.0242,4.0242,4.0101,3.9925,3.9768,3.9681,3.9625,3.9445,3.9388,3.9388,3.9388,3.9388,0.0,0.0,0.0,0.0,0.0,0.0,0.0,0.0,0.0,0.0,0.0,0.0,0.0,0.0,0.0,0.0,0.0,0.0,0.0,4.0294,4.058,4.1104,4.2072,4.1589,4.1025,4.0869,4.0751,4.0976,4.1558,4.1624,4.1663,4.1769,4.1597,4.1448,4.1448,4.1261,4.1174,4.1174,4.1174,4.1174,4.1174,4.0946,4.0846,4.0846,4.0605,0.0,4.0324,3.9826,3.9237,3.8559,3.7823,3.7207,3.6628,3.6452,3.6405,3.6355,3.5768,3.5495,3.537,3.4311,3.3834,3.3671,3.0228,3.0495,3.0736,3.0849,3.1024,3.1211,3.1397,3.1706,3.1963,3.2119,3.2336,3.2444,3.2444,3.2444,3.2444,3.2444,3.2881,3.3536,3.4442,3.5933,3.6909,3.7103,3.8389,3.9104,3.9104,3.9409,3.9811,4.0359,4.1098,4.1498,4.1444,4.1781,4.1618,4.1047,4.0659,4.0489,4.0489,4.0489,4.0489,4.0489,4.0489,4.047,4.0401,4.0401,4.0312,4.0137,4.0051,3.9945,3.9818,3.9625,3.9553,3.9517,3.9424,3.9388,3.9388,0.0,0.0,0.0,0.0,0.0,0.0,0.0,0.0,0.0,0.0,0.0,0.0,0.0,0.0,4.0753,4.0777,0.0,4.1747,4.1894,4.2247,4.277,4.3375,4.3306,4.2902,4.2137,4.1798,4.1759,4.2052,4.2079,4.2079,4.2079,4.198,4.1881,4.1881,4.1796,4.1696,4.1696,4.1696,4.1696,4.1696,4.1584,4.1435,4.1285,4.1147,4.106,4.0896,4.0461,4.001,3.938,3.8572,3.7865,3.733,3.6908,3.6734,3.6709,3.629,3.5873,3.5433,3.4881,3.4374,3.3859,2.9921,3.0279,3.0546,3.066,3.0849,3.1024,3.1272,3.1434,3.1633,3.1853,3.2036,3.2146,3.2218,3.2218,3.2205,3.2241,3.2503,3.281,3.3164,3.4575,3.5473,3.5783,3.7257,3.8161,3.8254,3.8649,3.9039,3.9377,4.0673,4.1066,4.0533,4.1528,4.15,4.0585,4.0447,4.0401,4.0401,4.0401,4.0436,4.047,4.047,4.0489,4.0489,4.0489,4.0436,4.0347,4.0312,4.0207,4.0031,3.9839,3.9732,3.9661,3.9517,3.9424,3.9388,3.9388,3.9388,0.0,0.0,0.0,0.0,0.0,0.0,0.0,0.0,4.0113,4.0621,4.0756,4.156,4.2253,4.2189,4.2852,4.3379,4.334,4.376,4.4136,4.4265,4.4475,4.4303,4.3499,4.2908,4.252,4.2471,4.2422,4.2373,4.2324,4.2226,4.2177,4.2226,4.2226,4.2177,4.2226,4.2275,4.2275,4.2275,4.2275,4.2141,4.1845,4.1845,4.1696,4.1461,4.1235,4.0822,4.02,3.9159,3.8422,3.7835,3.7313,3.7108,3.7155,3.6862,3.6362,3.5785,3.5579,3.4944,3.4211,2.938,2.9728,3.0062,3.0622,3.0736,3.0836,3.1235,3.131,3.1471,3.1853,3.1927,3.2,3.2182,3.2218,3.2241,3.2359,3.2417,3.2525,3.2739,3.3642,3.443,3.5013,3.6075,3.6888,3.7404,3.781,3.8426,3.9235,3.9747,4.0457,4.1265,4.1014,4.0904,4.0933,4.0325,4.0066,4.0066,4.0066,4.0172,4.0312,4.0312,4.0401,4.0489,4.0489,4.0489,4.047,4.0331,4.0277,4.0242,4.0031,3.9839,3.9696,3.9661,3.9553,3.9388,3.9388,3.9388,3.9388,3.9388,3.9388,3.9388,3.9388,3.9858,4.0292,0.0,4.0801,4.1482,4.2051,4.2677,4.3325,4.3907,4.4418,4.4949,4.5556,4.5345,4.5317,4.5842,4.5627,4.5321,4.523,4.4583,4.4068,4.3784,4.3566,4.3375,4.3163,4.2741,4.2547,4.279,4.2595,4.2547,4.279,4.279,4.279,4.279,4.279,4.2693,4.2413,4.2413,4.2253,4.2029,4.198,4.1514,4.0627,3.9094,3.8126,3.7549,3.724,3.7261,3.7413,3.7168,3.6977,3.6815,3.5869,3.542,3.5245,2.8803,2.917,2.9585,3.0088,3.0381,3.0609,3.0911,3.1061,3.1248,3.1495,3.1669,3.1743,3.1853,3.1963,3.2096,3.2264,3.23,3.2336,3.2408,3.3202,3.3919,3.4527,3.5388,3.6168,3.6758,3.707,3.7455,3.7904,3.8586,3.9126,3.9555,3.9748,3.9787,3.971,3.9442,3.9286,3.9286,3.9286,3.943,3.961,3.961,3.9788,4.0036,4.0036,4.0176,4.0401,4.0401,4.0401,0.0,4.0242,4.0137,4.0016,3.9753,3.9661,3.9553,3.9409,3.9388,3.9388,3.9388,3.9388,3.9514,3.9888,4.0187,4.0502,4.0876,4.1512,4.2066,4.2336,4.318,4.3988,4.4272,4.5102,4.5866,4.6122,4.6206,4.6314,4.658,4.6358,4.6135,4.6135,4.5866,4.5367,4.4476,4.4181,4.3946,4.3751,4.3512,4.3499,4.377,4.3757,4.3804,4.396,4.396,4.3865,4.3798,4.3798,4.3642,4.3375,4.3375,4.3136,4.2749,4.2749,4.1995,4.0653,3.9474,3.8741,3.8291,3.8187,3.8187,3.8291,3.8076,3.7815,3.7453,3.67,3.6235,3.5918,2.8139,2.8486,2.8882,2.9351,2.9677,3.0024,3.047,3.0647,3.0823,3.1011,3.1211,3.1424,3.1572,3.172,3.189,3.2036,3.2036,3.2036,3.2036,3.2612,3.3278,3.3864,3.4492,3.5173,3.5917,3.6154,3.6434,3.6758,3.7521,3.7845,3.7877,3.84,3.86,3.8486,3.8397,3.8345,3.8345,3.8345,3.8472,3.8657,3.859,3.889,3.9364,3.9307,3.9602,4.0086,4.0366,4.047,4.0489,4.0401,4.0331,4.0242,3.9874,3.9732,3.9646,3.9445,3.9388,3.9454,3.9649,3.9694,3.9843,4.0502,4.0801,4.107,4.1587,4.2201,4.2626,4.2626,4.3673,4.4586,4.4586,4.5678,4.6591,4.6591,4.6808,4.7019,4.7019,4.6902,4.6771,4.6771,4.6771,4.6403,4.5384,4.5003,4.4648,4.435,4.4209,4.4289,4.4602,4.4741,4.4879,4.5018,4.5018,4.4926,4.4769,4.4769,4.4662,4.4415,4.4415,4.4167,4.3729,4.3373,4.2457,4.1074,4.0189,3.9582,3.9295,3.922,3.922,3.9251,3.8966,3.8621,3.8213,3.7743,3.7175,3.6643,0.0,2.7701,2.7983,2.8471,2.855,2.8907,2.996,3.0113,3.019,3.0406,3.0609,3.0962,3.1535,3.1609,3.1609,3.1609,3.1609,3.1609,3.1609,3.183,3.2209,3.2802,3.3067,3.3699,3.4828,3.5118,3.5537,3.6126,3.6536,3.685,3.7017,3.724,3.7457,3.7644,3.7372,3.7242,3.7242,3.7242,3.7357,3.7544,3.7329,3.7754,3.8524,3.832,3.8734,3.9508,4.0086,4.0401,4.0489,4.0505,4.0401,4.0277,4.0066,3.9854,3.9646,3.9445,3.9388,3.9559,4.0187,4.0367,4.0531,4.119,4.1871,4.2351,4.2366,4.2836,4.326,4.326,4.4347,4.5274,4.5274,4.6367,4.7279,4.7279,4.7294,4.7309,4.7309,4.7266,4.7266,4.7266,4.7266,4.7164,4.6873,4.6195,4.5566,4.5124,4.4847,4.4801,4.5078,4.5078,4.5293,4.5732,4.5792,4.5732,4.5747,4.5747,4.5656,4.5458,4.5458,4.5293,4.5007,4.392,4.295,4.2081,4.1173,4.0551,4.0258,4.0025,4.0069,4.0215,3.9736,3.9441,3.9203,3.8953,3.8277,3.7479,0.0,0.0,2.7296,2.7592,2.7874,2.8063,2.8143,2.8791,2.9314,2.9523,2.9832,0.0,0.0,0.0,0.0,0.0,3.1035,3.0998,3.1174,3.1261,3.1611,3.2384,3.2486,3.2923,3.3842,3.3947,3.4282,3.4834,3.4981,3.533,3.5951,3.5991,3.6151,3.6336,3.6243,3.6022,3.5675,3.5675,3.5557,3.537,3.5288,3.5704,3.6296,3.6228,3.6758,3.765,0.0,3.941,4.0347,4.0191,4.0242,4.0242,3.991,3.9768,3.9646,3.9445,3.9723,4.0113,4.0337,4.0711,4.1205,4.1916,4.2231,4.2515,4.291,4.3125,4.329,4.329,4.4377,4.5289,4.5289,4.6396,4.7309,4.7309,4.7309,4.7309,4.7309,4.7309,4.7309,4.7309,4.7309,4.7251,4.7164,4.6668,4.6165,4.5851,4.5761,4.5806,4.609,4.621,4.6388,4.6506,4.6506,4.6476,4.6314,4.6314,4.6314,4.6239,4.6046,4.5664,4.5139,4.4046,4.3152,4.2437,4.151,4.1171,4.1212,4.1142,4.1184,4.1212,4.0887,4.0459,3.9924,3.9719,3.9322,3.8819,0.0,0.0,0.0,2.6592,2.6887,0.0,0.0,0.0,0.0,0.0,0.0,0.0,0.0,0.0,0.0,0.0,0.0,3.0254,3.0432,3.0545,3.0865,3.1368,3.1534,3.1963,3.2723,3.2814,3.3158,3.3821,3.3728,3.4033,3.4687,3.462,3.4701,3.4887,3.4794,3.4539,3.4228,3.4228,3.4077,3.384,3.3789,3.4146,3.4673,3.465,3.5206,0.0,3.7193,3.8341,3.9385,3.9849,4.0081,4.0137,3.9788,3.9661,3.9598,3.973,4.0068,4.0502,4.0965,4.1452,4.1931,4.2551,4.2701,4.2821,4.32,4.329,4.329,4.329,4.4197,4.502,4.5244,4.6202,4.704,4.7264,4.7309,4.7309,4.7309,4.7309,4.7309,4.7309,4.7309,4.7309,4.7309,4.7033,4.6727,4.6476,4.6432,4.6535,4.6727,4.6844,4.6931,4.7019,4.7019,4.6975,4.6858,4.6858,4.6858,4.6858,4.6432,4.5976,4.5462,4.4295,4.3454,4.2948,4.2156,4.1922,4.2075,4.2075,4.2075,4.2034,4.1841,4.1395,4.0845,4.0602,4.0329,3.9998,0.0,0.0,0.0,0.0,0.0,0.0,0.0,0.0,0.0,0.0,0.0,0.0,0.0,0.0,0.0,0.0,0.0,0.0,2.9341,2.969,2.9922,2.9922,3.0317,3.079,3.1358,3.1629,3.2149,3.2948,3.2699,3.283,3.3302,3.3106,3.3145,3.3341,3.3079,3.2935,3.2909,3.2909,3.2896,3.2856,3.2749,3.306,3.3567,3.3563,3.408,3.4934,3.6362,3.7121,3.776,3.9384,3.994,3.9925,3.9732,3.9553,3.9508,4.0202,4.0427,4.0726,4.2051,4.2425,4.259,4.314,4.329,4.329,4.329,4.329,4.329,4.329,4.3813,4.4511,4.5125,4.5813,4.6486,4.7145,4.7249,4.7264,4.7309,4.7309,4.7309,4.7309,4.7309,4.7309,4.7309,4.7309,4.7207,4.6931,4.6916,4.6916,4.6916,4.6916,4.7019,4.7309,4.7309,4.7309,4.7309,4.7309,4.7294,4.7249,4.6621,4.6164,4.5862,4.4585,4.3867,4.3658,4.3009,4.2729,4.2729,4.2729,4.2729,4.2688,4.2514,4.2281,4.2005,4.1591,4.1283,4.0901,0.0,0.0,0.0,0.0,0.0,0.0,0.0,0.0,0.0,0.0,0.0,0.0,0.0,0.0,0.0,0.0,0.0,0.0,2.8211,2.8502,2.8712,2.8897,2.9133,2.939,2.9722,2.9761,3.0193,3.0998,3.109,3.1505,3.222,3.2327,3.2367,3.2447,3.2354,3.2082,3.1655,3.1655,3.1487,3.1265,3.1236,3.1527,3.192,3.1923,3.238,3.317,3.4181,3.5249,3.6476,3.845,3.9213,3.9322,3.925,3.9337,3.9508,4.0202,4.0741,4.1347,4.2171,4.2716,4.3135,4.3245,4.329,4.329,4.329,4.329,4.329,4.329,4.3813,4.4362,4.4526,4.511,4.5783,4.6471,4.6576,4.6741,4.7234,4.7309,4.7309,4.7309,4.7309,4.7309,4.7309,4.7309,4.7266,4.7207,4.7207,4.7207,4.7207,4.7207,4.7207,4.7309,4.7309,4.7309,4.7309,4.7309,4.7055,4.6576,4.6369,4.5756,4.4743,4.44,4.3926,4.3384,4.3205,4.313,4.313,4.313,4.313,4.313,4.293,4.2714,4.247,4.2213,4.1993,4.1701,0.0,0.0,0.0,0.0,0.0,0.0,0.0,0.0,0.0,0.0,0.0,0.0,0.0,0.0,0.0,0.0,0.0,0.0,0.0,2.7632,2.7886,2.7943,2.8223,2.8383,2.8422,2.8581,2.8965,2.9509,2.972,3.0159,3.0896,3.1041,3.1198,3.1343,3.1343,3.1176,3.083,3.083,3.074,0.0,0.0,3.0761,3.1061,3.1123,3.1482,3.2104,3.3477,3.4957,3.6452,3.7618,3.8389,3.8848,3.8943,3.9297,3.9853,4.0636,4.1294,4.1991,4.2611,4.3045,4.329,4.329,4.329,4.329,4.329,4.329,4.329,4.329,4.3589,4.3932,4.4272,4.4616,4.508,4.5753,4.6127,4.6414,4.683,4.7115,4.7309,4.7309,4.7309,4.7309,4.7309,4.7309,4.7309,4.7309,4.7309,4.7309,4.7309,4.7309,4.7309,4.7309,4.7309,4.7309,4.7309,4.7309,4.698,4.6279,4.6022,4.5319,4.4302,4.4018,4.3648,4.329,4.329,4.329,4.329,4.329,4.329,4.329,4.317,4.3036,4.293,4.2729,4.2552,4.2456,0.0,0.0,0.0,0.0,0.0,0.0,0.0,0.0,0.0,2.5655,2.6146,2.6569,2.7021,2.691,0.0,0.0,0.0,0.0,0.0,0.0,2.736,2.7185,2.7539,2.762,2.7441,2.7835,2.8222,2.8491,2.8775,2.9196,2.9774,2.9863,3.007,3.0394,3.0355,3.0355,3.0394,3.0432,3.0471,3.0561,3.0548,3.0676,3.088,0.0,3.1322,3.1717,3.3647,3.5341,3.6685,3.6833,3.7558,3.8404,3.8649,3.935,4.0256,4.1152,4.1886,4.2545,4.3125,4.329,4.329,4.329,4.329,4.329,4.329,4.329,4.329,4.329,4.329,4.3469,4.4077,4.4182,4.4407,4.5065,4.5738,4.6175,4.6264,4.689,4.7309,4.7309,4.7309,4.7309,4.7309,4.7309,4.7309,4.7309,4.7309,4.7309,4.7309,4.7309,4.7309,4.7309,4.7309,4.7309,4.7309,4.7219,4.6845,4.6172,4.5499,4.4825,4.4167,4.3559,4.329,4.329,4.329,4.329,4.329,4.329,4.329,4.329,4.329,4.329,4.329,4.3115,4.3036,4.3021,0.0,0.0,0.0,0.0,0.0,0.0,0.0,0.0,0.0,2.546,2.5637,2.5832,0.0,0.0,0.0,0.0,0.0,0.0,0.0,0.0,0.0,2.6974,2.7185,2.7185,2.7015,2.7288,2.7744,2.8345,2.8987,2.963,3.0277,3.0277,3.033,3.04,3.0158,3.0199,3.04,3.0593,3.0879,3.1228,3.1417,3.1605,3.1805,3.2043,3.228,0.0,3.3991,3.4657,3.5058,3.5907,3.6861,3.7801,3.8202,3.9029,4.0083,4.1114,4.1886,4.2545,4.3125,4.329,4.329,4.329,4.329,4.329,4.329,4.329,4.329,4.329,4.329,4.3334,4.3439,4.3469,4.3678,4.4377,4.505,4.5678,4.6204,4.689,4.7309,4.7309,4.7309,4.7309,4.7309,4.7309,4.7309,4.7309,4.7309,4.7309,4.7309,4.7309,4.7309,4.7309,4.7309,4.7309,4.7309,4.677,4.6157,4.5469,4.4796,4.4137,4.3469,4.3349,4.329,4.329,4.329,4.329,4.329,4.329,4.329,4.329,4.329,4.329,4.329,4.325,4.325,4.3175,0.0,0.0,0.0,0.0,0.0,0.0,2.4694,2.4623,2.4892,2.5633,2.6062,2.6302,2.641,2.6373,2.6249,0.0,0.0,0.0,0.0,0.0,0.0,2.7474,2.7923,2.7977,2.7547,2.7741,2.8026,2.8356,0.0,2.961,3.0056,3.0056,3.0001,2.999,2.9737,2.9779,2.999,3.0241,3.0616,3.1055,3.1288,3.1574,3.1858,3.1979,3.2494,0.0,3.3833,3.4366,3.4902,3.5507,3.6151,3.69,3.7634,3.869,3.9841,4.0925,4.1771,4.2545,4.3125,4.329,4.329,4.329,4.329,4.329,4.329,4.3075,4.2821,4.2821,4.2821,4.2821,4.2821,4.3105,4.3394,4.3708,4.4347,4.502,4.5693,4.6367,4.692,4.7264,4.7309,4.7309,4.7309,4.7309,4.7309,4.7309,4.7309,4.7309,4.7309,4.7309,4.7309,4.7309,4.7309,4.7309,4.7309,4.6651,4.5978,4.5289,4.4631,4.3932,4.329,4.329,4.329,4.329,4.329,4.329,4.329,4.329,4.329,4.329,4.329,4.329,4.329,4.329,4.329,4.32,0.0,0.0,0.0,0.0,0.0,0.0,2.4793,2.4861,2.5299,2.602,2.6657,2.7075,2.7079,2.6989,2.6769,0.0,0.0,0.0,0.0,0.0,0.0,0.0,2.8866,2.8884,2.8334,0.0,0.0,2.8896,2.9421,0.0,0.0,0.0,0.0,0.0,2.9424,2.9467,2.9672,3.0046,3.0483,0.0,0.0,3.168,3.2022,0.0,0.0,0.0,0.0,3.4209,3.4908,3.5236,3.5602,3.6111,3.7148,3.8385,3.9622,4.0609,4.159,4.2515,4.2985,4.3185,4.329,4.329,4.3185,4.3135,4.3135,4.2626,4.2186,4.2186,4.2186,4.2231,4.2366,4.2776,4.3125,4.3275,4.3843,4.4541,4.52,4.5888,4.6576,4.7234,4.7309,4.7309,4.7309,4.7309,4.7309,4.7309,4.7309,4.7309,4.7309,4.7309,4.7309,4.7309,4.7309,4.7234,4.71,4.6441,4.5753,4.508,4.4421,4.3798,4.329,4.329,4.329,4.329,4.329,4.329,4.329,4.329,4.329,4.329,4.329,4.329,4.329,4.329,4.32,4.303,0.0,0.0,0.0,0.0,0.0,0.0,2.5625,2.5654,2.5949,2.6737,2.7095,2.759,2.8511,2.8382,2.8198,0.0,0.0,0.0,0.0,0.0,0.0,0.0,0.0,0.0,0.0,0.0,0.0,3.0407,3.0661,0.0,0.0,0.0,0.0,0.0,0.0,2.9636,2.992,3.0539,0.0,0.0,0.0,0.0,0.0,0.0,0.0,0.0,0.0,3.4121,3.4285,3.4908,3.5399,3.5871,3.6783,3.8063,3.9352,3.9994,4.1255,4.241,4.247,4.288,4.329,4.329,4.2895,4.2485,4.2485,4.1976,4.1512,4.1512,4.1512,4.1692,4.2291,4.2455,4.2641,4.32,4.3843,4.4541,4.52,4.5888,4.6576,4.7234,4.7309,4.7309,4.7309,4.7309,4.7309,4.7309,4.7309,4.7309,4.7309,4.7309,4.7309,4.7309,4.7309,4.7025,4.6384,4.5738,4.5065,4.4392,4.3693,4.3349,4.329,4.329,4.329,4.329,4.329,4.329,4.329,4.329,4.329,4.329,4.329,4.329,4.329,4.329,4.2955,4.2396,0.0,0.0,0.0,0.0,0.0,0.0,2.6207,2.6489,2.6935,2.7488,2.8196,2.8948,2.9796,2.9952,2.9621,2.8726,2.8692,0.0,0.0,0.0,0.0,0.0,0.0,0.0,0.0,0.0,3.0941,3.1193,3.144,0.0,0.0,0.0,0.0,0.0,0.0,2.9359,2.9931,3.0499,0.0,0.0,0.0,0.0,0.0,0.0,0.0,0.0,0.0,0.0,3.4202,3.4867,3.544,3.6031,3.69,3.7935,3.8931,3.9704,4.0546,4.1354,4.2186,4.259,4.2746,4.2746,4.259,4.2291,4.1901,4.1265,4.0786,4.0786,4.0786,4.0995,4.1692,4.2126,4.262,4.3185,4.3514,4.4092,4.5155,4.5529,4.6097,4.7174,4.7309,4.7309,4.7309,4.7309,4.7309,4.7309,4.7309,4.7309,4.7309,4.7309,4.7309,4.7309,4.7309,4.6995,4.6294,4.5648,4.496,4.4302,4.3604,4.329,4.329,4.329,4.329,4.329,4.329,4.329,4.329,4.329,4.329,4.329,4.329,4.329,4.329,4.329,4.2925,4.2306,0.0,0.0,0.0,0.0,0.0,2.7167,2.6965,2.7347,2.7773,2.8279,2.9071,2.9909,3.0634,3.096,3.0678,2.9634,2.952,0.0,0.0,0.0,0.0,0.0,0.0,0.0,0.0,3.1881,3.1925,3.1945,3.2045,3.1913,0.0,0.0,3.0306,2.9588,0.0,0.0,0.0,0.0,0.0,3.2176,0.0,0.0,0.0,0.0,0.0,0.0,0.0,0.0,0.0,0.0,0.0,3.6151,3.7017,3.7839,3.8641,3.9372,3.9988,4.0606,4.1572,4.1961,4.2111,4.2111,4.1961,4.1692,4.119,4.0591,4.0113,4.0113,4.0113,4.0307,4.0965,4.1662,4.2321,4.294,4.317,4.3678,4.484,4.517,4.5723,4.6875,4.7189,4.7309,4.7309,4.7309,4.7309,4.7309,4.7309,4.7309,4.7309,4.7309,4.7309,4.7309,4.7115,4.6696,4.6022,4.5349,4.4676,4.4018,4.3514,4.329,4.329,4.329,4.329,4.329,4.329,4.329,4.329,4.329,4.329,4.329,4.329,4.329,4.329,4.329,4.2791,4.2051,0.0,0.0,0.0,0.0,0.0,2.7998,2.7987,2.8196,2.8581,2.9035,2.9554,3.0171,3.0939,3.1184,3.1306,3.1294,3.0836,0.0,0.0,0.0,0.0,3.1649,3.1893,3.2125,3.24,3.24,3.2475,3.2667,3.2475,3.2245,3.1989,3.125,3.0556,2.9886,0.0,0.0,0.0,0.0,3.1705,3.2444,0.0,0.0,3.3124,0.0,0.0,0.0,0.0,0.0,0.0,0.0,0.0,0.0,0.0,3.7839,3.859,3.901,3.9727,4.0397,4.0412,4.0891,4.1384,4.1384,4.0905,4.0427,4.0412,3.9903,3.9388,3.9388,3.9388,3.9634,4.0292,4.095,4.1647,4.2306,4.291,4.3529,4.4227,4.4885,4.5559,4.6204,4.692,4.7309,4.7309,4.7309,4.7309,4.7309,4.7309,4.7309,4.7309,4.7309,4.7309,4.7309,4.6681,4.6007,4.5319,4.4661,4.3947,4.3305,4.329,4.329,4.329,4.329,4.329,4.329,4.329,4.329,4.329,4.329,4.329,4.329,4.329,4.329,4.329,4.329,4.2506,4.1384,0.0,0.0,0.0,0.0,0.0,0.0,2.9024,2.9187,2.9474,2.9806,3.0273,3.0736,3.1184,3.1451,3.1484,3.1306,3.1172,0.0,0.0,0.0,3.1407,3.1893,3.2125,3.2388,3.2593,3.2766,3.2909,3.2982,3.2909,3.268,3.2245,3.1649,3.1116,3.0601,3.0454,3.0589,0.0,3.1548,3.2176,3.2909,3.3038,3.3124,3.3124,0.0,0.0,0.0,0.0,0.0,0.0,0.0,0.0,0.0,0.0,0.0,0.0,3.9192,3.9486,3.9828,4.0277,4.0546,4.0711,4.0711,4.0561,4.0277,3.9828,3.9574,3.9388,3.9388,3.9388,3.9619,4.0277,4.0935,4.1632,4.2291,4.291,4.3529,4.4227,4.4885,4.5544,4.6204,4.6905,4.7309,4.7309,4.7309,4.7309,4.7309,4.7309,4.7309,4.7309,4.7309,4.7309,4.7309,4.6666,4.5992,4.5304,4.4646,4.3947,4.329,4.329,4.329,4.329,4.329,4.329,4.329,4.329,4.329,4.329,4.329,4.329,4.329,4.329,4.329,4.329,4.329,4.2791,4.2021,0.0,0.0,0.0,0.0,0.0,0.0,3.0091,3.017,3.0306,3.0499,3.0814,3.1128,3.1306,3.1528,3.1617,3.1484,3.1439,0.0,0.0,3.1261,3.1528,3.1969,3.2257,3.2562,3.2853,3.3025,3.3124,3.3124,3.3124,3.2909,3.2506,3.2101,3.1693,3.1294,3.1193,3.1339,0.0,3.2232,3.2667,3.3124,3.3124,3.3124,3.3124,0.0,0.0,0.0,0.0,0.0,0.0,0.0,0.0,0.0,0.0,0.0,0.0,0.0,3.9388,3.9514,3.9918,4.0023,4.0023,4.0023,4.0023,3.9918,3.9514,3.9388,3.9388,3.9388,3.9388,3.9544,3.9963,4.0771,4.1557,4.1961,4.2746,4.3439,4.3843,4.4721,4.5648,4.6591,4.7055,4.7309,4.7309,4.7309,4.7309,4.7309,4.7309,4.7309,4.7309,4.7309,4.7189,4.6935,4.6277,4.5603,4.493,4.4272,4.3693,4.329,4.329,4.329,4.329,4.329,4.329,4.329,4.329,4.329,0.0,4.329,4.329,4.329,4.329,4.329,4.329,4.329,4.2925,4.2336,0.0,0.0,0.0,0.0,0.0,0.0,3.1074,3.1074,3.1074,3.1074,3.1229,3.135,3.135,3.1528,3.1705,3.1705,3.1705,0.0,3.1062,3.1229,3.1516,3.1945,3.2245,3.2605,3.3038,3.3068,3.3124,3.3124,3.3124,3.2982,3.2711,3.2519,3.2288,3.2033,3.2033,3.2189,3.2475,3.2909,3.3124,3.3124,3.3124,3.3124,0.0,0.0,0.0,0.0,0.0,0.0,0.0,0.0,0.0,0.0,0.0,0.0,0.0,0.0,0.0,0.0,0.0,3.9388,3.9388,3.9388,3.9388,3.9388,3.9388,3.9388,0.0,3.9388,3.9388,3.9388,3.9388,4.0502,4.1422,4.1422,4.2476,4.329,4.329,4.4466,4.5798,4.7145,4.7309,4.7309,4.7309,4.7309,4.7309,4.7309,4.7309,4.7309,4.7309,4.7249,4.6935,4.6277,4.5589,4.493,4.4317,4.3618,4.329,4.329,4.329,4.329,4.329,4.329,4.329,4.329,4.329,4.329,4.329,4.329,4.329,4.329,4.329,4.329,4.329,4.329,4.2955,4.247,0.0,0.0,0.0,0.0,0.0,0.0,0.0,0.0,0.0,0.0,3.1584,3.1617,3.1617,3.1661,3.1705,0.0,0.0,3.1661,3.1528,3.1584,3.1661,3.1793,3.2157,3.2444,3.2562,3.2909,3.3124,3.3124,3.3124,3.3068,3.2982,3.2766,3.2593,3.2537,3.2537,3.2667,3.2952,3.3038,3.3124,3.3124,3.3124,3.3124,0.0,0.0,0.0,0.0,3.3124,3.3356,0.0,0.0,0.0,0.0,0.0,0.0,0.0,0.0,3.9388,3.9388,3.9388,0.0,3.9388,3.9388,3.9388,3.9388,0.0,3.9388,3.9388,3.9388,3.9388,3.9388,3.9388,4.0502,4.1422,4.1422,4.2476,4.329,4.329,4.4466,4.5798,4.7145,4.7309,4.7309,4.7309,4.7309,4.7309,4.7309,4.7309,4.7309,4.7309,4.683,4.6247,4.5559,4.4885,4.4466,4.4317,4.3618,4.329,4.329,4.329,4.329,4.329,4.329,4.329,4.329,4.329,4.329,4.329,4.329,4.329,4.329,4.329,4.329,4.329,4.329,4.32,4.303,0.0,0.0,0.0,0.0,0.0,0.0,0.0,0.0,0.0,0.0,3.1705,3.1705,3.1705,3.1705,3.1705,0.0,3.1705,3.1705,3.1705,3.1705,3.1749,3.1849,3.2213,3.2431,3.2562,3.2909,3.3124,3.3124,3.3124,3.3124,3.3124,3.2939,3.2896,3.2896,3.2896,3.2939,3.3124,3.3124,3.3124,3.3124,3.3124,0.0,0.0,0.0,0.0,0.0,3.3124,3.3441,0.0,3.4634,3.5669,3.6897,0.0,0.0,0.0,0.0,3.9388,3.9388,3.9388,3.9388,3.9388,3.9388,3.9388,3.9388,3.9388,3.9388,3.9388,3.9388,3.9388,3.9388,3.9388,4.0561,4.152,4.152,4.2709,4.3687,4.3853,4.4768,4.5803,4.6726,4.7115,4.7309,4.7309,4.7309,4.7309,4.7309,4.7309,4.7174,4.6875,4.6516,4.5873,4.487,4.4496,4.4167,4.3828,4.3469,4.329,4.329,4.329,4.329,4.329,4.329,4.329,4.329,4.329,4.329,4.329,4.329,4.329,4.329,4.329,4.329,4.329,4.329,4.329,4.3245,0.0,0.0,0.0,0.0,0.0,0.0,0.0,0.0,0.0,0.0,0.0,0.0,0.0,0.0,0.0,0.0,3.1705,3.1705,3.1705,3.1705,3.1761,3.195,3.2257,3.2475,3.2636,3.2939,3.3124,3.3124,3.3124,3.3124,3.3124,3.3124,3.3124,3.3124,3.3124,3.3124,3.3124,3.3124,3.3124,3.3124,3.3124,0.0,0.0,0.0,0.0,0.0,0.0,0.0,0.0,3.4799,3.587,3.7078,3.7924,0.0,0.0,0.0,0.0,0.0,3.9388,3.9388,3.9388,3.9388,3.9388,3.9388,3.9388,3.9409,3.946,3.946,3.9445,3.9496,3.9496,4.0745,4.1745,4.1745,4.3016,4.4176,4.4614,4.5238,4.5834,4.6331,4.6948,4.7352,4.7352,4.7309,4.7309,4.7309,4.7309,4.7025,4.6324,4.6175,4.5603,4.4347,4.4212,4.3858,4.3305,4.329,4.329,4.329,4.329,4.329,4.329,4.329,4.329,4.329,4.329,4.329,4.329,4.329,4.329,4.329,4.329,4.329,4.329,4.329,4.329,4.329,0.0,0.0,0.0,0.0,0.0,0.0,0.0,0.0,0.0,0.0,0.0,0.0,0.0,0.0,0.0,0.0,3.1705,3.1705,3.1705,3.1705,3.1705,3.1749,3.2169,3.2388,3.2431,3.2865,3.3124,3.3124,3.3124,3.3124,3.3124,3.3124,3.3124,3.3124,3.3124,3.3124,3.3124,3.3124,3.3124,3.3124,3.3124,0.0,0.0,0.0,0.0,0.0,0.0,0.0,0.0,3.4799,3.5963,3.7295,3.8,0.0,0.0,0.0,0.0,0.0,3.9388,3.9388,3.9388,3.9388,3.9388,3.9388,3.9388,3.9517,3.9646,3.9646,3.9783,3.9905,3.9905,4.1016,4.1947,4.1947,4.3122,4.4215,4.4843,4.5511,4.6193,4.6808,4.7289,4.7538,4.7538,4.7381,4.7309,4.7309,4.7309,4.7025,4.6324,4.5768,4.511,4.4332,4.3738,4.3394,4.329,4.329,4.329,4.329,4.329,4.329,4.329,4.329,4.329,4.329,4.329,4.329,4.329,4.329,4.329,4.329,4.329,4.329,4.329,4.329,4.329,4.329,0.0,0.0,0.0,0.0,0.0,0.0,0.0,0.0,0.0,0.0,0.0,0.0,0.0,0.0,0.0,3.1705,3.1705,3.1705,3.1705,3.1705,3.1705,3.1705,3.2169,3.24,3.24,3.2865,3.3124,3.3124,3.3124,3.3124,3.3124,3.3124,3.3124,3.3124,3.3124,3.3124,3.3124,3.3124,3.3124,3.3124,0.0,0.0,0.0,0.0,0.0,0.0,0.0,0.0,0.0,0.0,3.6096,3.7501,3.8037,0.0,0.0,0.0,0.0,0.0,3.9388,3.9388,3.9424,3.9517,3.9553,3.9553,3.9553,3.9732,3.9854,3.9854,3.9925,4.0011,4.0011,4.1197,4.245,4.328,4.3922,4.4388,4.4593,4.5178,4.5824,4.6371,4.6929,4.7416,4.7764,4.7596,4.7467,4.7467,4.7023,4.6486,4.5798,4.5125,4.4466,4.3768,4.3454,4.329,4.329,4.329,4.329,4.329,4.329,4.329,4.329,4.329,4.329,4.329,4.329,4.329,4.329,4.329,4.329,4.329,4.329,4.329,4.329,4.329,4.329,4.329,0.0,0.0,0.0,0.0,0.0,0.0,0.0,0.0,0.0,0.0,0.0,0.0,0.0,0.0,3.1705,3.1705,3.1705,3.1705,3.1705,3.1705,3.1705,3.1705,3.2169,3.24,3.24,3.2865,3.3124,3.3124,3.3124,3.3124,3.3124,3.3124,3.3124,3.3124,3.3124,3.3124,3.3124,3.3124,3.3124,3.3124,0.0,0.0,0.0,0.0,0.0,0.0,0.0,0.0,0.0,0.0,0.0,0.0,0.0,0.0,0.0,3.9388,3.9388,3.9388,3.9388,3.9409,3.9517,3.9646,3.9681,3.9717,3.9768,3.9925,4.0066,4.0066,4.0101,4.0182,4.035,4.1622,4.3039,4.4387,4.461,4.4549,4.4396,4.4955,4.5504,4.5873,4.6615,4.7274,4.7802,4.7746,4.7606,4.747,4.6761,4.6032,4.5192,4.4586,4.4003,4.3319,4.329,4.329,4.329,4.329,4.329,4.329,4.329,4.329,4.329,4.329,4.329,4.329,4.329,4.329,4.329,4.329,4.329,4.329,4.329,4.329,4.329,4.329,4.329,4.329,0.0,0.0,0.0,0.0,0.0,0.0,0.0,0.0,0.0,0.0,0.0,0.0,0.0,0.0,3.1705,3.1705,3.1705,3.1705,3.1705,3.1705,3.1705,3.1705,3.2169,3.24,3.24,3.2865,3.3124,3.3124,3.3124,3.3124,3.3124,3.3124,3.3124,3.3124,3.3124,3.3124,3.3124,3.3124,3.3124,3.3124,3.3124,0.0,0.0,0.0,0.0,0.0,0.0,0.0,0.0,0.0,0.0,0.0,0.0,0.0,3.9388,3.9388,3.9388,3.9388,3.9388,3.9553,3.9681,3.9681,3.9681,3.9768,3.9925,4.0137,4.0277,4.0277,4.0366,4.0655,4.1366,4.2602,4.3741,4.4502,4.461,4.4572,4.4587,4.5157,4.5564,4.561,4.6619,4.7308,4.7354,4.7726,4.7722,4.7088,4.6743,4.6,4.472,4.4413,4.4003,4.3319,4.329,4.329,4.329,4.329,4.329,4.329,4.329,4.329,4.329,4.329,4.329,4.329,4.329,4.329,4.329,4.329,4.329,4.329,4.329,4.329,4.329,4.329,4.329,4.329,0.0,0.0,0.0,0.0,0.0,0.0,0.0,0.0,0.0,0.0,0.0,3.1705,3.1705,0.0,3.1705,3.1705,3.1705,3.1705,3.1705,3.1705,3.1705,3.1705,3.2169,3.24,3.24,3.2865,3.3124,3.3124,3.3124,3.3124,3.3124,3.3124,3.3124,3.3124,3.3124,3.3124,3.3124,3.3124,3.3124,3.3124,3.3124,3.3124,0.0,0.0,0.0,0.0,0.0,0.0,0.0,0.0,3.6042,3.7462,3.8037,3.8738,3.9388,3.9388,3.9388,3.9388,3.9388,3.9553,3.9732,3.9854,3.998,4.0086,4.0172,4.0296,4.0436,4.0436,4.0824,4.1524,4.2617,4.327,4.3824,4.4502,4.461,4.461,4.461,4.4841,4.511,4.5541,4.5955,4.6407,4.6822,4.6895,4.6819,4.6575,4.5961,4.5329,4.464,4.4168,4.3718,4.3305,4.329,4.329,4.329,4.329,4.329,4.329,4.329,4.329,4.329,4.329,4.329,4.329,4.329,4.329,4.329,4.329,4.329,4.329,4.329,4.3384,4.3518,4.3384,4.3075,4.2731,0.0,0.0,0.0,0.0,0.0,0.0,0.0,0.0,3.1705,0.0,0.0,0.0,0.0,3.1705,3.1705,0.0,3.1705,3.1705,3.1705,3.1705,3.1705,3.1705,3.2169,3.24,3.24,3.2865,3.3124,3.3124,3.3124,3.3124,3.3124,3.3124,3.3124,3.3124,3.3124,3.3124,3.3124,3.3124,3.3124,3.3124,3.3124,3.3124,0.0,0.0,0.0,0.0,0.0,0.0,0.0,0.0,3.5923,3.7218,3.7962,3.8701,3.9301,3.9388,3.9388,3.9388,3.9388,3.9589,3.9839,3.996,4.0172,4.0366,4.0366,4.0436,4.0566,4.0782,4.1586,4.2494,4.3439,4.3778,4.4071,4.4548,4.461,4.461,4.461,4.461,4.4756,4.5218,4.5464,4.5772,4.6234,4.6361,4.6312,4.6098,4.5471,4.4908,4.4522,4.4074,4.3675,4.3423,4.3423,4.3384,4.329,4.3384,4.3423,4.3423,4.3423,4.3384,4.329,4.329,4.329,4.329,4.329,4.329,4.329,4.3384,4.3463,4.3542,4.3542,4.3621,4.3738,4.3341,4.2941,4.2558,0.0,0.0,0.0,0.0,0.0,0.0,0.0,0.0,3.1705,3.1705,3.1705,0.0,0.0,0.0,0.0,0.0,3.1705,3.1705,3.1705,3.1705,3.1705,3.1705,3.2169,3.24,3.24,3.2865,3.3124,3.3124,3.3124,3.3124,3.3124,3.3124,3.3124,3.3124,3.3124,3.3124,3.3124,3.3124,3.3124,3.3124,3.3124,3.3124,3.3124,0.0,0.0,0.0,0.0,0.0,0.0,0.0,3.5856,3.7039,3.7924,3.8598,3.9126,3.9322,3.9373,3.9373,3.9373,3.9711,4.0011,4.0011,4.0261,4.0489,4.0489,4.0489,4.0689,4.1463,4.2648,4.3608,4.3624,4.4163,4.461,4.461,4.461,4.461,4.461,4.461,4.461,4.461,4.5172,4.5572,4.5572,4.6188,4.6296,4.5634,4.5393,4.4985,4.4366,4.4089,4.391,4.3729,4.369,4.3596,4.329,4.3557,4.369,4.369,4.369,4.3557,4.329,4.329,4.329,4.329,4.329,4.329,4.3329,4.3596,4.3832,4.3988,4.3988,4.3988,4.3897,4.3244,4.2986,4.288,0.0,0.0,0.0,0.0,0.0,0.0,0.0,0.0,3.1705,3.1705,3.1705,0.0,0.0,0.0,0.0,0.0,0.0,3.1705,3.1705,3.1705,3.1705,3.1705,3.2169,3.2475,3.2593,3.3227,3.3398,3.3124,3.3124,3.3124,3.3124,3.3124,3.3124,3.3124,3.3124,3.3124,3.3124,3.3124,3.3124,3.3124,3.3124,3.3124,3.3124,0.0,0.0,0.0,0.0,0.0,0.0,0.0,0.0,0.0,3.7224,3.7629,3.7808,3.7933,3.8332,3.8691,3.8691,3.9228,3.9803,3.996,4.0172,4.0366,4.0489,4.0489,4.0828,4.2063,4.2971,4.3747,4.4225,4.4486,4.461,4.461,4.461,4.461,4.461,4.461,4.461,4.461,4.4795,4.4918,4.4918,4.5103,4.5095,4.4895,4.4841,4.4649,4.4335,4.4243,4.4127,4.391,4.391,4.3871,4.3778,4.3871,4.391,4.391,4.391,4.3793,4.3596,4.3596,4.3596,4.3596,4.3738,4.3778,4.3778,4.3871,4.4026,4.4205,4.4065,4.4104,4.4128,4.3305,4.2697,4.2196,0.0,0.0,0.0,0.0,0.0,0.0,3.1705,3.1705,3.1705,3.1705,3.1705,3.1705,0.0,0.0,0.0,3.1705,3.1705,3.1705,3.1705,3.1705,3.1761,3.1805,3.2332,3.2927,3.3471,3.3882,3.3966,3.3738,3.3484,3.3356,3.3356,3.3356,3.3313,3.324,3.324,3.3154,3.3124,3.3124,3.3124,3.3124,3.3124,3.3124,3.3124,0.0,0.0,0.0,0.0,0.0,0.0,0.0,0.0,0.0,3.6913,3.7147,3.7139,3.7351,3.7689,3.8003,3.8003,3.8637,3.934,3.9551,3.9958,4.0347,4.047,4.092,4.1601,4.2432,4.334,4.4132,4.4548,4.461,4.461,4.461,4.461,4.461,4.461,4.461,4.461,4.461,4.461,4.461,4.461,4.461,4.461,4.461,4.461,4.4549,4.4435,4.4435,4.432,4.4143,4.4127,4.4089,4.3988,4.4089,4.4127,4.4127,4.4127,4.4065,4.3949,4.3871,4.3832,4.3847,4.3949,4.4065,4.4127,4.4127,4.4243,4.4396,4.4281,4.432,4.4274,4.3242,4.2572,4.2084,0.0,0.0,3.1705,3.1705,0.0,0.0,3.1705,3.1705,3.1705,3.1705,3.1705,3.1705,0.0,0.0,0.0,3.1705,3.1705,3.1705,3.1705,3.1705,3.1849,3.2069,3.2785,3.37,3.4758,3.484,3.484,3.484,3.4134,3.3797,3.3755,3.3755,3.3683,3.3484,3.3484,3.3368,3.3154,3.3154,3.3124,3.3124,3.3124,3.3124,3.3124,3.3124,0.0,0.0,0.0,0.0,0.0,0.0,0.0,0.0,3.6718,3.6879,3.6788,3.7103,3.7236,3.733,3.733,3.7992,3.8736,3.8963,3.9653,4.0331,4.0455,4.1555,4.254,4.2602,4.3664,4.461,4.461,4.461,4.461,4.461,4.461,4.461,4.461,4.461,4.461,4.4663,4.4663,4.4663,4.461,4.461,4.461,4.461,4.461,4.461,4.461,4.461,4.4511,4.432,4.432,4.4243,4.4065,4.4243,4.432,4.432,4.432,4.432,4.432,4.4127,4.4026,4.4065,4.4065,4.4166,4.432,4.432,4.4435,4.461,4.461,4.4579,4.4363,4.3063,4.2571,4.2325,0.0,0.0,3.1705,3.1705,0.0,0.0,3.1705,3.1705,3.1705,3.1705,3.1705,3.1705,3.1705,3.1705,0.0,3.1705,3.1705,3.1761,3.195,3.1937,3.2201,3.2742,3.3927,3.4869,3.5467,3.579,3.5884,3.571,3.4881,3.4384,3.4272,3.4272,3.423,3.4189,3.4034,3.3823,3.3556,3.3398,3.324,3.3124,3.3124,3.3124,3.3124,3.3124,3.3124,0.0,0.0,0.0,0.0,0.0,0.0,0.0,3.5411,3.5418,3.5396,3.5596,3.6168,3.6686,3.6686,3.7558,3.8532,3.8929,3.9742,4.0455,4.0489,4.1186,4.1971,4.2494,4.3664,4.461,4.461,4.461,4.461,4.461,4.461,4.4663,4.4799,4.4836,4.4889,4.5055,4.5055,4.5017,4.4836,4.4836,4.4761,4.461,4.461,4.461,4.461,4.461,4.4587,4.4549,4.4549,4.4496,4.4473,4.4496,4.4549,4.4549,4.4549,4.4549,4.4549,4.432,4.432,4.4473,4.4473,4.4511,4.4549,4.4549,4.4572,4.461,4.461,4.4286,4.3732,4.2894,4.2279,4.1694,0.0,0.0,0.0,0.0,0.0,0.0,0.0,0.0,3.1705,3.1705,3.1705,3.1705,3.1705,3.1805,0.0,0.0,3.1937,3.2113,3.2332,3.2407,3.2914,3.3911,3.491,3.5736,3.6322,3.6598,3.673,3.6626,3.6177,3.5615,3.5018,3.5018,3.4977,3.4853,3.466,3.4356,3.4008,3.3683,3.3441,3.324,3.3154,3.3124,3.3124,3.3124,3.3124,3.3124,3.3124,0.0,0.0,0.0,0.0,0.0,0.0,0.0,3.4935,3.5148,3.5612,3.6013,3.6013,3.6731,3.7732,3.8743,3.9722,4.0436,4.0489,4.1078,4.1694,4.2048,4.3171,4.424,4.4548,4.461,4.461,4.461,4.461,4.4648,4.4874,4.4911,4.4964,4.5182,4.5182,4.5129,4.4911,4.4911,4.4799,4.4625,4.461,4.461,4.461,4.461,4.461,4.461,4.461,4.461,4.461,4.461,4.461,4.461,4.461,4.461,4.461,4.4496,4.4496,4.461,4.461,4.4648,4.4723,4.4723,4.4814,4.4889,4.4889,4.4471,4.3737,4.3014,4.2314,4.1604,0.0,0.0,0.0,0.0,0.0,0.0,0.0,0.0,0.0,3.1881,3.1837,3.1793,3.1793,3.1981,3.2125,0.0,0.0,0.0,3.284,3.3215,3.3911,3.5073,3.583,3.652,3.7109,3.7327,3.7457,3.738,3.738,3.694,3.6031,3.5951,3.5831,3.5669,3.544,3.5059,3.4634,3.4134,3.381,3.3569,3.3368,3.3197,3.3154,3.3197,3.3197,3.3154,3.324,3.3823,3.4551,3.4844,0.0,0.0,0.0,0.0,3.5082,3.5144,3.5326,3.5504,3.5504,3.6091,3.7076,3.8557,3.9619,4.0347,4.0436,4.0951,4.1447,4.1571,4.2648,4.3778,4.4348,4.4533,4.461,4.4663,4.4648,4.4761,4.5039,4.5077,4.5151,4.5352,4.5389,4.5315,4.5077,4.5077,4.4964,4.4739,4.4701,4.4701,4.4648,4.4648,4.4648,4.461,4.461,4.461,4.461,4.461,4.4625,4.4648,4.4701,4.4701,4.4648,4.4701,4.4663,4.461,4.4648,4.4761,4.4911,4.4986,4.5114,4.5278,4.5315,4.4763,4.3966,4.3256,4.2419,4.1608,0.0,0.0,0.0,0.0,0.0,0.0,0.0,0.0,0.0,0.0,3.2419,3.23,3.23,3.2463,3.2593,3.2593,3.3013,3.3343,3.3543,0.0,0.0,3.5588,3.6573,3.725,3.7495,3.7877,3.7991,3.7815,3.7815,3.7663,3.7341,3.6978,3.6822,3.6783,3.6322,3.603,3.5749,3.5182,3.466,3.423,3.4034,3.3738,3.3398,3.3556,3.3513,3.3398,3.3823,3.441,3.4992,3.4887,3.5399,0.0,0.0,0.0,3.5657,3.5097,3.5213,3.5504,3.5504,3.6487,3.7718,3.854,3.9514,4.0296,4.0312,4.0512,4.0812,4.1463,4.2648,4.3639,4.3732,4.4225,4.4648,4.4836,4.4874,4.5039,4.5609,4.5698,4.5792,4.6136,4.6156,4.6028,4.5735,4.5698,4.5499,4.5145,4.5129,4.5055,4.4874,4.4874,4.4761,4.461,4.461,4.461,4.461,4.461,4.4685,4.4874,4.5055,4.5055,4.4874,4.5055,4.4942,4.461,4.4799,4.4874,4.4911,4.5284,4.551,4.564,4.5687,4.4934,4.3731,4.3427,4.2438,4.1158,0.0,0.0,0.0,0.0,0.0,0.0,0.0,0.0,0.0,0.0,0.0,3.3142,3.3142,3.3356,3.3484,3.3484,3.3768,3.4105,3.4439,3.5263,3.5844,3.6098,3.6993,3.7495,3.7625,3.7976,3.8179,3.8066,3.8066,3.8028,3.7938,3.7749,3.7558,3.7303,3.7003,3.6691,3.6375,3.5843,3.5291,3.4784,3.4522,3.423,3.3979,3.4063,3.4021,3.3979,3.4314,3.4771,3.5318,3.5557,3.592,3.6207,3.5632,0.0,0.0,0.0,3.5115,3.5359,3.5472,3.6259,3.7106,3.7496,3.8595,3.9592,3.9711,4.0125,4.0582,4.094,4.1786,4.273,4.347,4.3855,4.4253,4.4812,4.4911,4.5114,4.5735,4.5848,4.6032,4.6423,4.658,4.6545,4.6262,4.6262,4.6084,4.5672,4.5526,4.5416,4.5247,4.5024,4.4874,4.4761,4.4648,4.461,4.461,4.461,4.4685,4.4911,4.5225,4.5262,4.5092,4.5373,4.5262,4.4799,4.5098,4.5342,4.5546,4.5945,4.625,4.6515,4.6636,4.6023,4.4971,4.4281,4.328,4.2208,0.0,0.0,0.0,0.0,0.0,0.0,0.0,0.0,0.0,0.0,0.0,3.405,3.405,0.0,0.0,0.0,3.4605,3.4908,3.5331,3.5804,3.6204,3.6484,3.7201,3.7625,3.7625,3.7976,3.8202,3.8202,3.8202,3.8202,3.8202,3.8202,3.8052,3.7725,3.7534,3.7303,3.6978,3.652,3.6004,3.5467,3.5196,3.4922,3.4647,3.4729,3.4688,3.4688,3.4922,3.5304,3.5723,3.6282,3.6564,3.658,3.6337,3.6062,0.0,0.0,0.0,3.5326,3.5472,3.5983,3.651,3.6631,3.7673,3.8766,3.9154,3.9719,4.0255,4.0459,4.0955,4.1678,4.2848,4.3377,4.3852,4.4586,4.4893,4.5225,4.59,4.614,4.6391,4.6842,4.7048,4.7082,4.6911,4.686,4.6722,4.6391,4.6163,4.5965,4.578,4.5416,4.512,4.5061,4.4852,4.4739,4.4739,4.4852,4.4986,4.5194,4.5599,4.5687,4.5557,4.5905,4.5817,4.54,4.5599,4.5873,4.6179,4.6601,4.6981,4.7321,4.7471,4.7029,4.6159,4.5097,4.4155,4.3298,0.0,0.0,0.0,0.0,0.0,0.0,0.0,0.0,0.0,0.0,0.0,3.495,3.495,3.5182,3.5318,3.5318,3.5521,3.5764,3.6032,3.6246,3.6484,3.6682,3.7278,0.0,3.7625,3.7976,3.8202,3.8202,3.8202,3.8202,3.8202,3.8202,3.8202,3.8165,3.7967,3.7853,3.7815,3.7419,3.6978,3.6587,3.6308,3.5884,3.5358,3.5562,3.5507,3.5399,3.579,3.6098,3.6431,3.6836,3.7197,3.7453,3.7063,3.6758,3.6474,0.0,0.0,0.0,3.5504,3.5983,3.6492,3.651,3.7154,3.7986,3.8812,3.9215,3.9566,4.0332,4.052,4.0782,4.1555,4.2725,4.3735,4.4164,4.4762,4.5499,4.6423,4.6738,4.7048,4.7571,4.782,4.7853,4.7671,4.7638,4.7571,4.7337,4.7152,4.6878,4.6547,4.6143,4.5801,4.5468,4.5278,4.5182,4.5182,4.5552,4.5812,4.5965,4.6372,4.6547,4.6512,4.6738,4.6791,4.6673,4.6391,4.6372,4.6617,4.7134,4.7572,4.7869,4.7951,4.752,4.6727,4.5634,4.4705,4.3844,0.0,0.0,0.0,0.0,0.0,0.0,0.0,0.0,0.0,0.0,0.0,0.0,0.0,3.6045,3.6018,3.6018,3.6112,3.6192,3.6286,3.6484,3.6668,3.6875,3.7356,3.7663,3.7777,3.8066,3.8202,3.8202,3.8202,3.8202,3.8202,3.8202,3.8202,3.8202,3.8127,3.8028,3.7891,3.7739,3.7457,3.707,3.6964,3.673,3.6429,3.6508,3.6429,3.627,3.6547,3.6615,3.6668,3.7201,3.7457,3.7548,3.7269,3.6838,3.6254,3.5482,3.5292,3.5326,3.5472,3.5684,3.5863,3.5863,3.646,3.7258,3.8005,3.8743,3.9486,4.0228,4.0436,4.0566,4.0863,4.1754,4.2844,4.4013,4.4595,4.5274,4.6448,4.6963,4.7387,4.7853,4.8147,4.8292,4.8227,4.8227,4.8114,4.7918,4.7737,4.7455,4.7134,4.6724,4.6426,4.6195,4.5997,4.5925,4.5925,4.6191,4.6372,4.6515,4.6913,4.71,4.7134,4.7471,4.7538,4.7371,4.7471,4.7505,4.7455,4.7902,4.8243,4.85,4.8595,4.8444,4.8015,4.6995,4.6092,4.5239,0.0,0.0,0.0,3.7558,0.0,3.7404,3.7495,3.738,3.7264,3.7226,0.0,0.0,0.0,0.0,3.6747,3.6615,3.6549,3.6524,3.6524,3.6707,3.6889,3.7109,3.7495,3.7777,3.7891,3.8104,3.8202,3.8202,3.8202,3.8202,3.8202,3.8202,3.8202,3.8202,3.8202,3.8142,3.8005,3.8005,3.7801,3.7495,3.7495,3.738,3.7187,3.7187,3.7109,3.7017,3.7148,3.7123,3.706,3.7548,3.7701,3.7706,3.7626,3.7048,3.6239,3.5467,3.5211,3.5261,3.5439,3.5504,3.5504,3.5504,3.5902,3.6466,3.721,3.8091,3.8979,3.9803,4.0213,4.047,4.0489,4.1067,4.2008,4.3372,4.4276,4.5177,4.6284,4.7089,4.7721,4.8115,4.8468,4.8673,4.8673,4.8673,4.861,4.8483,4.8307,4.8081,4.777,4.7388,4.7084,4.686,4.6756,4.6671,4.6671,4.686,4.7032,4.7169,4.7505,4.7704,4.7787,4.8049,4.8115,4.8065,4.8292,4.8292,4.8146,4.8452,4.8707,4.8863,4.8987,4.8956,4.8779,4.7849,4.7139,4.648,3.8202,3.8202,3.8202,3.8202,3.8202,3.8127,3.7929,3.7891,3.7853,3.7649,0.0,0.0,0.0,0.0,0.0,3.707,3.685,3.6721,3.6721,3.6929,3.7109,3.7303,3.7701,3.7891,3.7891,3.8104,3.8202,3.8202,3.8202,3.8202,3.8202,3.8202,3.8202,3.8202,3.8202,3.8202,3.8202,3.8202,3.8104,3.7891,3.7891,3.7777,3.7625,3.7625,3.761,3.7625,3.7625,3.7625,3.7625,3.7815,3.7891,3.7929,3.8113,3.7441,3.6517,3.6031,3.5585,3.5261,0.0,0.0,0.0,3.5504,3.5504,3.5701,3.6499,3.7195,3.7975,3.9062,3.9822,4.0316,4.0455,4.083,4.1388,4.2234,4.3822,4.5229,4.5992,4.7128,4.8048,4.8452,4.8815,4.9001,4.9001,4.9001,4.9001,4.9001,4.8894,4.8707,4.8515,4.8129,4.777,4.7438,4.7438,4.7438,4.7438,4.7638,4.7787,4.7934,4.8114,4.8324,4.8515,4.8515,4.8627,4.8818,4.8818,4.8707,4.8515,4.8738,4.8894,4.9001,4.9001,4.9001,4.8886,4.8037,4.7737,4.7487,3.8202,3.8202,3.8202,3.8202,3.8202,3.8165,3.8142,3.8142,3.8104,0.0,0.0,0.0,3.7815,3.7701,3.7572,3.7419,3.738,3.7356,3.7356,3.738,3.7495,3.7739,3.7853,3.7967,3.8089,3.8165,3.8202,3.8202,3.8202,3.8202,3.8202,3.8202,3.8202,3.8202,3.8202,3.8202,3.8202,3.8202,3.8165,3.8142,3.8142,3.8089,3.8014,3.8014,3.7953,3.7815,3.7815,3.7739,3.7625,3.7815,3.7891,3.7857,3.762,3.7092,3.6517,3.6031,3.5585,3.5261,3.5439,0.0,0.0,0.0,0.0,0.0,3.6379,3.6782,3.7334,3.8599,3.9234,3.973,4.0255,4.0761,4.1265,4.1757,4.3099,4.4592,4.6094,4.7025,4.7835,4.8608,4.8877,4.9001,4.9001,4.9001,4.9001,4.9001,4.8987,4.8894,4.8738,4.8483,4.8275,4.8211,4.8211,4.8211,4.8211,4.826,4.8356,4.8564,4.8612,4.869,4.8877,4.8877,4.8877,4.894,4.894,4.8909,4.8877,4.8909,4.8987,4.9001,4.9001,4.9001,4.8984,4.8751,4.8298,4.7791,3.8202,3.8202,3.8202,3.8202,3.8202,3.8202,3.8202,3.8202,3.8202,0.0,0.0,0.0,3.8028,3.7853,3.7739,3.7739,3.7663,3.7625,3.7625,3.7701,3.7777,3.7891,3.7967,3.8066,3.8202,3.8202,3.8202,3.8202,3.8202,3.8202,3.8202,3.8202,3.8202,3.8202,3.8202,3.8202,3.8202,3.8202,3.8202,3.8202,3.8202,3.8202,3.8202,3.8202,3.8142,3.8028,3.8028,3.7953,3.7877,3.7991,3.8028,3.7971,3.7759,3.7376,3.6913,3.6413,3.595,3.5603,3.5514,3.5504,3.5504,3.5504,0.0,0.0,3.5983,3.6367,3.6857,3.7692,3.8516,3.9219,3.9772,4.0492,4.112,4.1522,4.2591,4.3894,4.5388,4.6433,4.7334,4.8214,4.8453,4.8663,4.8968,4.9001,4.9001,4.9001,4.9001,4.8987,4.8894,4.8784,4.8704,4.8704,4.8704,4.8704,4.8704,4.8704,4.8784,4.8894,4.8894,4.8909,4.9001,4.9001,4.9001,4.9001,4.9001,4.9001,4.9001,4.9001,4.9001,4.9001,4.9001,4.9001,4.9001,4.9001,4.8731,4.8294,0.0,3.8202,3.8202,3.8202,3.8202,3.8202,3.8202,3.8202,3.8202,0.0,3.8202,3.8202,3.8202,3.8028,3.7929,3.7929,3.7777,3.7649,3.7649,3.7853,3.7929,3.7929,3.8104,3.8202,3.8202,3.8202,3.8202,3.8202,3.8202,3.8202,3.8202,3.8202,3.8202,3.8202,3.8202,3.8202,3.8202,3.8202,3.824,3.824,3.8202,3.8202,3.824,3.824,3.824,3.8277,3.8277,3.824,3.824,3.8202,3.8202,3.8202,3.824,3.7952,3.752,3.7061,3.6606,3.6142,3.5741,3.5564,3.5504,3.5504,3.5504,0.0,3.5504,3.5953,3.6454,3.6649,3.7647,3.8625,3.9169,4.005,4.0876,4.1507,4.2349,4.3284,4.4377,4.5587,4.6666,4.7423,4.773,4.8173,4.8815,4.8951,4.9001,4.9001,4.9001,4.9001,4.9001,4.9001,4.9001,4.9001,4.9001,4.9001,4.9001,4.9001,4.9001,4.9001,4.9001,4.9001,4.9001,4.9001,4.9001,4.9001,4.9001,4.9001,4.9001,4.9001,4.9001,4.9001,4.9001,4.9001,4.9001,4.9001,4.9001,4.8917,3.8202,3.8202,3.8202,3.8202,3.8202,3.8202,3.8202,3.8202,3.8202,3.8202,3.8202,3.8202,3.8202,3.8165,3.8127,3.8127,3.8089,3.8089,3.8089,3.8127,3.8127,3.8127,3.8165,3.8202,3.8202,3.8202,3.8202,3.8202,3.8202,3.8202,3.8202,3.8202,3.8202,3.8202,3.8202,3.8202,3.8202,3.8366,3.8441,3.8441,3.8277,3.8277,3.8441,3.8441,3.8538,3.8671,3.8671,3.8575,3.8404,3.824,3.8202,3.824,3.8404,3.8135,3.7773,3.7834,3.7183,3.6428,3.6327,3.5908,3.5504,3.5504,3.5504,0.0,3.5504,3.5609,3.5848,3.6424,3.6809,3.7506,3.8835,3.9582,4.0364,4.1428,4.2349,4.3299,4.4497,4.5213,4.5938,4.6845,4.7517,4.7939,4.8091,4.8663,4.9001,4.9001,4.9001,4.9001,4.9001,4.9001,4.9001,4.9001,4.9001,4.9001,4.9001,4.9001,4.9001,4.9001,4.9001,4.9001,4.9001,4.9001,4.9001,4.9001,4.9001,4.9001,4.9001,4.9001,4.9001,4.9001,4.9001,4.9001,4.9001,4.9001,4.9001,4.8984,3.8202,3.8202,3.8202,3.8202,3.8202,3.8202,3.8202,3.8202,3.8202,3.8202,3.8202,3.8202,3.8202,3.8202,3.8202,3.8202,3.8202,3.8202,3.8202,3.8202,3.8202,3.8202,3.8202,3.8202,3.8202,3.8202,3.8202,3.8202,3.8202,3.8202,3.8202,3.8202,3.824,3.8366,3.8366,3.8389,3.8501,3.8612,3.8649,3.8649,3.8538,3.8575,3.8649,3.8649,3.8723,3.8782,3.8782,3.8723,3.8612,3.8538,3.8501,3.8538,3.8612,3.8576,3.8396,3.8157,3.7769,3.736,3.703,3.6477,3.5998,3.5998,3.5744,0.0,0.0,3.5504,3.5609,3.5923,3.6304,3.698,3.828,3.9128,4.0078,4.1379,4.227,4.3059,4.3927,4.4499,4.5163,4.5992,4.6507,4.6955,4.7327,4.8037,4.8612,4.8968,4.9001,4.9001,4.9001,4.9001,4.9001,4.9001,4.9001,4.9001,4.9001,4.9001,4.9001,4.9001,4.9001,4.9001,4.9001,4.9001,4.9001,4.9001,4.9001,4.9001,4.9001,4.9001,4.9001,4.9001,4.9001,4.9001,4.9001,4.9001,4.9001,4.9001,3.8389,3.8389,3.8427,3.8427,3.8389,3.8352,3.8352,3.8315,3.824,3.8202,3.8202,3.8202,3.8202,3.8202,3.8202,3.8202,3.8202,3.8202,3.8202,3.8202,3.8202,3.8202,3.8202,3.8202,3.8202,3.8202,3.8202,3.8202,3.824,3.824,3.824,3.8352,3.8464,3.8627,3.8701,3.8797,3.898,3.9002,3.9002,3.9002,3.9017,3.898,3.887,3.887,3.887,3.8907,3.887,3.887,3.887,3.8819,3.8782,3.8819,3.887,3.898,3.9,3.8516,3.8355,3.8272,3.7749,3.7135,3.6656,3.6656,3.6178,3.5684,0.0,0.0,0.0,3.5504,3.5923,3.6625,3.7625,3.8632,3.9761,4.1174,4.2062,4.2758,4.3281,4.3831,4.4454,4.5101,4.5498,4.594,4.6532,4.7259,4.8003,4.8731,4.8798,4.8849,4.9001,4.9001,4.9001,4.9001,4.9001,4.9001,4.9001,4.9001,4.9001,4.9001,4.9001,4.9001,4.9001,4.9001,4.9001,4.9001,4.9001,4.9001,4.9001,4.9001,4.9001,4.9001,4.9001,4.9001,4.9001,4.9001,4.9001,4.9001,3.9017,3.9126,3.9256,3.9256,3.9126,3.8995,3.8995,3.8701,3.8404,3.8202,3.8202,3.8202,3.8202,3.8202,3.8202,3.8202,3.8202,3.8202,3.8202,3.8202,3.8202,3.8202,3.8202,3.8202,3.8202,3.8202,3.8202,3.8202,3.8366,3.8478,3.8478,3.8848,3.9031,3.9068,3.9394,3.9574,3.961,3.9737,3.9773,3.9773,3.9839,3.9553,3.9068,3.9068,3.9177,3.9301,3.9141,3.9068,3.9031,3.887,3.8782,3.8819,3.9017,3.9068,3.9126,3.9211,3.8835,3.8377,3.8302,3.7808,3.73,3.73,3.6836,3.6372,3.6372,0.0,3.5504,3.5504,0.0,3.5902,3.6927,0.0,0.0,4.0481,4.1678,4.2586,4.3082,4.3549,4.401,4.4382,4.5194,4.5737,4.5821,4.6481,4.7225,4.7986,4.8007,4.8325,4.8968,4.9001,4.9001,4.9001,4.9001,4.9001,4.9001,4.9001,4.9001,4.9001,4.9001,4.9001,4.9001,4.9001,4.9001,4.9001,4.9001,4.9001,4.9001,4.9001,4.9001,4.9001,4.9001,4.9001,4.9001,4.9001,4.9001,4.9001,3.9451,3.9451,3.9559,3.9559,3.9502,3.9466,3.9466,3.9213,3.8943,3.876,3.8723,3.8612,3.8404,3.8366,3.8329,3.8202,3.8202,3.8202,3.8202,3.8202,3.8202,3.8202,3.8202,3.824,3.8366,3.8366,3.8516,3.8723,3.8811,3.8958,3.9213,3.9358,3.9595,3.9935,4.0076,4.0285,4.0443,4.0512,4.0547,4.0547,4.0562,4.0409,4.015,3.9788,3.9661,3.9747,3.9661,3.9625,3.9625,3.9502,3.9517,3.9502,3.9466,3.9466,3.943,3.9409,3.9215,3.899,3.899,3.8497,3.7973,3.7973,3.7494,3.7015,3.7015,3.6806,3.6507,3.6148,0.0,0.0,0.0,0.0,0.0,0.0,4.2156,4.2821,4.3221,4.3611,4.3952,4.4155,4.4699,4.5229,4.5669,4.5974,4.6464,4.7208,4.7682,4.8054,4.8359,4.8781,4.9001,4.9001,4.9001,4.9001,4.9001,4.9001,4.9001,4.9001,4.9001,4.9001,4.9001,4.9001,4.9001,4.9001,4.9001,4.9001,4.9001,4.9001,4.9001,4.9001,4.9001,4.9001,4.9001,4.9001,4.9001,4.9001,4.0165,4.0111,4.0231,4.0231,4.0161,4.0091,3.995,3.9945,3.9871,3.9649,3.9762,3.9735,3.9327,3.9267,3.9117,3.8914,3.8914,3.8914,3.8914,3.8716,3.8614,3.8614,3.8439,3.8464,3.8664,3.8738,3.8922,3.925,3.9415,3.9651,3.997,4.0161,4.0459,4.0873,4.099,4.1158,4.1376,4.1376,4.1376,4.1376,4.1309,4.1309,4.1209,4.0543,4.0281,4.0281,4.0281,4.0281,4.0281,4.0281,4.0261,4.0191,4.0036,3.9965,3.9895,3.9732,3.9696,3.9696,3.961,3.9249,3.8873,3.8767,3.8237,3.7758,3.7689,3.7539,3.7285,3.6836,3.678,0.0,0.0,0.0,3.9751,4.163,0.0,4.2945,4.3358,4.3628,4.3881,4.4068,4.44,4.4818,4.5348,4.5399,4.5703,4.643,4.7005,4.7466,4.7872,4.8426,4.8798,4.9001,4.9001,4.9001,4.9001,4.9001,4.9001,4.9001,4.9001,4.9001,4.9001,4.9001,4.9001,4.9001,4.9001,4.9001,4.9001,4.9001,4.9001,4.9001,4.9001,4.9001,4.9001,4.9001,4.9001,4.9001,4.1555,4.1522,4.1555,4.1555,4.139,4.1073,4.0547,4.1016,4.1311,4.0978,4.1489,4.1758,4.134,4.1128,4.0952,4.0737,4.0713,4.0713,4.0713,4.0123,3.977,3.977,3.9136,3.887,3.9068,3.9271,3.9487,3.9681,4.0216,4.0531,4.069,4.1258,4.1638,4.177,4.2158,4.2349,4.2349,4.2349,4.2349,4.2349,4.2142,4.2077,4.1964,4.1243,4.0974,4.0974,4.0974,4.0974,4.0974,4.0974,4.0904,4.0765,4.0765,4.0627,4.0455,4.0455,4.0455,4.042,4.0216,4.0165,4.0045,3.9758,3.9154,3.8622,3.8397,3.7868,3.7404,3.7389,3.7526,3.7846,3.8396,3.9346,4.0352,4.1289,4.2087,0.0,0.0,4.3539,4.3747,4.4068,4.44,4.4615,4.4632,4.4649,4.4925,4.5686,4.5771,4.6397,4.7804,4.7906,4.8244,4.8984,4.9001,4.9001,4.9001,4.9001,4.9001,4.9001,4.9001,4.9001,4.9001,4.9001,4.9001,4.9001,4.9001,4.9001,4.9001,4.9001,4.9001,4.9001,4.9001,4.9001,4.9001,4.9001,4.9001,4.9001,4.2601,4.2601,4.2412,4.1882,4.1752,4.1571,4.129,4.1906,4.2312,4.1965,4.2505,4.2695,4.2071,4.1827,4.1566,4.1241,4.1203,4.1203,4.1203,4.0979,4.0799,4.0662,4.0159,3.9949,4.0147,4.0,4.0146,4.0627,4.1039,4.1358,4.164,4.1964,4.227,4.2523,4.2665,4.279,4.2867,4.2867,4.2867,4.2899,4.3325,4.3765,4.4026,4.2348,4.1737,4.1737,4.1737,4.1737,4.1737,4.1737,4.1623,4.1458,4.1357,4.1189,4.1021,4.0854,4.082,4.082,4.0737,4.065,4.0578,4.0455,4.0063,3.9671,3.9601,3.9344,3.9037,3.8736,3.8784,3.9039,3.9601,4.0276,4.1118,4.2197,4.2829,4.3221,0.0,4.3704,4.3881,4.4068,4.4298,4.444,4.4587,4.4615,4.4716,4.4942,4.5415,4.5923,4.643,4.7365,4.799,4.8244,4.8748,4.9001,4.9001,4.9001,4.9001,4.9001,4.9001,4.9001,4.9001,4.9001,4.9001,4.9001,4.9001,4.9001,4.9001,4.9001,4.9001,4.9001,4.9001,4.9001,4.9001,4.9001,4.9001,4.9001,4.3883,4.367,4.3222,4.2461,4.2511,4.259,4.2461,4.3343,4.3919,4.3579,4.4132,4.4264,4.3583,4.3328,4.3033,4.2659,4.2622,4.2599,4.2523,4.2312,4.21,4.2002,4.1465,4.1301,4.157,4.1236,4.1296,4.1868,4.1978,4.2206,4.2444,4.2649,4.2883,4.3146,4.3146,4.319,4.3265,4.3265,4.3443,4.3739,4.4479,4.5055,4.5352,4.3943,4.3347,4.3251,4.3251,4.3057,4.2831,4.2831,4.2558,4.2174,4.2077,4.1916,4.1737,4.1607,4.1558,4.1574,4.1508,4.1374,4.1223,4.1122,4.0851,4.0547,4.0512,4.0424,4.0263,3.9955,4.0016,4.0302,4.0844,4.1295,4.188,4.2911,4.3267,4.3449,0.0,4.3704,4.3881,4.4068,4.4224,4.4367,4.457,4.4615,4.4615,4.4615,4.5026,4.5415,4.5703,4.6853,4.7648,4.7872,4.8629,4.9001,4.9001,4.9001,4.9001,4.9001,4.9001,4.9001,4.9001,4.9001,4.9001,4.9001,4.9001,4.9001,4.9001,4.9001,4.9001,4.9001,4.9001,4.9001,4.9001,4.9001,4.9001,4.9001,4.5323,4.4766,4.4061,4.3373,4.3676,4.4071,4.4071,4.5245,4.6008,4.5671,4.6233,4.6407,4.5853,4.5604,4.5311,4.4933,4.4865,4.479,4.4685,4.4046,4.3692,4.3692,4.3044,4.2891,4.3282,4.2905,4.2865,4.3214,4.3054,4.3025,4.3113,4.3312,4.3479,4.3598,4.3598,4.3598,4.3598,4.3631,4.4108,4.4854,4.5566,4.5864,4.5897,4.5897,4.5708,4.5422,4.5356,4.4864,4.4274,4.4242,4.3658,4.2979,4.2947,4.279,4.2618,4.2617,4.2617,4.2601,4.246,4.227,4.2077,4.1753,4.1522,4.1307,4.1109,4.1075,4.1075,4.1075,4.1225,4.1507,4.2045,4.2318,4.2665,4.3281,4.3419,4.3432,4.3598,4.3598,4.3747,4.4068,4.4224,4.4367,4.457,4.4615,4.4615,4.4615,4.4615,4.4919,4.5618,4.638,4.7124,4.7804,4.8612,4.9001,4.9001,4.9001,4.9001,4.9001,4.9001,4.9001,4.9001,4.9001,4.9001,4.9001,4.9001,4.9001,4.9001,4.9001,4.9001,4.9001,4.9001,4.9001,4.9001,4.9001,4.9001,4.9001,4.5673,4.5507,4.5326,4.5127,4.5009,4.4965,4.4965,4.5864,4.6454,4.6224,4.6778,4.7243,4.7394,4.6763,4.6351,4.6513,4.5997,4.564,4.5505,4.5332,4.5149,4.4934,4.4454,4.4201,4.4307,4.4116,4.3877,4.3573,4.3905,4.3824,4.3342,4.3479,4.3568,4.3598,4.3598,4.3598,4.3631,4.4191,4.5152,4.6344,4.6527,4.6941,4.7438,4.7438,4.7373,4.7159,4.6069,4.554,4.5309,4.4747,4.4358,4.4005,4.3432,4.3129,4.299,4.2974,4.2974,4.2974,4.2929,4.2821,4.2665,4.2571,4.2349,4.2109,4.2029,4.1932,4.1867,4.1997,4.2142,4.2333,4.2634,4.2945,4.319,4.3372,4.3462,4.3568,4.3598,4.3734,4.3881,4.4068,4.4224,4.4367,4.457,4.4615,4.4615,4.4615,4.4615,4.4682,4.4886,4.6092,4.6887,4.7073,4.8325,4.9001,4.9001,4.9001,4.9001,4.9001,4.9001,4.9001,4.9001,4.9001,4.9001,4.9001,4.9001,4.9001,4.9001,4.9001,4.9001,4.9001,4.9001,4.9001,4.9001,4.9001,4.9001,4.9001,4.6758,4.6758,4.6659,4.6328,4.6384,4.6354,4.6041,4.6731,4.721,4.698,4.7604,4.8043,4.8193,4.8039,4.7961,4.8095,4.7722,4.728,4.6813,4.6761,4.6566,4.6088,4.5812,4.569,4.5795,4.5464,4.5196,4.4951,4.5022,4.4681,4.3971,4.4062,4.3926,4.3615,4.3943,4.4092,4.4158,4.5202,4.6129,4.6924,4.7255,4.7636,0.0,4.8001,4.8001,4.7885,4.7057,4.6543,4.6212,4.5798,4.5173,4.4516,4.4087,4.368,4.3325,4.3325,4.3325,4.3325,4.3325,4.3251,4.3207,4.3207,4.3068,4.2912,4.2912,4.282,4.2758,4.2821,4.2898,4.2974,4.3099,4.3251,4.3402,4.3479,4.3568,4.3628,4.3734,4.3839,4.3969,4.4167,4.4253,4.4367,4.457,4.4615,4.4615,4.4615,4.4615,4.4615,4.4615,4.5991,4.6786,4.6786,4.824,4.9001,4.9001,4.9001,4.9001,4.9001,4.9001,4.9001,4.9001,4.9001,4.9001,4.9001,4.9001,4.9001,4.9001,4.9001,4.9001,4.9001,4.9001,4.9001,4.9001,4.9001,4.9001,4.9001,4.8299,4.8299,4.8084,4.7438,4.7868,4.8084,4.7438,4.7785,4.8068,4.7919,4.8529,4.8939,4.8884,4.9341,4.9649,4.9622,4.9521,4.9108,4.8245,4.8115,4.7791,4.7158,4.7044,4.7064,4.7251,4.6732,4.652,4.6601,4.615,4.5566,4.4821,4.4821,4.4506,4.3913,4.4556,4.4887,4.5052,4.6344,4.6957,4.7106,4.7736,4.8001,4.8001,4.8033,4.8033,4.8033,4.8066,4.7619,4.7023,4.6924,4.6046,4.4937,4.4754,4.4257,4.3714,4.3661,4.3628,4.3628,4.3658,4.3658,4.3658,4.3658,4.3671,4.3684,4.3684,4.3684,4.3625,4.3522,4.3492,4.3492,4.3492,4.3492,4.3539,4.3658,4.3658,4.3717,4.3898,4.3956,4.4056,4.4281,4.4338,0.0,4.457,4.4615,4.4615,4.4615,4.4615,4.4615,4.4615,4.5906,4.6701,4.6786,4.8139,4.89,4.9001,4.9001,4.9001,4.9001,4.9001,4.9001,4.9001,4.9001,4.9001,4.9001,4.9001,4.9001,4.9001,4.9001,4.9001,4.9001,4.9001,4.9001,4.9001,4.9001,4.9001,4.9001,4.9823,4.9823,4.979,4.9657,4.974,4.979,4.9657,4.9226,4.8878,4.8878,4.949,5.0168,5.0747,5.0365,5.0263,5.0683,5.0171,4.9672,4.9349,4.8742,4.8333,4.8219,4.7697,4.7403,4.7436,4.7456,4.7177,4.6601,4.6663,4.6328,4.5599,4.5599,4.5533,4.5417,4.5549,4.5947,4.6527,4.6792,4.7255,4.7819,4.7951,4.8001,4.8001,4.8115,4.8163,4.8195,4.8356,4.8161,4.7719,4.7106,4.6725,4.6295,4.5069,4.4605,4.442,4.3975,4.3868,4.3852,4.3981,4.401,4.401,4.401,4.401,4.3993,4.3993,4.3993,4.401,4.3981,4.3981,4.3981,4.3981,4.3981,4.3981,4.401,4.401,4.401,4.4056,4.4155,4.4253,4.4293,4.444,4.457,4.4615,4.4615,4.4615,4.4615,4.4615,4.4615,4.4615,4.5415,4.6177,4.6769,4.7648,4.8392,4.9001,4.9001,4.9001,4.9001,4.9001,4.9001,4.9001,4.9001,4.9001,4.9001,4.9001,4.9001,4.9001,4.9001,4.9001,4.9001,4.9001,4.9001,4.9001,4.9001,4.9001,4.9001,5.022,5.022,5.022,5.022,5.022,5.022,5.022,5.022,5.0104,4.9723,5.0303,5.0899,5.1265,5.1313,5.1444,5.1688,5.1407,5.0973,5.0507,5.016,4.9617,4.8841,4.8495,4.8166,4.7787,4.782,4.7671,4.7324,4.7438,4.709,4.6361,4.6361,4.6162,4.5814,4.6195,4.6775,4.7471,4.7471,4.7686,4.8001,4.8099,4.8115,4.8115,4.8292,4.8356,4.8356,4.8452,4.8405,4.8226,4.786,4.7493,4.7028,4.6343,4.5593,4.4893,4.4649,4.4298,4.4027,4.4068,4.4155,4.4196,4.4196,4.427,4.4372,4.4372,4.4372,4.4327,4.4241,4.4196,4.4184,4.4126,4.4097,4.4097,4.4097,4.4097,4.4126,4.4196,4.4253,4.4338,4.444,4.4542,4.4615,4.4615,4.4615,4.4615,4.4615,4.4615,4.4615,4.4615,4.5297,4.5872,4.621,4.7327,4.8058,4.8443,4.8815,4.9001,4.9001,4.9001,4.9001,4.9001,4.9001,4.9001,4.9001,4.9001,4.9001,4.9001,4.9001,4.9001,4.9001,4.9001,4.9001,4.9001,4.9001,4.9001,4.9001,5.0667,5.0702,5.0702,5.0702,5.0736,5.0771,5.0771,5.1236,5.1317,5.0535,5.1065,5.1547,5.1547,5.2061,5.2409,5.2409,5.2409,5.2161,5.158,5.1398,5.0801,4.9624,4.9276,4.8845,4.8249,4.8084,4.8001,4.8001,4.8001,4.7703,4.7123,4.7123,4.6825,4.6278,4.689,4.7519,4.8066,4.8099,4.8099,4.8131,4.8227,4.826,4.8292,4.8483,4.8547,4.8564,4.8578,4.861,4.861,4.861,4.8161,4.7613,4.7462,4.6592,4.5617,4.5328,4.4825,4.4356,4.4234,4.4298,4.4367,4.4367,4.4468,4.4615,4.4615,4.4615,4.4542,4.4412,4.4367,4.431,4.4212,4.4229,4.4229,4.4229,4.4229,4.4241,4.4338,4.4367,4.4412,4.457,4.4615,4.4615,4.4615,4.4615,4.4615,4.4615,4.4615,4.4615,4.4615,4.5145,4.5551,4.5703,4.6989,4.772,4.7889,4.8646,4.9001,4.9001,4.9001,4.9001,4.9001,4.9001,4.9001,4.9001,4.9001,4.9001,4.9001,4.9001,4.9001,4.9001,4.9001,4.9001,4.9001,4.9001,4.9001,4.9001,5.221,5.23,5.237,5.237,5.2529,5.2633,5.2633,5.2544,5.2169,5.1299,5.1862,5.231,5.231,5.2376,5.2409,5.2409,5.2409,5.2393,5.231,5.168,5.1249,5.1116,4.9806,4.9077,4.9011,4.8349,4.8001,4.8001,4.8001,4.7968,4.7901,4.7901,4.7868,4.7802,4.7997,4.8113,4.8195,4.8388,4.8452,4.8452,4.8452,4.8483,4.8483,4.8707,4.8769,4.8769,4.8909,4.894,4.894,4.894,4.8702,4.8266,4.7613,4.7312,4.6974,4.5736,4.5341,4.5185,4.4699,4.4542,4.457,4.457,4.4587,4.4615,4.4615,4.4615,4.4598,4.457,4.457,4.457,4.4559,4.4542,4.4542,4.4542,4.4542,4.4559,4.457,4.457,4.457,4.4615,4.4615,4.4615,4.4615,4.4615,4.4615,4.4615,4.4615,4.4615,4.4615,4.4682,4.4993,4.5686,4.6481,4.7225,4.7889,4.8646,4.9001,4.9001,4.9001,4.9001,4.9001,4.9001,4.9001,4.9001,4.9001,4.9001,4.9001,4.9001,4.9001,4.9001,4.9001,4.9001,4.9001,4.9001,4.9001,4.9001,5.2711,5.2729,5.2764,5.2764,5.2834,5.2903,5.2903,5.2834,5.2664,5.231,5.2333,5.2409,5.2409,5.2409,5.2445,5.2499,5.2535,5.257,5.2676,5.2322,5.1886,5.1454,5.0786,5.0005,4.9127,4.8812,4.8448,4.8001,4.8001,4.8033,4.8115,4.8115,4.8179,4.8308,4.8356,4.8388,4.8388,4.8452,4.8515,4.8515,4.8627,4.8675,4.8707,4.8863,4.8925,4.8925,4.897,4.9001,4.9001,4.9001,4.8909,4.8765,4.8461,4.8043,4.7571,4.7072,4.6262,4.5532,4.5302,4.4953,4.4615,4.4615,4.4615,4.4615,4.4615,4.4615,4.4615,4.4615,4.4615,4.4615,4.4615,4.4615,4.4615,4.4615,4.4615,4.4615,4.4615,4.4615,4.4615,4.4615,4.4615,4.4615,4.4615,4.4615,4.4615,4.4615,4.4615,4.4615,4.4615,4.4615,4.4925,4.5686,4.6413,4.7158,4.7889,4.8646,4.9001,4.9001,4.9001,4.9001,4.9001,4.9001,4.9001,4.9001,4.9001,4.9001,4.9001,4.9001,4.9001,4.9001,4.9001,4.9001,4.9001,4.9001,4.9001,4.9001,5.3556,5.3574,5.3626,5.3626,5.3696,5.3731,5.3731,5.3661,5.3542,5.3324,5.3063,5.2784,5.2568,5.2551,5.2587,5.2659,5.2694,5.2729,5.2868,5.2764,5.2461,5.1927,5.1607,5.0856,4.9593,4.9344,4.8895,4.8164,4.8164,4.8212,4.8292,4.8292,4.8356,4.8515,4.8547,4.8595,4.8595,4.861,4.8642,4.8642,4.8801,4.8863,4.8863,4.897,4.9001,4.9001,4.9001,4.9001,4.9001,4.9001,4.9001,4.9001,4.9001,4.8646,4.8189,4.7939,4.7175,4.6312,4.6075,4.5483,4.4908,4.4908,4.4767,4.4615,4.4615,4.4615,4.4615,4.4615,4.4615,4.4615,4.4615,4.4615,4.4615,4.4615,4.4615,4.4615,4.4615,4.4615,4.4615,4.4615,4.4615,4.4615,4.4615,4.4615,4.4615,4.4615,4.4615,4.4615,4.4615,4.4829,4.5213,4.5755,4.6733,4.7526,4.8022,4.8782,4.9155,4.9155,4.9155,4.9155,4.9155,4.9155,4.9124,4.9063,4.9063,4.9032,4.9001,4.9001,4.9001,4.9001,4.9001,4.9001,4.9001,4.9001,4.9001,4.9001,5.5099,5.5207,5.5366,5.5366,5.5525,5.5664,5.5664,5.549,5.5097,5.439,5.4132,5.369,5.2987,5.2903,5.2903,5.2903,5.2903,5.2903,5.2903,5.2903,5.2903,5.2886,5.2183,5.1447,5.0693,4.9973,4.9237,4.8483,4.8483,4.8483,4.8483,4.8483,4.8515,4.8515,4.8707,4.8818,4.8818,4.8956,4.9001,4.9001,4.9001,4.9001,4.9001,4.9001,4.9001,4.9001,4.9001,4.9001,4.9001,4.9001,4.9001,4.9001,4.9001,4.9001,4.8849,4.8091,4.7872,4.7733,4.6972,4.6244,4.5703,4.5703,4.5128,4.4615,4.4615,4.4615,4.4615,4.4615,4.4615,4.4615,4.4615,4.4615,4.4615,4.4615,4.4615,4.4615,4.4615,4.4615,4.4615,4.4615,4.4615,4.4615,4.4615,4.4615,4.4615,4.4615,4.4615,4.4615,4.4615,4.5416,4.5892,4.5909,4.7517,4.8377,4.8377,4.9112,4.9488,4.9488,4.9488,4.9488,4.9488,4.9488,4.9398,4.9199,4.9199,4.9107,4.9001,4.9001,4.9001,4.9001,4.9001,4.9001,4.9001,4.9001,4.9001,4.9001,5.5523,5.5559,5.5594,5.5594,5.5646,5.5681,5.5681,5.5646,5.551,5.529,5.5204,5.4883,5.4141,5.336,5.2938,5.3076,5.311,5.3161,5.3314,5.3195,5.311,5.311,5.2738,5.22,5.1463,5.0727,4.999,4.9237,4.8735,4.8564,4.8707,4.8784,4.8846,4.8846,4.8925,4.8956,4.8956,4.897,4.9001,4.9001,4.9001,4.9001,4.9001,4.9001,4.9001,4.9001,4.9001,4.9001,4.9001,4.9001,4.9001,4.9001,4.9001,4.9001,4.8951,4.8731,4.8308,4.7838,4.7631,4.7005,4.6329,4.5838,4.5517,4.5213,4.4716,4.4615,4.4615,4.4615,4.4615,4.4615,4.4615,4.4615,4.4615,4.4615,4.4615,4.4615,4.4615,4.4615,4.4615,4.4615,4.4615,4.4615,4.4615,4.4615,4.4615,4.4615,4.4615,4.4626,4.4737,4.5473,4.6158,4.6755,4.7836,4.8634,4.9129,4.9368,4.9518,4.9518,4.9518,4.9518,4.9518,4.9518,4.9458,4.9398,4.926,4.9168,4.9138,4.9032,4.9001,4.9001,4.9001,4.9001,4.9001,4.9001,4.9001,4.9001,5.6528,5.6528,5.6528,5.6528,5.6528,5.6528,5.6528,5.6528,5.6444,5.6156,5.6122,5.5835,5.5091,5.4123,5.3498,5.3331,5.3298,5.3382,5.3501,5.3382,5.3298,5.3298,5.3195,5.2774,5.2001,5.1547,5.0808,4.9782,4.9043,4.8753,4.8863,4.894,4.9001,4.9001,4.9001,4.9001,4.9001,4.9001,4.9001,4.9001,4.9001,4.9001,4.9001,4.9001,4.9001,4.9001,4.9001,4.9001,4.9001,4.9001,4.9001,4.9001,4.9001,4.9001,4.9001,4.9001,4.868,4.8294,4.8294,4.7784,4.7107,4.665,4.6329,4.5923,4.5162,4.4818,4.4615,4.4615,4.4615,4.4615,4.4615,4.4615,4.4615,4.4615,4.4615,4.4615,4.4615,4.4615,4.4615,4.4615,4.4615,4.4615,4.4615,4.4615,4.4716,4.4976,4.5077,4.5264,4.5676,4.6164,4.6817,4.7712,4.8557,4.922,4.9666,4.9683,4.9683,4.9683,4.9683,4.9683,4.9683,4.9683,4.9637,4.956,4.9441,4.932,4.9199,4.9107,4.9063,4.9001,4.9001,4.9001,4.9001,4.9001,4.9001,4.9001,5.7881,5.7881,5.7881,5.7881,5.7881,5.7881,5.7881,5.7881,5.7645,5.6968,5.6884,5.6613,5.5869,5.5124,5.438,5.3653,5.3534,5.3501,5.3501,5.3501,5.3501,5.3501,5.3501,5.3162,5.2401,5.2334,5.1572,5.0084,4.9407,4.9052,4.9001,4.9001,4.9001,4.9001,4.9001,4.9001,4.9001,4.9001,4.9001,4.9001,4.9001,4.9001,4.9001,4.9001,4.9001,4.9001,4.9001,4.9001,4.9001,4.9001,4.9001,4.9001,4.9001,4.9001,4.9001,4.9001,4.9001,4.9001,4.9001,4.8511,4.7939,4.7906,4.7361,4.6616,4.594,4.5246,4.475,4.4699,4.4682,4.4666,4.4615,4.4615,4.4615,4.4615,4.4615,4.4615,4.4615,4.4615,4.4615,4.4615,4.4615,4.4632,4.4682,4.4682,4.5004,4.572,4.5909,4.6357,4.725,4.7375,4.7775,4.8592,4.951,5.0011,5.0011,5.0011,5.0011,5.0011,5.0011,5.0011,5.0011,5.0011,4.9906,4.9708,4.9708,4.953,4.9229,4.9199,4.9124,4.9001,4.9001,4.9001,4.9001,4.9001,4.9001,4.9001,5.7881,5.7881,5.7881,5.7881,5.7881,5.7881,5.7881,5.7881,5.7831,5.7645,5.7628,5.7357,5.663,5.5886,5.5141,5.4397,5.3822,5.3501,5.3501,5.3501,5.3501,5.3501,5.3501,5.3416,5.323,5.2604,5.1572,5.0084,4.9915,4.9543,4.9001,4.9001,4.9001,4.9001,4.9001,4.9001,4.9001,4.9001,4.9001,4.9001,4.9001,4.9001,4.9001,4.9001,4.9001,4.9001,4.9001,4.9001,4.9001,4.9001,4.9001,4.9001,4.9001,4.9001,4.9001,4.9001,4.9001,4.9001,4.9001,4.8883,4.8612,4.8024,4.7361,4.6752,4.6583,4.6397,4.6109,4.5551,4.5432,4.5263,4.4716,4.4615,4.4615,4.4615,4.4615,4.4615,4.4615,4.4615,4.4615,4.4615,4.4615,4.4835,4.5382,4.5432,4.5794,4.6639,4.6719,4.7186,4.8197,4.8277,4.8449,4.8735,4.9568,5.0011,5.0011,5.0011,5.0011,5.0011,5.0011,5.0011,5.0011,5.0011,4.9964,4.9935,4.9784,4.9649,4.956,4.932,4.9168,4.9138,4.9032,4.9001,4.9001,4.9001,4.9001,4.9001,5.7881,5.7881,5.7881,5.7881,5.7881,5.7881,5.7881,5.7881,5.7881,5.7881,5.7881,5.7746,5.734,5.6647,5.5919,5.5175,5.4126,5.3501,5.3501,5.3501,5.3501,5.3501,5.3501,5.3501,5.3501,5.3078,5.2283,5.1099,5.0422,4.9898,4.9492,4.9171,4.9001,4.9001,4.9001,4.9001,4.9001,4.9001,4.9001,4.9001,4.9001,4.9001,4.9001,4.9001,4.9001,4.9001,4.9001,4.9001,4.9001,4.9001,4.9001,4.9001,4.9001,4.9001,4.9001,4.9001,4.9001,4.9001,4.9001,4.9001,4.89,4.8511,4.7851,4.731,4.731,4.7039,4.6684,4.6295,4.6194,4.6075,4.5698,4.5613,4.5613,4.5613,4.5613,4.5613,4.5613,4.5613,4.5613,4.5699,4.5699,4.588,4.6391,4.6425,4.6759,4.7595,4.7704,4.8145,4.9044,4.9182,4.9269,4.9344,4.9786,5.0011,5.0011,5.0011,5.0011,5.0011,5.0011,5.0011,5.0011,5.0011,5.0011,5.0011,4.9889,4.9784,4.9679,4.95,4.9381,4.932,4.9277,4.9216,4.9216,4.9216,4.9185,4.9094,5.7881,5.7881,5.7881,5.7881,5.7881,5.7881,5.7881,5.7881,5.7881,5.7881,5.7881,5.7881,5.7881,5.7239,5.6511,5.5749,5.4465,5.3619,5.3518,5.3501,5.3501,5.3501,5.3501,5.3501,5.3501,5.3501,5.3112,5.23,5.1048,5.0304,5.0084,4.9458,4.912,4.9001,4.9001,4.9001,4.9001,4.9001,4.9001,4.9001,4.9001,4.9001,4.9001,4.9001,4.9001,4.9001,4.9001,4.9001,4.9001,4.9001,4.9001,4.9001,4.9001,4.9001,4.9001,4.9032,4.9032,4.9032,4.9001,4.9001,4.9001,4.9001,4.8545,4.8058,4.8058,4.7581,4.709,4.6989,4.6972,4.6921,4.6802,4.6815,4.6815,4.6815,4.6844,4.6874,4.6874,4.6903,4.6961,4.706,4.7089,4.7227,4.7518,4.7535,4.7843,4.8585,4.8752,4.9068,4.9703,4.9906,5.0011,5.0011,5.0011,5.0011,5.0011,5.0011,5.0011,5.0011,5.0011,5.0011,5.0011,5.0011,5.0011,5.0011,5.0011,4.9889,4.9737,4.9708,4.9619,4.9547,4.9518,4.9518,4.9518,4.9518,4.9381,4.9199,5.7881,5.7881,5.7881,5.7881,5.7881,5.7881,5.7881,5.7881,5.7881,5.7881,5.7881,5.7881,5.7881,5.7239,5.6511,5.5749,5.4921,5.416,5.3551,5.3501,5.3501,5.3501,5.3501,5.3501,5.3501,5.3501,5.3112,5.23,5.2063,5.1319,5.0084,4.9965,4.9593,4.9001,4.9001,4.9001,4.9001,4.9001,4.9001,4.9001,4.9001,4.9001,4.9001,4.9001,4.9001,4.9001,4.9001,4.9001,4.9001,4.9001,4.9001,4.9001,4.9001,4.9001,4.9032,4.9138,4.9168,4.9138,4.9032,4.9001,4.9001,4.9001,4.8917,4.8832,4.8832,4.8748,4.8477,4.7868,4.775,4.7547,4.6904,4.6886,4.6973,4.6973,4.7089,4.7221,4.7221,4.7318,4.7403,4.7431,4.7516,4.784,4.8488,4.8557,4.8867,4.9613,4.9694,4.9763,4.9918,4.9964,5.0011,5.0011,5.0011,5.0011,5.0011,5.0011,5.0011,5.0011,5.0011,5.0011,5.0011,5.0011,5.0011,5.0011,5.0011,4.9964,4.9935,4.9784,4.9679,4.9649,4.953,4.9518,4.9518,4.9518,4.9381,4.9199,5.7881,5.7881,5.7881,5.7881,5.7881,5.7881,5.7881,5.7881,5.7881,5.7881,5.7881,5.7881,5.7881,5.7594,5.6934,5.5818,5.5395,5.4718,5.3568,5.3501,5.3501,5.3501,5.3501,5.3501,5.3501,5.3501,5.3315,5.2959,5.252,5.1944,5.1285,5.0879,5.0524,5.0185,4.9779,4.9593,4.956,4.9171,4.9001,4.9001,4.9001,4.9001,4.9001,4.9001,4.9001,4.9001,4.9001,4.9001,4.9001,4.9001,4.9001,4.9001,4.9001,4.9063,4.9138,4.932,4.935,4.9367,4.9307,4.9277,4.9277,4.9277,4.9277,4.9277,4.9277,4.9277,4.9175,4.8834,4.8766,4.8694,4.8426,4.8416,4.8516,4.8673,4.8759,4.8861,4.8946,4.9052,4.9163,4.9264,4.94,4.9577,4.9861,4.9896,4.9941,5.0051,5.0057,5.0046,4.9993,5.0011,5.0011,5.0011,5.0011,5.0011,5.0011,5.0011,5.0011,5.0011,5.0011,5.0011,5.0011,5.0011,5.0011,5.0011,5.0011,5.0011,5.0011,4.9889,4.986,4.986,4.9801,4.9772,4.9772,4.9772,4.9594,4.9419,5.7881,5.7881,5.7881,5.7881,5.7881,5.7881,5.7881,5.7881,5.7881,5.7881,5.7881,5.7881,5.7881,5.7881,5.7374,5.6089,5.5818,5.5158,5.3839,5.3602,5.3501,5.3501,5.3501,5.3501,5.3501,5.3501,5.3501,5.3501,5.2892,5.2486,5.2283,5.1725,5.1369,5.12,5.0608,5.0355,5.0321,4.9746,4.9509,4.9509,4.9509,4.9509,4.9509,4.9509,4.9407,4.9255,4.9255,4.9154,4.9001,4.9001,4.9001,4.9001,4.9032,4.9168,4.935,4.959,4.9767,4.9837,4.9737,4.9708,4.9708,4.9649,4.9649,4.9649,4.959,4.9619,4.9649,4.9649,4.9679,4.9737,4.9854,4.9895,5.0022,5.0233,5.0356,5.0439,5.0612,5.0741,5.084,5.1026,5.1114,5.114,5.1017,5.0937,5.0739,5.0369,5.0313,5.0246,5.0109,5.008,5.008,5.008,5.0022,5.0011,5.0011,5.0011,5.0011,5.0011,5.0011,5.0011,5.0011,5.0011,5.0011,5.0011,5.0011,5.0011,5.0011,5.0011,5.0011,5.0011,5.0011,5.0011,5.0011,5.0011,4.9892,4.9829,5.7881,5.7881,5.7881,5.7881,5.7881,5.7881,5.7881,5.7881,5.7881,5.7881,5.7881,5.7881,5.7881,5.7881,5.7577,5.6799,5.6105,5.5378,5.4566,5.3873,5.3501,5.3501,5.3501,5.3501,5.3501,5.3501,5.3501,5.3501,5.345,5.3044,5.23,5.2249,5.186,5.1185,5.115,5.1133,5.1133,5.105,5.1048,5.1048,5.1048,5.1048,5.1048,5.1048,5.0608,5.0016,5.0016,4.9576,4.9001,4.9001,4.9001,4.9032,4.9138,4.9411,4.9737,5.0028,5.0502,5.0812,5.0436,5.0313,5.0285,5.0091,5.0062,5.0034,4.9895,4.9965,5.0062,5.0062,5.0211,5.0359,5.0359,5.0547,5.0739,5.0749,5.1061,5.1304,5.1304,5.1533,5.1708,5.1708,5.175,5.1701,5.1551,5.1375,5.1105,5.0793,5.064,5.0519,5.0387,5.0359,5.0359,5.0359,5.0138,5.0011,5.0011,5.0011,5.0011,5.0011,5.0011,5.0011,5.0011,5.0011,5.0011,5.0011,5.0011,5.0011,5.0011,5.0011,5.0011,5.0011,5.0011,5.0011,5.0011,5.0011,5.0218,5.0516,5.7881,5.7881,5.7881,5.7881,5.7881,5.7881,5.7881,5.7881,5.7881,5.7881,5.7881,5.7881,5.7881,5.7881,5.7594,5.6867,5.6139,5.5395,5.4634,5.3907,5.3501,5.3501,5.3501,5.3501,5.3501,5.3501,5.3501,5.3501,5.3501,5.3348,5.3044,5.3044,5.2892,5.2604,5.2114,5.1894,5.186,5.1371,5.1185,5.1185,5.1185,5.1185,5.1185,5.1185,5.1048,5.0777,5.0777,5.0608,5.0304,4.9989,4.9912,4.995,4.971,4.9866,5.0257,5.082,5.1289,5.1546,5.1452,5.1175,5.0857,5.0686,5.0659,5.0605,5.0502,5.0567,5.0659,5.0659,5.0785,5.0937,5.0999,5.1087,5.1262,5.1554,5.1729,5.186,5.2012,5.2179,5.2297,5.2297,5.2366,5.2297,5.1994,5.1891,5.1619,5.1079,5.0999,5.0884,5.0657,5.0657,5.0602,5.0519,5.0425,5.0285,5.012,5.012,5.0063,5.0011,5.0011,5.0011,5.0011,5.0011,5.0011,5.0011,5.0011,5.0011,5.0011,5.0011,5.0011,5.0011,5.0011,5.0011,5.0062,5.0528,5.0665,5.0721,5.7881,5.7881,5.7881,5.7881,5.7881,5.7881,5.7881,5.7881,5.7881,5.7881,5.7881,5.7881,5.7881,5.7881,5.7695,5.7188,5.6275,5.5497,5.4972,5.4042,5.3501,5.3501,5.3501,5.3501,5.3501,5.3501,5.3501,5.3501,5.3501,5.3534,5.3551,5.3551,5.3584,5.3634,5.3074,5.2853,5.2867,5.2374,5.217,5.2234,5.217,5.2138,5.2073,5.2008,5.1791,5.1555,5.1555,5.1452,5.1229,5.0927,5.0926,5.1068,5.0845,5.092,5.1164,5.1617,5.1882,5.2054,5.2198,5.192,5.1561,5.1331,5.128,5.1254,5.1096,5.1175,5.128,5.128,5.1383,5.151,5.1594,5.1694,5.186,5.218,5.2298,5.2421,5.2563,5.2698,5.2806,5.2806,5.2828,5.2739,5.2431,5.232,5.206,5.1536,5.1416,5.1288,5.1088,5.1105,5.1052,5.0955,5.092,5.0776,5.0464,5.0285,5.0149,5.0011,5.0011,5.0011,5.0011,5.0011,5.0022,5.008,5.008,5.008,5.0138,5.0138,5.0109,5.008,5.008,5.0022,5.0097,5.0838,5.1043,5.1114,5.7881,5.7881,5.7881,5.7881,5.7881,5.7881,5.7881,5.7881,5.7881,5.7881,5.7881,5.7881,5.7881,5.7881,5.7881,5.7881,5.6562,5.5681,5.5664,5.4313,5.3501,5.3501,5.3501,5.3501,5.3501,5.3501,5.3501,5.3501,5.3501,5.3584,5.37,5.3717,5.3816,5.403,5.403,5.4093,5.422,5.422,5.4318,5.448,5.4301,5.4108,5.398,5.3766,5.3142,5.23,5.2317,5.1973,5.1522,5.166,5.1939,5.2274,5.2618,5.2677,5.2586,5.2378,5.2305,5.2353,5.2475,5.2498,5.2405,5.2005,5.1907,5.1858,5.174,5.1808,5.1907,5.1907,5.2005,5.2084,5.2084,5.2317,5.2498,5.2498,5.2779,5.2999,5.2999,5.3103,5.3185,5.3185,5.3082,5.2955,5.2806,5.2563,5.2309,5.2126,5.1933,5.1768,5.1715,5.1786,5.1768,5.1715,5.1637,5.1398,5.1008,5.0464,5.0149,5.0011,5.0011,5.0011,5.0011,5.0011,5.008,5.0189,5.0189,5.0274,5.0415,5.0397,5.0313,5.0217,5.0217,5.012,5.0097,5.0856,5.1369,5.1828,5.7881,5.7881,5.7881,5.7881,5.7881,5.7881,5.7881,5.7881,5.7881,5.7881,5.7881,5.7881,5.7881,5.7881,5.7881,5.7881,5.6562,5.5277,5.4228,5.3737,5.3501,5.3501,5.3501,5.3501,5.3501,5.3501,5.3501,5.3501,5.3601,5.3717,5.3915,5.4143,5.4318,5.4509,5.46,5.4645,5.4707,5.4707,5.4738,5.4755,5.46,5.4523,5.446,5.4173,5.389,5.3637,5.3541,5.3453,5.3355,5.3105,5.3328,5.3696,5.3786,5.3945,5.4062,5.4019,5.4062,5.4026,5.3494,5.3331,5.3157,5.2384,5.2192,5.2144,5.2029,5.2078,5.2192,5.2192,5.2287,5.241,5.2426,5.2518,5.2627,5.2824,5.2934,5.302,5.3143,5.3185,5.3185,5.3185,5.3164,5.3082,5.2955,5.2872,5.2694,5.2387,5.2156,5.2042,5.2132,5.2138,5.212,5.2036,5.1975,5.1754,5.1296,5.0857,5.0453,5.0149,5.0149,5.0092,5.0011,5.0011,5.008,5.0217,5.0302,5.0425,5.0547,5.063,5.0602,5.0492,5.0492,5.0397,5.0448,5.1749,5.2148,5.2207,5.7881,5.7881,5.7881,5.7881,5.7881,5.7881,5.7881,5.7881,5.7881,5.7881,5.7881,5.7881,5.7881,5.7881,5.7881,5.7881,5.6562,5.5209,5.4008,5.367,5.3501,5.3501,5.3551,5.3584,5.3584,5.3651,5.3701,5.38,5.3996,5.419,5.4382,5.471,5.4957,5.5109,5.5242,5.5313,5.5355,5.5355,5.5432,5.5461,5.5271,5.5122,5.5013,5.4662,5.446,5.4397,5.4239,5.4318,5.4485,5.4313,5.4636,5.5114,5.4934,5.5008,5.5097,5.4857,5.4858,5.4798,5.4309,5.4182,5.4032,5.3472,5.2851,5.2358,5.2269,5.2317,5.2382,5.2382,5.2452,5.2526,5.2586,5.2635,5.2743,5.2977,5.3042,5.3103,5.3185,5.3185,5.3185,5.3185,5.3185,5.3164,5.3082,5.3082,5.2955,5.2731,5.2508,5.2415,5.249,5.2554,5.2536,5.2454,5.2397,5.2168,5.1708,5.1391,5.0928,5.0274,5.0217,5.012,5.0011,5.0011,5.0109,5.0302,5.0481,5.0694,5.092,5.107,5.1096,5.0999,5.0946,5.0996,5.1242,5.2501,5.2898,5.3004,5.7881,5.7881,5.7881,5.7881,5.7881,5.7881,5.7881,5.7881,5.7881,5.7881,5.7881,5.7881,5.7881,5.7881,5.7881,5.7881,5.6613,5.5497,5.477,5.4042,5.3669,5.3669,5.3735,5.3783,5.3816,5.398,5.4093,5.4252,5.4586,5.4834,5.5035,5.5331,5.5566,5.5758,5.5918,5.6042,5.6164,5.6164,5.6282,5.6428,5.6088,5.5854,5.5629,5.5229,5.4974,5.4803,5.4652,5.4776,5.5083,5.5259,5.5815,5.6394,5.6034,5.5927,5.5826,5.5256,5.5106,5.5088,5.5015,5.5015,5.4979,5.4925,5.3802,5.2715,5.2715,5.2715,5.2679,5.2625,5.2612,5.2622,5.2627,5.2739,5.285,5.2999,5.3124,5.3185,5.3185,5.3185,5.3185,5.3185,5.3185,5.3185,5.3185,5.3185,5.3124,5.302,5.289,5.2824,5.2806,5.2915,5.2955,5.2846,5.2828,5.2631,5.2273,5.2048,5.1426,5.0453,5.0313,5.0178,5.004,5.004,5.0178,5.0453,5.0712,5.1052,5.1449,5.1672,5.1705,5.1644,5.1597,5.1872,5.2395,5.3188,5.3675,5.4015,5.7881,5.7881,5.7881,5.7881,5.7881,5.7881,5.7881,5.7881,5.7881,5.7881,5.7881,5.7881,5.7881,5.7881,5.7881,5.7881,5.723,5.6469,5.574,5.5111,5.4818,5.4968,5.4565,5.4463,5.4697,5.4494,5.4463,5.4586,5.4926,5.5152,5.5313,5.5769,5.607,5.6273,5.6501,5.6617,5.6662,5.6662,5.6689,5.6689,5.6501,5.642,5.632,5.5872,5.5689,5.5613,5.5366,5.5383,5.5619,5.6144,5.6537,5.6863,5.6888,5.6884,5.6873,5.6754,5.6699,5.6554,5.5921,5.5758,5.5613,5.5051,5.4653,5.4381,5.4381,5.4381,5.42,5.3566,5.3474,5.3372,5.2848,5.2872,5.2999,5.3124,5.3185,5.3185,5.3185,5.3185,5.3185,5.3185,5.3185,5.3185,5.3185,5.3103,5.302,5.2999,5.289,5.2846,5.2955,5.2999,5.302,5.3103,5.2999,5.285,5.2676,5.2315,5.1701,5.0866,5.0721,5.0547,5.0302,5.0302,5.0453,5.0739,5.0991,5.1383,5.1804,5.2084,5.212,5.2138,5.2726,5.297,5.3143,5.4445,5.4928,5.4932,5.7881,5.7881,5.7881,5.7881,5.7881,5.7881,5.7881,5.7881,5.7881,5.7881,5.7881,5.7881,5.7881,5.8007,5.8099,5.8261,5.7703,5.7244,5.702,5.6382,5.61,5.6295,5.5744,5.5545,5.5862,5.5481,5.5259,5.5289,5.5653,5.5883,5.5996,5.6357,5.6591,5.6707,5.6899,5.7003,5.7003,5.7003,5.7003,5.6977,5.6847,5.6794,5.6742,5.6392,5.6227,5.6199,5.6003,5.6021,5.6217,5.6635,5.6873,5.701,5.7156,5.7188,5.7188,5.7188,5.7188,5.7098,5.6681,5.6573,5.6482,5.6084,5.5993,5.5794,5.507,5.4907,5.4804,5.4399,5.4361,5.429,5.4072,5.4089,5.4195,5.4323,5.4344,5.4344,5.4344,5.4014,5.3775,5.3775,5.3424,5.3185,5.3185,5.3143,5.3103,5.3103,5.3039,5.3039,5.3082,5.3103,5.3124,5.3185,5.3124,5.302,5.2912,5.2631,5.2203,5.1676,5.127,5.0973,5.0776,5.0776,5.091,5.1087,5.1442,5.1793,5.2168,5.2421,5.2776,5.3185,5.3557,5.4079,5.4719,5.5494,5.5901,5.6062,5.7881,5.7881,5.7881,5.7881,5.7881,5.7881,5.7881,5.7881,5.7881,5.7881,5.7918,5.7954,5.8007,5.8207,5.8491,5.8789,5.829,5.8114,5.8411,5.7781,5.7492,5.7695,5.7114,5.6869,5.6964,5.6641,5.6306,5.6032,5.642,5.6635,5.6653,5.6899,5.7003,5.7003,5.7138,5.7188,5.7188,5.7188,5.7188,5.7188,5.7079,5.7036,5.7003,5.6768,5.668,5.6653,5.6519,5.6546,5.6689,5.6925,5.7028,5.7036,5.7163,5.7188,5.7188,5.7188,5.7188,5.7188,5.7188,5.7188,5.7188,5.7188,5.7188,5.6862,5.5619,5.5329,5.5281,5.522,5.5249,5.5307,5.5368,5.5418,5.5463,5.5592,5.5614,5.5614,5.5614,5.5023,5.4601,5.4601,5.4014,5.361,5.361,5.35,5.3427,5.3427,5.3277,5.3185,5.3185,5.3185,5.3185,5.3185,5.3185,5.3143,5.3042,5.2893,5.2717,5.2495,5.1922,5.1525,5.1339,5.1339,5.1398,5.1576,5.1897,5.2293,5.2676,5.2939,5.3588,5.4448,5.4468,5.5231,5.6303,5.6424,5.6751,5.7061,5.7881,5.7881,5.7881,5.7881,5.7881,5.7881,5.7881,5.7881,5.7881,5.7881,5.8044,5.8224,5.8419,5.884,5.9165,5.9199,5.9396,5.9556,5.9733,5.9208,5.9016,5.9265,5.8697,5.8174,5.7672,5.7819,5.7451,5.6519,5.6707,5.6768,5.6768,5.6925,5.7003,5.7003,5.7138,5.7188,5.7188,5.7188,5.7188,5.7188,5.7163,5.7163,5.7156,5.6984,5.6951,5.6925,5.6794,5.6821,5.6951,5.7003,5.7079,5.7181,5.7188,5.7188,5.7188,5.7188,5.7188,5.7188,5.7188,5.7188,5.7188,5.7188,5.7188,5.7177,5.7084,5.7054,5.6854,5.617,5.621,5.6173,5.5523,5.5485,5.5592,5.5592,5.5614,5.5614,5.5614,5.55,5.5427,5.5427,5.5335,5.5262,5.5262,5.4638,5.4234,5.4234,5.3592,5.3185,5.3185,5.3185,5.3185,5.3185,5.3185,5.3185,5.3185,5.3042,5.2937,5.2934,5.2698,5.2361,5.1891,5.1891,5.1946,5.209,5.2273,5.2898,5.3804,5.3953,5.4561,5.5478,5.6153,5.6534,5.6786,5.7371,5.7558,5.7504,5.7881,5.7881,5.7935,5.8044,5.808,5.808,5.808,5.808,5.808,5.808,5.8224,5.8473,5.8754,5.9317,5.9779,6.0022,6.0244,6.0446,6.0691,6.048,6.0499,6.0715,6.0031,5.9542,5.9357,5.9042,5.8438,5.7618,5.7219,5.701,5.701,5.7061,5.7112,5.7112,5.7163,5.7188,5.7188,5.7188,5.7188,5.7188,5.7188,5.7188,5.7188,5.7138,5.7112,5.7087,5.7036,5.7079,5.7112,5.7112,5.7138,5.7188,5.7188,5.7188,5.7188,5.7188,5.7188,5.7188,5.7188,5.7188,5.7188,5.7188,5.7257,5.7332,5.7406,5.7528,5.7516,5.7169,5.7191,5.7175,5.6896,5.6909,5.6932,5.6932,5.6932,5.6932,5.6932,5.6547,5.6106,5.5669,5.5614,5.5614,5.5614,5.5262,5.506,5.506,5.473,5.4546,5.4546,5.4546,5.4546,5.4546,5.4546,5.4546,5.4546,5.4484,5.4444,5.4444,5.4378,5.3685,5.2454,5.2454,5.2712,5.3199,5.3349,5.3936,5.4779,5.4928,5.5493,5.6308,5.6657,5.7079,5.7519,5.778,5.7862,5.7815]}]]